[[{"header":{"parameterUnit":"m.s-1","parameterCategory":1,"la1":30.6,"la2":28.766,"lo1":-90.7593,"lo2":-88.6598,"dx":0.0162,"dy":0.0183,"nx":116,"ny":114,"refTime":"2023-02-14T18:00:00:Z","depth":0,"parameterNumber":2,"parameterNumberName":"U-component_of_WINDS"},"data":[0.0,0.0,0.0,0.0,0.0,0.0,0.0,0.0,0.0,0.0,0.0,0.0,0.0,0.0,0.0,0.0,0.0,0.0,0.0,0.0,0.0,0.0,0.0,0.0,0.0,0.0,0.0,0.0,0.0,0.0,0.0,0.0,0.0,0.0,0.0,0.0,0.0,0.0,0.0,0.0,0.0,0.0,0.0,0.0,0.0,0.0,0.0,0.0,0.0,0.0,0.0,0.0,0.0,0.0,0.0,0.0,0.0,0.0,0.0,0.0,0.0,0.0,0.0,0.0,0.0,0.0,0.0,0.0,0.0,0.0,0.0,0.0,0.0,0.0,0.0,0.0,0.0,0.0,0.0,0.0,0.0,0.0,0.0,0.0,0.0,0.0,0.0,0.0,0.0,0.0,0.0,0.0,0.0,0.0,0.0,0.0,0.0,0.0,0.0,0.0,0.0,0.0,0.0,0.0,0.0,0.0,0.0,0.0,0.0,0.0,0.0,0.0,0.0,0.0,0.0,0.0,0.0,0.0,0.0,0.0,0.0,0.0,0.0,0.0,0.0,0.0,0.0,0.0,0.0,0.0,0.0,0.0,0.0,0.0,0.0,0.0,0.0,0.0,0.0,0.0,0.0,0.0,0.0,0.0,0.0,0.0,0.0,0.0,0.0,0.0,0.0,0.0,0.0,0.0,0.0,0.0,0.0,0.0,0.0,0.0,0.0,0.0,0.0,0.0,0.0,0.0,0.0,0.0,0.0,0.0,0.0,0.0,0.0,0.0,0.0,0.0,0.0,0.0,0.0,0.0,0.0,0.0,0.0,0.0,0.0,0.0,0.0,0.0,0.0,0.0,0.0,0.0,0.0,0.0,0.0,0.0,0.0,0.0,0.0,0.0,0.0,0.0,0.0,0.0,0.0,0.0,0.0,0.0,0.0,0.0,0.0,0.0,0.0,0.0,0.0,0.0,0.0,0.0,0.0,0.0,0.0,0.0,0.0,0.0,0.0,0.0,0.0,0.0,0.0,0.0,0.0,0.0,0.0,0.0,0.0,0.0,0.0,0.0,0.0,0.0,0.0,0.0,0.0,0.0,0.0,0.0,0.0,0.0,0.0,0.0,0.0,0.0,0.0,0.0,0.0,0.0,0.0,0.0,0.0,0.0,0.0,0.0,0.0,0.0,0.0,0.0,0.0,0.0,0.0,0.0,0.0,0.0,0.0,0.0,0.0,0.0,0.0,0.0,0.0,0.0,0.0,0.0,0.0,0.0,0.0,0.0,0.0,0.0,0.0,0.0,0.0,0.0,0.0,0.0,0.0,0.0,0.0,0.0,0.0,0.0,0.0,0.0,0.0,0.0,0.0,0.0,0.0,0.0,0.0,0.0,0.0,0.0,0.0,0.0,0.0,0.0,0.0,0.0,0.0,0.0,0.0,0.0,0.0,0.0,0.0,0.0,0.0,0.0,0.0,0.0,0.0,0.0,0.0,0.0,0.0,0.0,0.0,0.0,0.0,0.0,0.0,0.0,0.0,0.0,0.0,0.0,0.0,0.0,0.0,0.0,0.0,0.0,0.0,0.0,0.0,0.0,0.0,0.0,0.0,0.0,0.0,0.0,0.0,0.0,0.0,0.0,0.0,0.0,0.0,0.0,0.0,0.0,0.0,0.0,0.0,0.0,0.0,0.0,0.0,0.0,0.0,0.0,0.0,0.0,0.0,0.0,0.0,0.0,0.0,0.0,0.0,0.0,0.0,0.0,0.0,0.0,0.0,0.0,0.0,0.0,0.0,0.0,0.0,0.0,0.0,0.0,0.0,0.0,0.0,0.0,0.0,0.0,0.0,0.0,0.0,0.0,0.0,0.0,0.0,0.0,0.0,0.0,0.0,0.0,0.0,0.0,0.0,0.0,0.0,0.0,0.0,0.0,0.0,0.0,0.0,0.0,0.0,0.0,0.0,0.0,0.0,0.0,0.0,0.0,0.0,0.0,0.0,0.0,0.0,0.0,0.0,0.0,0.0,0.0,0.0,0.0,0.0,0.0,0.0,0.0,0.0,0.0,0.0,0.0,0.0,0.0,0.0,0.0,0.0,0.0,0.0,0.0,0.0,0.0,0.0,0.0,0.0,0.0,0.0,0.0,0.0,0.0,0.0,0.0,0.0,0.0,0.0,0.0,0.0,0.0,0.0,0.0,0.0,0.0,0.0,0.0,0.0,0.0,0.0,0.0,0.0,0.0,0.0,0.0,0.0,0.0,0.0,0.0,0.0,0.0,0.0,0.0,0.0,0.0,0.0,0.0,0.0,0.0,0.0,0.0,0.0,0.0,0.0,0.0,0.0,0.0,0.0,0.0,0.0,0.0,0.0,0.0,0.0,0.0,0.0,0.0,0.0,0.0,0.0,0.0,0.0,0.0,0.0,0.0,0.0,0.0,0.0,0.0,0.0,0.0,0.0,0.0,0.0,0.0,0.0,0.0,0.0,0.0,0.0,0.0,0.0,0.0,0.0,0.0,0.0,0.0,0.0,0.0,0.0,0.0,0.0,0.0,0.0,0.0,0.0,0.0,0.0,0.0,0.0,0.0,0.0,0.0,0.0,0.0,0.0,0.0,0.0,0.0,0.0,0.0,0.0,0.0,0.0,0.0,0.0,0.0,0.0,0.0,0.0,0.0,0.0,0.0,0.0,0.0,0.0,0.0,0.0,0.0,0.0,0.0,0.0,0.0,0.0,0.0,0.0,0.0,0.0,0.0,0.0,0.0,0.0,0.0,0.0,0.0,0.0,0.0,0.0,0.0,0.0,0.0,0.0,0.0,0.0,0.0,0.0,0.0,0.0,0.0,0.0,0.0,0.0,0.0,0.0,0.0,0.0,0.0,0.0,0.0,0.0,0.0,0.0,0.0,0.0,0.0,0.0,0.0,0.0,0.0,0.0,0.0,0.0,0.0,0.0,0.0,0.0,0.0,0.0,0.0,0.0,0.0,0.0,0.0,0.0,0.0,0.0,0.0,0.0,0.0,0.0,0.0,0.0,0.0,0.0,0.0,0.0,0.0,0.0,0.0,0.0,0.0,0.0,0.0,0.0,0.0,0.0,0.0,0.0,0.0,0.0,0.0,0.0,0.0,0.0,0.0,0.0,0.0,0.0,0.0,0.0,0.0,0.0,0.0,0.0,0.0,0.0,0.0,0.0,0.0,0.0,0.0,0.0,0.0,0.0,0.0,0.0,0.0,0.0,0.0,0.0,0.0,0.0,0.0,0.0,0.0,0.0,0.0,0.0,0.0,0.0,0.0,0.0,0.0,0.0,0.0,0.0,0.0,0.0,0.0,0.0,0.0,0.0,0.0,0.0,0.0,0.0,0.0,0.0,0.0,0.0,0.0,0.0,0.0,0.0,0.0,0.0,0.0,0.0,0.0,0.0,0.0,0.0,0.0,0.0,0.0,0.0,0.0,0.0,0.0,0.0,0.0,0.0,0.0,0.0,0.0,0.0,0.0,0.0,0.0,0.0,0.0,0.0,0.0,0.0,0.0,0.0,0.0,0.0,0.0,0.0,0.0,0.0,0.0,0.0,0.0,0.0,0.0,0.0,0.0,0.0,0.0,0.0,0.0,0.0,0.0,0.0,0.0,0.0,0.0,0.0,0.0,0.0,0.0,0.0,0.0,0.0,0.0,0.0,0.0,0.0,0.0,0.0,0.0,0.0,0.0,0.0,0.0,0.0,0.0,0.0,0.0,0.0,0.0,0.0,0.0,0.0,0.0,0.0,0.0,0.0,0.0,0.0,0.0,0.0,0.0,0.0,0.0,0.0,0.0,0.0,0.0,0.0,0.0,0.0,0.0,0.0,0.0,0.0,0.0,0.0,0.0,0.0,0.0,0.0,0.0,0.0,0.0,0.0,0.0,0.0,0.0,0.0,0.0,0.0,0.0,0.0,0.0,0.0,0.0,0.0,0.0,0.0,0.0,0.0,0.0,0.0,0.0,0.0,0.0,0.0,0.0,0.0,0.0,0.0,0.0,0.0,0.0,0.0,0.0,0.0,0.0,0.0,0.0,0.0,0.0,0.0,0.0,0.0,0.0,0.0,0.0,0.0,0.0,0.0,0.0,0.0,0.0,0.0,0.0,0.0,0.0,0.0,0.0,0.0,0.0,0.0,0.0,0.0,0.0,0.0,0.0,0.0,0.0,0.0,0.0,0.0,0.0,0.0,0.0,0.0,0.0,0.0,0.0,0.0,0.0,0.0,0.0,0.0,0.0,0.0,0.0,0.0,0.0,0.0,0.0,0.0,0.0,0.0,0.0,0.0,0.0,0.0,0.0,0.0,0.0,0.0,0.0,0.0,0.0,0.0,0.0,0.0,0.0,0.0,0.0,0.0,0.0,0.0,0.0,0.0,0.0,0.0,0.0,0.0,0.0,0.0,0.0,0.0,0.0,0.0,0.0,0.0,0.0,0.0,0.0,0.0,0.0,0.0,0.0,0.0,0.0,0.0,0.0,0.0,0.0,0.0,0.0,0.0,0.0,0.0,0.0,0.0,0.0,0.0,0.0,0.0,0.0,0.0,0.0,0.0,0.0,0.0,0.0,0.0,0.0,0.0,0.0,0.0,0.0,0.0,0.0,0.0,0.0,0.0,0.0,0.0,0.0,0.0,0.0,0.0,0.0,0.0,0.0,0.0,0.0,0.0,0.0,0.0,0.0,0.0,0.0,0.0,0.0,0.0,0.0,0.0,0.0,0.0,0.0,0.0,0.0,0.0,0.0,0.0,0.0,0.0,0.0,0.0,0.0,0.0,0.0,0.0,0.0,0.0,0.0,0.0,0.0,0.0,0.0,0.0,0.0,0.0,0.0,0.0,0.0,0.0,0.0,0.0,0.0,0.0,0.0,0.0,0.0,0.0,0.0,0.0,0.0,0.0,0.0,0.0,0.0,0.0,0.0,0.0,0.0,0.0,0.0,0.0,0.0,0.0,0.0,0.0,0.0,0.0,0.0,0.0,0.0,0.0,0.0,0.0,0.0,0.0,0.0,0.0,0.0,0.0,0.0,0.0,0.0,0.0,0.0,0.0,0.0,0.0,0.0,0.0,0.0,0.0,0.0,0.0,0.0,0.0,0.0,0.0,0.0,0.0,0.0,0.0,0.0,0.0,0.0,0.0,0.0,0.0,0.0,0.0,0.0,0.0,0.0,0.0,0.0,0.0,0.0,0.0,0.0,0.0,0.0,0.0,0.0,0.0,0.0,0.0,0.0,0.0,0.0,0.0,0.0,0.0,0.0,0.0,0.0,0.0,0.0,0.0,0.0,0.0,0.0,0.0,0.0,0.0,0.0,0.0,0.0,0.0,0.0,0.0,0.0,0.0,0.0,0.0,0.0,0.0,0.0,0.0,0.0,0.0,0.0,0.0,0.0,0.0,0.0,0.0,0.0,0.0,0.0,0.0,0.0,0.0,0.0,0.0,0.0,0.0,0.0,0.0,0.0,0.0,0.0,0.0,0.0,0.0,0.0,0.0,0.0,0.0,0.0,0.0,0.0,0.0,0.0,0.0,0.0,0.0,0.0,0.0,0.0,0.0,0.0,0.0,0.0,0.0,0.0,0.0,0.0,0.0,0.0,0.0,0.0,0.0,0.0,0.0,0.0,0.0,0.0,0.0,0.0,0.0,0.0,0.0,0.0,0.0,0.0,0.0,0.0,0.0,0.0,0.0,0.0,0.0,0.0,0.0,0.0,0.0,0.0,0.0,0.0,0.0,0.0,0.0,0.0,0.0,0.0,0.0,0.0,0.0,0.0,0.0,0.0,0.0,0.0,0.0,0.0,0.0,0.0,0.0,0.0,0.0,0.0,0.0,0.0,0.0,0.0,0.0,0.0,0.0,0.0,0.0,0.0,0.0,0.0,0.0,0.0,0.0,0.0,0.0,0.0,0.0,0.0,0.0,0.0,0.0,0.0,0.0,0.0,0.0,0.0,0.0,0.0,0.0,0.0,0.0,0.0,0.0,0.0,0.0,0.0,0.0,0.0,0.0,0.0,0.0,0.0,0.0,0.0,0.0,0.0,0.0,0.0,0.0,0.0,0.0,0.0,0.0,0.0,0.0,0.0,0.0,0.0,0.0,0.0,0.0,0.0,-1.7278,0.0,0.0,0.0,0.0,0.0,0.0,0.0,0.0,0.0,0.0,0.0,0.0,0.0,0.0,0.0,0.0,0.0,0.0,0.0,0.0,0.0,0.0,0.0,0.0,0.0,0.0,0.0,0.0,0.0,0.0,0.0,0.0,0.0,0.0,0.0,0.0,0.0,0.0,0.0,0.0,0.0,0.0,0.0,0.0,0.0,0.0,0.0,0.0,0.0,0.0,0.0,0.0,0.0,0.0,0.0,0.0,0.0,0.0,0.0,0.0,0.0,0.0,0.0,0.0,0.0,0.0,0.0,0.0,0.0,0.0,0.0,0.0,0.0,0.0,0.0,0.0,0.0,0.0,0.0,0.0,0.0,0.0,0.0,0.0,0.0,0.0,0.0,0.0,0.0,0.0,0.0,0.0,0.0,0.0,0.0,0.0,0.0,0.0,0.0,0.0,0.0,0.0,0.0,0.0,0.0,0.0,0.0,0.0,0.0,0.0,0.0,0.0,0.0,0.0,0.0,0.0,-1.7278,0.0,0.0,0.0,0.0,0.0,0.0,0.0,0.0,0.0,0.0,0.0,0.0,0.0,0.0,0.0,0.0,0.0,0.0,0.0,0.0,0.0,0.0,0.0,0.0,0.0,0.0,0.0,0.0,0.0,0.0,0.0,0.0,0.0,0.0,0.0,0.0,0.0,0.0,0.0,0.0,0.0,0.0,0.0,0.0,0.0,0.0,0.0,0.0,0.0,0.0,0.0,0.0,0.0,0.0,0.0,0.0,0.0,0.0,0.0,0.0,0.0,0.0,0.0,0.0,0.0,0.0,0.0,0.0,0.0,0.0,0.0,0.0,0.0,0.0,0.0,0.0,0.0,0.0,0.0,0.0,0.0,0.0,0.0,0.0,0.0,0.0,0.0,0.0,0.0,0.0,0.0,0.0,0.0,0.0,0.0,0.0,0.0,0.0,0.0,0.0,0.0,0.0,0.0,0.0,0.0,0.0,0.0,0.0,0.0,-1.8958,-1.8807,-1.8512,-1.8589,-1.8895,-1.8032,-1.7595,-1.7529,0.0,0.0,0.0,0.0,0.0,0.0,0.0,0.0,0.0,0.0,0.0,0.0,0.0,0.0,0.0,0.0,0.0,0.0,0.0,0.0,0.0,0.0,0.0,0.0,0.0,0.0,0.0,0.0,0.0,0.0,0.0,0.0,0.0,0.0,0.0,0.0,0.0,0.0,0.0,-3.7274,-3.6907,-3.6717,-3.6531,-3.5527,0.0,0.0,0.0,0.0,0.0,0.0,0.0,0.0,0.0,0.0,0.0,0.0,0.0,0.0,0.0,0.0,0.0,0.0,0.0,0.0,0.0,0.0,0.0,0.0,0.0,0.0,0.0,0.0,0.0,0.0,0.0,0.0,0.0,0.0,0.0,0.0,0.0,0.0,0.0,0.0,0.0,0.0,0.0,-2.1559,-2.1059,0.0,0.0,0.0,0.0,0.0,0.0,0.0,0.0,0.0,0.0,0.0,0.0,0.0,0.0,-2.0718,-2.0202,-1.9844,-1.9726,-1.9465,-1.9317,-1.9331,-1.9703,-1.9835,-1.9857,-1.9375,0.0,-1.8501,-1.8501,0.0,0.0,0.0,0.0,0.0,0.0,0.0,0.0,0.0,0.0,0.0,0.0,0.0,0.0,0.0,0.0,0.0,0.0,0.0,0.0,0.0,0.0,0.0,0.0,0.0,0.0,0.0,0.0,0.0,0.0,0.0,0.0,0.0,0.0,0.0,0.0,-3.7316,-3.7468,-3.7613,-3.7413,-3.7376,-3.7377,-3.6592,-3.6106,-3.5784,-3.5428,0.0,0.0,0.0,0.0,0.0,0.0,0.0,0.0,0.0,0.0,0.0,0.0,0.0,0.0,0.0,0.0,0.0,0.0,0.0,0.0,0.0,0.0,0.0,0.0,0.0,0.0,0.0,0.0,0.0,0.0,0.0,0.0,0.0,0.0,0.0,0.0,0.0,0.0,0.0,-2.1997,-2.1557,-2.1746,-2.2062,-2.2326,0.0,0.0,0.0,0.0,0.0,0.0,0.0,0.0,0.0,-2.1933,-2.1674,-2.1219,-2.0473,-2.017,-1.9725,-1.9157,-1.9028,-1.9146,-1.943,-1.9637,-1.9824,-2.0074,-1.9857,-1.9703,-1.9462,-1.8916,-1.8687,-1.8687,0.0,0.0,0.0,0.0,0.0,-1.8434,0.0,0.0,0.0,0.0,0.0,0.0,0.0,0.0,0.0,0.0,0.0,0.0,0.0,0.0,0.0,-3.3868,0.0,0.0,0.0,0.0,0.0,0.0,0.0,0.0,0.0,0.0,0.0,0.0,-3.8225,-3.8122,-3.788,-3.7756,-3.7756,-3.7756,-3.7264,-3.6917,-3.6678,-3.6409,-3.6131,0.0,0.0,0.0,0.0,0.0,0.0,0.0,0.0,0.0,0.0,0.0,0.0,0.0,0.0,0.0,0.0,0.0,0.0,0.0,0.0,0.0,0.0,0.0,0.0,0.0,0.0,0.0,0.0,0.0,0.0,0.0,0.0,0.0,0.0,0.0,0.0,0.0,0.0,-2.1968,-2.1615,-2.2313,-2.2432,-2.2605,0.0,0.0,0.0,0.0,0.0,0.0,-2.2128,-2.2102,-2.2094,-2.216,-2.2198,-2.1786,-2.1021,-2.0852,-2.0482,-1.9818,-1.9722,-1.9857,-2.0222,-2.0281,-2.0533,-2.0804,-2.0751,-2.063,-2.0553,-1.9517,-1.9058,-1.9058,-1.9058,-1.9058,0.0,-1.9058,-1.8997,-1.8738,0.0,0.0,0.0,0.0,0.0,0.0,0.0,0.0,0.0,0.0,0.0,0.0,0.0,0.0,-3.4148,-3.3998,-3.3998,-3.3895,0.0,0.0,0.0,0.0,0.0,0.0,0.0,0.0,0.0,-3.8307,-3.8307,-3.8322,-3.835,-3.7964,-3.7774,-3.7685,-3.719,-3.7266,-3.7667,-3.6719,-3.6326,-3.6308,0.0,0.0,0.0,0.0,0.0,0.0,0.0,0.0,0.0,0.0,0.0,0.0,0.0,0.0,0.0,0.0,0.0,0.0,0.0,0.0,0.0,0.0,0.0,0.0,0.0,0.0,0.0,0.0,0.0,0.0,0.0,0.0,0.0,0.0,0.0,0.0,0.0,0.0,0.0,-2.1834,-2.1707,0.0,0.0,0.0,0.0,-2.3468,-2.3371,-2.3316,-2.3286,-2.3188,-2.291,-2.2413,-2.2372,-2.2591,-2.3041,-2.2445,-2.2346,-2.2892,-2.2545,-2.2433,-2.2434,-2.2678,-2.2826,-2.2826,-2.24,-2.2215,-2.2106,-2.0597,-2.0009,-2.0009,-2.0009,-2.0009,-2.0009,-2.0009,-1.9803,-1.9541,0.0,0.0,0.0,0.0,0.0,0.0,0.0,0.0,0.0,0.0,0.0,0.0,0.0,-3.4427,-3.4386,-3.4269,-3.4173,-3.4023,-3.3753,0.0,0.0,0.0,0.0,0.0,0.0,0.0,-3.8322,-3.8368,-3.8368,-3.8303,-3.8153,-3.746,-3.7174,-3.7156,-3.6666,-3.6702,-3.7126,-3.6549,-3.6284,-3.6284,-3.5783,-3.5622,0.0,0.0,0.0,0.0,0.0,0.0,0.0,0.0,0.0,0.0,0.0,0.0,0.0,0.0,0.0,0.0,0.0,0.0,0.0,0.0,0.0,0.0,0.0,0.0,0.0,0.0,0.0,0.0,0.0,0.0,0.0,0.0,0.0,0.0,0.0,0.0,0.0,-2.2313,-2.2549,0.0,0.0,-2.3186,-2.3223,-2.3464,-2.3036,-2.2929,-2.3253,-2.321,-2.3218,-2.3323,-2.3657,-2.3752,-2.3529,-2.3646,-2.3668,-2.3573,-2.343,-2.3089,-2.265,-2.2729,-2.2559,-2.2084,-2.192,-2.1843,-2.1811,-2.1286,-2.1079,-2.1079,-2.1079,-2.1079,-2.1079,-2.1079,-2.0931,-2.0546,0.0,0.0,0.0,0.0,0.0,0.0,0.0,0.0,0.0,0.0,0.0,-3.4427,-3.4495,-3.4561,-3.4517,-3.4316,-3.4245,-3.4185,-3.4165,0.0,0.0,0.0,0.0,0.0,0.0,-3.8322,-3.8241,-3.8013,-3.8013,-3.7822,-3.7421,-3.6729,-3.6508,-3.6604,-3.6123,-3.6125,-3.645,-3.5955,-3.6047,-3.6492,-3.5871,-3.5694,-3.5827,0.0,0.0,0.0,0.0,0.0,0.0,0.0,0.0,0.0,0.0,0.0,0.0,0.0,0.0,0.0,0.0,0.0,0.0,0.0,0.0,0.0,0.0,0.0,0.0,0.0,0.0,0.0,0.0,0.0,0.0,0.0,0.0,0.0,0.0,0.0,-2.2837,-2.3226,-2.3458,-2.376,-2.4116,-2.3857,-2.3704,-2.39,-2.3686,-2.3694,-2.4073,-2.4282,-2.4395,-2.4443,-2.4836,-2.477,-2.403,-2.4661,-2.4583,-2.3743,-2.3935,-2.3617,-2.2903,-2.2867,-2.2536,-2.2062,-2.2062,-2.2062,-2.2062,-2.2062,-2.2062,-2.2029,-2.1712,-2.1592,-2.1592,-2.1592,-2.1441,-2.1118,0.0,0.0,0.0,0.0,0.0,0.0,0.0,0.0,0.0,0.0,0.0,-3.4561,-3.4517,-3.4539,-3.445,-3.4124,-3.4148,-3.44,-3.4851,-3.5656,0.0,0.0,0.0,0.0,-3.8307,-3.835,-3.8013,-3.729,-3.7302,-3.6948,-3.634,-3.5897,-3.5879,-3.6131,-3.581,-3.5752,-3.5882,-3.51,-3.5645,-3.6978,-3.595,-3.5854,-3.6216,0.0,0.0,0.0,0.0,0.0,0.0,0.0,0.0,0.0,0.0,0.0,0.0,0.0,0.0,0.0,0.0,0.0,0.0,0.0,0.0,0.0,0.0,0.0,0.0,0.0,0.0,0.0,0.0,0.0,0.0,0.0,0.0,0.0,-2.3882,-2.35,-2.3712,-2.4408,-2.4313,-2.4419,-2.5176,-2.455,-2.44,-2.5035,-2.5524,-2.5824,-2.5824,-2.6347,-2.6386,-2.5837,-2.5837,-2.5459,-2.4743,-2.5472,-2.5141,-2.3749,-2.4266,-2.4105,-2.3372,-2.3223,-2.3075,-2.3001,-2.3001,-2.3001,-2.3001,-2.3001,-2.3001,-2.2903,-2.1996,-2.1636,-2.1636,-2.1636,-2.1485,-2.1252,0.0,0.0,0.0,0.0,0.0,0.0,0.0,0.0,0.0,0.0,-3.4473,-3.4427,-3.4561,-3.4293,-3.4124,-3.4173,-3.3998,-3.4218,-3.4935,0.0,0.0,0.0,0.0,0.0,-3.8307,-3.7835,-3.7509,-3.729,-3.6813,-3.6769,-3.7147,-3.6454,-3.649,-3.7099,-3.7009,-3.6776,-3.6384,-3.5865,-3.5841,-3.6092,-3.5164,-3.5263,-3.5888,0.0,0.0,0.0,0.0,0.0,0.0,0.0,0.0,0.0,0.0,0.0,0.0,0.0,0.0,0.0,0.0,0.0,0.0,0.0,0.0,0.0,0.0,0.0,0.0,0.0,0.0,0.0,0.0,0.0,0.0,0.0,0.0,-2.5948,-2.4887,-2.4609,-2.4662,-2.4833,-2.4799,-2.4949,-2.5598,-2.5445,-2.5589,-2.6164,-2.5968,-2.5824,-2.5824,-2.5968,-2.5981,-2.5837,-2.6216,-2.6374,-2.6168,-2.6726,-2.6842,-2.6432,-2.6585,-2.6257,-2.5571,-2.5496,-2.485,-2.3768,-2.3768,-2.3486,-2.3001,-2.3001,-2.3001,-2.2968,-2.2717,-2.2608,-2.2608,-2.2608,-2.2172,-2.1509,0.0,0.0,0.0,0.0,0.0,0.0,0.0,0.0,0.0,0.0,-3.4495,-3.4427,-3.4386,-3.4173,-3.4023,-3.3998,-3.3868,-3.4257,-3.5384,0.0,0.0,0.0,0.0,-3.8158,-3.7816,-3.7453,-3.7095,-3.6766,-3.6369,-3.6417,-3.6916,-3.6291,-3.6358,-3.6982,-3.6826,-3.6544,-3.6137,-3.5757,-3.5526,-3.5396,-3.4645,-3.4839,-3.5574,-3.5812,-3.5783,-3.5622,-3.5622,-3.5622,-3.5622,-3.5622,0.0,0.0,0.0,0.0,0.0,0.0,0.0,0.0,0.0,0.0,0.0,0.0,0.0,0.0,0.0,0.0,0.0,0.0,0.0,0.0,0.0,0.0,0.0,0.0,-2.6981,-2.6512,-2.5659,-2.5647,-2.5589,-2.5354,-2.5598,-2.5936,-2.6214,-2.608,-2.6143,-2.6535,-2.6356,-2.624,-2.624,-2.6399,-2.6543,-2.6543,-2.6857,-2.6895,-2.6552,-2.722,-2.7175,-2.6552,-2.6905,-2.662,-2.5931,-2.5557,-2.4981,0.0,-2.3768,-2.3423,-2.3001,-2.3001,-2.3001,0.0,0.0,0.0,0.0,0.0,-2.2594,-2.1988,0.0,0.0,0.0,0.0,0.0,0.0,0.0,0.0,0.0,0.0,0.0,-3.4427,0.0,0.0,0.0,0.0,0.0,-3.4458,0.0,0.0,0.0,-3.8307,-3.8263,-3.7895,-3.7108,-3.6971,-3.6614,-3.5994,-3.5903,-3.6017,-3.6241,-3.5919,-3.6054,-3.656,-3.6182,-3.5965,-3.584,-3.5379,-3.5171,-3.5049,-3.4506,-3.4675,-3.5336,-3.5946,-3.5977,-3.5667,-3.5622,-3.5622,-3.5622,-3.5622,0.0,0.0,0.0,0.0,0.0,0.0,0.0,0.0,0.0,0.0,0.0,0.0,0.0,0.0,0.0,0.0,0.0,0.0,0.0,0.0,0.0,0.0,0.0,0.0,-2.7826,-2.7614,-2.6511,-2.6717,-2.6735,-2.6044,-2.6498,-2.6852,-2.6918,-2.6645,-2.6427,-2.6494,-2.6797,-2.7024,-2.6959,0.0,0.0,0.0,0.0,-2.7188,-2.6552,-2.7188,-2.6837,-2.5594,-2.6208,-2.6208,-2.5511,-2.4838,-2.4469,-2.4337,-2.357,-2.3213,-2.3139,-2.3001,-2.3001,-2.3001,-2.3001,-2.3001,-2.3001,-2.3001,-2.2777,0.0,0.0,0.0,0.0,0.0,0.0,0.0,0.0,0.0,0.0,0.0,0.0,0.0,0.0,0.0,0.0,0.0,0.0,-3.4458,0.0,0.0,-3.7649,-3.8271,-3.7703,-3.7253,-3.7011,-3.5879,-3.5501,-3.5994,-3.5356,-3.5809,-3.7239,-3.7009,-3.7356,-3.823,-3.8052,-3.7776,-3.7406,-3.6741,-3.6217,-3.5776,-3.5383,-3.5457,-3.5797,-3.5463,-3.5683,-3.6131,-3.5756,-3.5622,-3.5622,-3.5622,-3.5622,-3.5622,-3.5622,0.0,0.0,0.0,0.0,0.0,0.0,0.0,0.0,0.0,0.0,0.0,0.0,0.0,0.0,0.0,0.0,0.0,0.0,0.0,0.0,-2.9584,-2.916,-2.8542,-2.7905,-2.8228,-2.8125,-2.7067,-2.6618,-2.6591,-2.712,-2.7067,-2.7136,-2.7485,-2.7551,-2.7552,-2.7366,-2.7471,0.0,-2.7523,-2.7523,-2.7456,-2.7323,-2.7456,-2.739,-2.7053,0.0,0.0,-2.704,-2.6892,-2.6539,-2.5918,-2.5158,-2.4504,-2.3829,-2.3287,-2.3001,-2.3001,-2.3001,-2.3001,-2.3001,-2.2852,-2.2703,-2.2628,0.0,0.0,0.0,0.0,0.0,0.0,0.0,0.0,0.0,0.0,0.0,0.0,0.0,0.0,0.0,0.0,-3.4036,0.0,0.0,-3.6448,-3.7271,-3.7624,-3.7642,-3.7279,-3.6417,-3.5696,-3.549,-3.5908,-3.5508,-3.6219,-3.7942,-3.7831,-3.8131,-3.8707,-3.8609,-3.8382,-3.798,-3.76,-3.7066,-3.6394,-3.5726,-3.5687,-3.5964,-3.5583,-3.5434,-3.5403,-3.5576,-3.5622,-3.5622,-3.5622,-3.5622,-3.5622,-3.5622,-3.5622,-3.547,0.0,0.0,0.0,0.0,0.0,0.0,0.0,0.0,0.0,0.0,0.0,0.0,0.0,0.0,-3.012,0.0,0.0,-3.0213,-3.0235,-2.9595,-2.9023,-2.8799,-2.8457,-2.799,-2.7264,-2.7287,-2.7407,-2.7702,-2.787,-2.7991,-2.817,-2.8105,-2.8039,-2.7908,-2.7868,-2.7736,-2.7656,-2.7656,-2.759,-2.7523,-2.7523,-2.7523,-2.7523,-2.7523,-2.7523,-2.7456,-2.7108,-2.6769,-2.6346,-2.5581,-2.4862,-2.4047,-2.3276,-2.3001,-2.3001,-2.3001,-2.3001,-2.3001,-2.2777,-2.2628,-2.2478,0.0,0.0,0.0,0.0,0.0,0.0,0.0,0.0,0.0,0.0,0.0,0.0,0.0,0.0,0.0,0.0,0.0,0.0,0.0,-3.6041,-3.688,-3.7011,-3.7612,-3.7286,-3.5838,-3.5657,-3.5657,-3.5833,-3.5802,-3.6694,-3.8382,-3.835,-3.8483,-3.8658,-3.8658,-3.8465,-3.8219,-3.8219,-3.7747,-3.693,-3.5955,-3.562,-3.5659,-3.5616,-3.5235,-3.4832,-3.5379,-3.5622,-3.5622,-3.5622,-3.5622,-3.5622,-3.5622,-3.552,-3.525,-3.4506,-3.4167,0.0,0.0,0.0,0.0,0.0,0.0,0.0,0.0,0.0,-3.0428,-3.0428,-3.052,-3.0766,-3.1289,-3.129,-3.1104,-3.0794,-3.007,-2.9653,-2.9623,-2.8755,-2.7917,-2.7538,-2.8018,-2.8365,-2.8365,-2.8509,-2.8587,-2.8522,-2.8365,-2.83,-2.8235,-2.8131,-2.8,-2.7855,-2.7776,-2.7656,-2.759,-2.7523,-2.7523,-2.7523,-2.7523,-2.7523,-2.7469,-2.6905,-2.6633,-2.6564,-2.5761,-2.5016,-2.4208,-2.353,-2.3285,-2.3285,-2.3285,-2.3285,-2.3274,-2.2928,-2.2628,-2.2402,0.0,0.0,0.0,0.0,0.0,0.0,0.0,0.0,0.0,0.0,0.0,0.0,0.0,0.0,0.0,0.0,0.0,0.0,-3.4654,-3.5471,-3.6254,-3.6961,-3.7069,-3.6707,-3.5838,-3.5113,-3.5108,-3.589,-3.5833,-3.6694,-3.8382,-3.8256,-3.8322,-3.851,-3.8446,-3.8515,-3.8627,-3.8627,-3.8151,-3.7374,-3.6538,-3.5545,-3.4591,-3.4746,-3.5129,-3.5575,-3.5581,-3.5622,-3.5622,-3.5622,-3.5622,-3.5622,-3.5622,-3.5165,-3.4472,-3.3744,0.0,-3.2374,-3.1647,-3.1156,-3.0808,-3.0894,-3.0585,-3.0304,0.0,0.0,-3.0428,-3.0428,-3.0874,-3.1305,-3.1366,-3.1382,-3.1528,-3.2072,-3.1603,-3.0966,-3.044,-3.0228,-2.9756,-2.8607,-2.8546,-2.8587,-2.8587,-2.8587,-2.8522,-2.8365,-2.8287,-2.8235,-2.8145,-2.7921,-2.7934,-2.8079,-2.7736,-2.759,-2.7789,-2.759,-2.7523,-2.7523,-2.7523,-2.7523,-2.7523,-2.739,-2.739,-2.7348,-2.634,-2.5474,-2.4791,-2.4437,-2.4323,-2.4323,-2.4323,-2.4323,-2.4213,-2.3329,-2.2852,-2.2628,0.0,0.0,0.0,0.0,0.0,0.0,0.0,0.0,0.0,0.0,0.0,0.0,0.0,0.0,0.0,0.0,0.0,0.0,-3.3941,-3.5095,-3.5965,-3.629,-3.7196,-3.7305,-3.6508,-3.5711,-3.5476,-3.5846,-3.5331,-3.5973,-3.7644,-3.7598,-3.7867,-3.8446,-3.8415,-3.8465,-3.8554,-3.8065,-3.7759,-3.7367,-3.5978,-3.5403,-3.532,-3.5023,-3.5242,-3.5675,-3.5625,-3.5622,0.0,0.0,-3.5622,-3.5622,-3.5622,-3.5402,-3.5013,-3.4252,-3.3812,0.0,-3.1978,-3.1508,-3.1355,0.0,-3.0846,-3.0889,-3.0505,-3.1012,-3.1459,-3.1059,-3.1197,-3.1505,-3.1905,-3.1643,-3.1613,0.0,-3.1875,-3.1392,-3.1145,-3.0763,-3.0147,-2.9219,-2.9107,-2.8994,-2.8651,-2.8587,-2.8587,-2.8509,-2.8444,-2.8444,-2.8392,-2.8183,-2.8118,-2.8079,-2.7789,-2.7656,-2.7656,-2.7523,-2.7523,-2.7523,-2.7523,-2.7693,-2.802,-2.802,-2.8216,-2.8486,-2.7607,-2.7042,-2.6698,-2.5666,-2.5228,-2.515,-2.4713,-2.4486,-2.4432,-2.3928,-2.3688,-2.3533,0.0,0.0,0.0,0.0,0.0,0.0,0.0,0.0,0.0,0.0,0.0,0.0,0.0,0.0,0.0,0.0,0.0,0.0,0.0,-3.4715,-3.5584,-3.5802,-3.7123,-3.7594,-3.6997,-3.6435,-3.6019,-3.582,-3.5222,-3.5561,-3.6749,-3.6749,-3.7103,-3.7694,-3.7694,-3.7758,-3.7765,-3.7199,-3.6991,-3.6978,-3.5652,-3.5465,-3.5951,-3.5585,-3.5563,-3.5714,-3.5797,-3.5711,0.0,0.0,-3.5622,-3.5622,-3.5622,-3.547,-3.5199,-3.4658,-3.4201,-3.3657,-3.2689,0.0,0.0,-3.1029,-3.101,-3.1043,-3.0751,-3.1428,-3.1982,-3.149,-3.1536,-3.1751,-3.2059,-3.1859,-3.1828,-3.2321,-3.2048,-3.1709,-3.1537,-3.094,-3.0269,-2.958,-2.9331,-2.9107,-2.8651,-2.8587,-2.8587,-2.8587,-2.8587,-2.8587,-2.8509,-2.8314,-2.8183,-2.8079,-2.7855,-2.7656,-2.759,-2.768,-2.7771,-2.7771,-2.7941,-2.8229,-2.8634,-2.8634,-2.8869,-2.9287,-2.8588,-2.8273,-2.8211,-2.693,-2.645,-2.6384,-2.5565,-2.5258,-2.5178,-2.4766,-2.4432,-2.4126,0.0,0.0,0.0,0.0,0.0,0.0,0.0,0.0,0.0,0.0,0.0,0.0,0.0,0.0,0.0,0.0,0.0,0.0,0.0,-3.419,-3.4987,-3.5783,-3.658,-3.7029,-3.7011,-3.6993,-3.658,-3.582,-3.5783,-3.5802,-3.5838,-3.5838,-3.5869,-3.5994,-3.5994,-3.6006,-3.6067,-3.6049,-3.603,-3.603,-3.5976,-3.5994,-3.6042,-3.6263,-3.6114,-3.5849,-3.6156,0.0,0.0,0.0,-3.5622,-3.5622,-3.5622,-3.5115,0.0,-3.4506,-3.3474,0.0,0.0,0.0,-3.1033,-3.1924,-3.1306,-3.0612,-3.1228,-3.1382,-3.1413,-3.1382,-3.1905,-3.2167,-3.1536,-3.1936,-3.2367,-3.2398,-3.2398,-3.216,-3.1595,-3.094,-3.0283,-2.9685,-2.9008,-2.8587,0.0,-2.8587,-2.8587,-2.8587,-2.8587,-2.8509,-2.8287,-2.8197,-2.8079,-2.8079,-2.7736,-2.759,-2.7776,-2.8208,-2.8347,-2.836,-2.8948,-2.9235,-2.9248,-2.9248,-2.9261,-2.9301,-2.8908,-2.8812,-2.8775,-2.8475,-2.8299,-2.8219,-2.7441,-2.7139,-2.6976,-2.6174,-2.518,-2.4205,0.0,0.0,0.0,0.0,0.0,0.0,0.0,0.0,0.0,0.0,0.0,0.0,0.0,0.0,0.0,0.0,0.0,0.0,0.0,-3.4154,-3.4969,-3.5783,-3.6562,-3.7265,-3.7775,-3.7283,-3.6852,-3.6598,-3.6073,-3.6073,-3.6598,-3.6598,-3.6902,-3.7443,-3.7443,-3.7457,-3.7485,-3.6939,-3.6752,-3.676,-3.617,-3.6248,-3.6708,-3.6429,-3.6414,-3.6492,0.0,0.0,0.0,0.0,0.0,0.0,-3.5622,0.0,0.0,-3.4641,0.0,0.0,0.0,0.0,-3.118,-3.1571,-3.1371,-3.112,-3.1336,-3.1736,-3.1921,-3.1474,-3.1921,-3.2321,-3.209,-3.2244,-3.2398,-3.2398,-3.2398,-3.2176,-3.1595,-3.1306,-3.0748,-2.9642,-2.9345,0.0,0.0,0.0,0.0,-2.8587,-2.8587,-2.8587,-2.8509,-2.8276,-2.8079,-2.8079,-2.8104,-2.8153,-2.8221,-2.8756,-2.8974,-2.8987,-2.9562,-2.9849,-2.9862,-3.0241,-3.0411,-3.0411,-3.0284,-3.0286,-3.0224,-2.9539,-2.9225,-2.9147,-2.773,-2.7185,-2.7103,-2.6218,-2.5688,-2.5333,0.0,0.0,0.0,0.0,0.0,0.0,0.0,0.0,0.0,0.0,0.0,0.0,0.0,0.0,0.0,0.0,0.0,0.0,0.0,0.0,-3.4534,-3.5349,-3.6146,-3.6942,-3.7739,-3.754,-3.7268,-3.7011,-3.6472,-3.6345,-3.6562,-3.6562,-3.6852,-3.7341,-3.7341,-3.7374,-3.7352,-3.6844,-3.664,-3.6653,-3.624,-3.6342,-3.6777,-3.6595,-3.6576,0.0,0.0,0.0,0.0,0.0,0.0,0.0,0.0,0.0,0.0,0.0,0.0,0.0,0.0,-3.1767,-3.1326,-3.1295,-3.1327,-3.1337,-3.1389,-3.172,-3.1982,-3.1782,-3.209,-3.2398,-3.2398,-3.2398,-3.2398,-3.2398,-3.2398,-3.2272,-3.1879,-3.1652,-3.1175,-3.0315,-2.9813,-2.9331,0.0,0.0,0.0,-2.8587,-2.8587,-2.8587,-2.8509,-2.8262,-2.8186,-2.8385,-2.8475,-2.8628,-2.8838,-2.9429,-2.9751,-2.9889,-3.0268,-3.0438,-3.0451,-3.0817,-3.0986,-3.0986,-3.0986,-3.0986,-3.0986,-3.0419,-3.0177,-3.0024,-2.8279,-2.7649,-2.7487,-2.6302,-2.5895,-2.5895,0.0,0.0,0.0,0.0,0.0,0.0,0.0,0.0,0.0,0.0,0.0,0.0,0.0,0.0,0.0,0.0,0.0,0.0,0.0,0.0,0.0,-3.457,-3.5331,-3.6127,-3.6993,-3.7739,-3.7775,-3.7051,-3.7051,-3.6671,-3.5928,-3.5928,-3.5928,-3.5928,-3.5928,-3.5928,-3.5928,-3.5928,-3.5928,-3.5951,-3.6287,-3.6381,-3.6381,-3.6773,0.0,0.0,0.0,0.0,0.0,0.0,0.0,0.0,0.0,0.0,0.0,0.0,0.0,-3.2302,-3.2503,-3.2056,-3.149,-3.1213,-3.1207,-3.1297,-3.1433,-3.1428,-3.1613,-3.2259,-3.2398,-3.2398,0.0,0.0,-3.2398,-3.2398,-3.2398,-3.2398,-3.2398,-3.1879,-3.148,0.0,0.0,0.0,0.0,0.0,0.0,-2.8587,0.0,-2.8522,-2.8406,-2.8237,-2.8452,-2.9053,-2.8889,-2.9042,-2.9667,-3.0164,-3.0585,-3.0986,-3.0986,-3.0986,-3.0986,-3.0986,-3.0986,-3.0986,-3.0986,-3.0986,-3.0986,-3.0986,-3.0986,-3.0823,-2.9147,-2.8426,-2.8187,-2.6539,-2.5895,-2.5895,0.0,0.0,0.0,0.0,0.0,0.0,0.0,0.0,0.0,0.0,0.0,0.0,0.0,0.0,0.0,0.0,0.0,0.0,0.0,0.0,0.0,0.0,0.0,0.0,0.0,0.0,0.0,0.0,0.0,-3.7775,-3.7576,-3.7576,-3.7576,-3.7576,-3.7576,-3.7576,-3.7576,-3.7576,-3.7576,-3.7594,0.0,-3.7504,-3.7184,0.0,0.0,0.0,0.0,0.0,0.0,0.0,0.0,0.0,0.0,0.0,-3.4387,0.0,0.0,-3.1791,-3.1845,-3.1484,-3.1229,-3.1768,-3.1934,-3.197,-3.2091,-3.2136,-3.2182,-3.2351,-3.2398,-3.2398,0.0,0.0,0.0,-3.2398,-3.2398,0.0,-3.2398,-3.1879,0.0,-3.0822,0.0,-2.9331,-2.8881,-2.8716,0.0,0.0,-2.8587,-2.8777,-2.9145,-2.9053,-2.9201,-2.9778,-3.0094,-3.0175,-3.019,-3.0624,-3.0917,-3.0986,-3.0986,-3.0986,-3.0986,-3.0986,-3.0986,-3.0986,-3.0986,-3.0986,-3.0986,-3.0986,-3.0986,-3.0898,-2.9781,-2.8978,-2.8267,-2.7255,-2.6467,-2.5895,0.0,0.0,0.0,0.0,0.0,0.0,0.0,0.0,0.0,0.0,0.0,0.0,0.0,0.0,0.0,0.0,0.0,0.0,0.0,0.0,0.0,0.0,0.0,0.0,0.0,0.0,0.0,0.0,0.0,0.0,0.0,-3.8192,-3.8192,-3.8192,-3.8192,-3.8192,-3.8192,0.0,0.0,0.0,0.0,0.0,0.0,0.0,0.0,0.0,0.0,0.0,0.0,0.0,0.0,-3.5622,-3.5622,-3.5098,-3.4353,-3.3626,0.0,-3.1926,-3.1926,-3.1802,-3.1805,-3.2351,-3.2561,-3.2583,-3.247,-3.2398,-3.2398,-3.2398,-3.2398,0.0,-3.2398,0.0,0.0,0.0,0.0,0.0,-3.2398,-3.2104,-3.1652,0.0,-3.0329,0.0,-2.9058,-2.8766,-2.8695,0.0,-2.898,-2.9116,-2.9455,-2.9592,-2.9942,-3.0618,-3.073,-3.0895,-3.0944,-3.0979,-3.0986,-3.0986,-3.0986,-3.0986,-3.0986,-3.0986,-3.0986,-3.0986,0.0,-3.0986,-3.0986,-3.0986,-3.0986,-3.0911,-2.9626,-2.8821,-2.8267,-2.7092,-2.6302,-2.5895,0.0,0.0,0.0,0.0,0.0,0.0,0.0,0.0,0.0,0.0,0.0,0.0,0.0,0.0,0.0,0.0,0.0,0.0,0.0,0.0,0.0,0.0,0.0,0.0,0.0,0.0,0.0,0.0,0.0,0.0,0.0,0.0,0.0,0.0,0.0,0.0,0.0,0.0,0.0,0.0,0.0,0.0,0.0,0.0,0.0,0.0,0.0,0.0,0.0,0.0,-3.5622,-3.5622,-3.5622,-3.5165,-3.4472,-3.366,-3.2949,-3.2425,-3.2425,-3.2588,-3.2755,-3.2999,-3.315,-3.3145,-3.2547,-3.2398,-3.2398,-3.2398,0.0,-3.2398,-3.2398,-3.2398,-3.2398,-3.2398,0.0,-3.2398,-3.2398,-3.2398,-3.216,-3.1595,-3.0999,-3.0389,-2.969,-2.9058,-2.8961,-2.9547,-2.9617,-2.9631,-2.9713,-3.0065,-3.0632,-3.1382,-3.1168,-3.128,-3.1596,-3.1211,-3.0986,-3.0986,-3.0986,-3.0986,-3.0986,-3.0986,-3.0986,-3.0986,0.0,0.0,-3.0986,-3.0986,-3.0986,-3.0823,-2.9303,-2.8585,-2.8187,-2.6775,-2.6096,-2.5994,0.0,0.0,0.0,0.0,0.0,0.0,0.0,0.0,0.0,0.0,0.0,0.0,0.0,0.0,0.0,0.0,0.0,0.0,0.0,0.0,0.0,0.0,0.0,0.0,0.0,0.0,0.0,0.0,0.0,0.0,0.0,0.0,0.0,0.0,0.0,0.0,0.0,0.0,0.0,0.0,0.0,0.0,0.0,0.0,0.0,0.0,0.0,0.0,0.0,0.0,-3.5622,-3.5622,-3.5622,-3.552,-3.5148,-3.3812,-3.3322,-3.322,-3.322,-3.322,-3.3349,-3.3714,-3.3838,-3.3614,-3.2602,-3.2398,0.0,0.0,-3.2398,-3.2398,-3.2398,-3.2398,-3.2398,-3.2398,0.0,0.0,0.0,0.0,-3.216,0.0,0.0,0.0,0.0,0.0,0.0,0.0,0.0,0.0,-3.0948,-3.107,-3.1409,-3.2006,-3.1669,-3.1502,-3.1609,-3.1211,-3.0986,-3.0986,-3.0986,-3.0986,-3.0986,-3.0986,-3.0986,-3.0986,0.0,0.0,-3.0986,-3.0986,-3.0986,-3.0986,-3.0672,-2.9704,-2.8347,-2.8108,-2.7355,-2.6507,0.0,0.0,0.0,0.0,0.0,0.0,0.0,0.0,0.0,0.0,0.0,0.0,0.0,0.0,0.0,0.0,0.0,0.0,0.0,0.0,0.0,0.0,0.0,0.0,0.0,0.0,0.0,0.0,0.0,0.0,0.0,0.0,0.0,0.0,0.0,0.0,0.0,0.0,0.0,0.0,0.0,0.0,0.0,0.0,0.0,0.0,0.0,0.0,0.0,0.0,-3.5622,-3.5622,-3.5622,-3.5622,-3.5334,-3.3846,-3.3406,-3.3406,-3.3406,-3.3177,-3.319,-3.4167,-3.402,-3.3459,-3.2949,0.0,0.0,0.0,-3.1597,-3.1474,-3.1813,0.0,0.0,0.0,0.0,0.0,0.0,0.0,0.0,0.0,0.0,0.0,0.0,0.0,0.0,0.0,0.0,0.0,-3.1273,-3.1585,-3.1884,-3.2169,-3.1817,-3.1609,-3.1609,-3.1211,-3.0986,-3.0986,-3.0986,-3.0986,-3.0986,-3.0986,-3.0986,-3.0986,0.0,0.0,-3.0986,-3.0986,-3.0986,-3.0937,-3.0276,-2.9512,-2.8733,-2.809,-2.7435,-2.6988,0.0,0.0,0.0,0.0,0.0,0.0,0.0,0.0,0.0,0.0,0.0,0.0,0.0,0.0,0.0,0.0,0.0,0.0,0.0,0.0,0.0,0.0,0.0,0.0,0.0,0.0,0.0,0.0,0.0,0.0,0.0,0.0,0.0,0.0,0.0,0.0,0.0,0.0,0.0,0.0,0.0,0.0,0.0,0.0,0.0,0.0,0.0,0.0,0.0,0.0,-3.5622,-3.5622,-3.5622,-3.5622,-3.5368,-3.4032,-3.3525,-3.3406,-3.3406,-3.2914,-3.2701,-3.3991,-3.3599,-3.2895,-3.2895,-3.2087,0.0,0.0,-3.1034,-3.0782,-3.1289,0.0,-3.172,0.0,-3.2305,0.0,0.0,0.0,0.0,0.0,0.0,0.0,0.0,0.0,0.0,0.0,0.0,0.0,0.0,-3.1924,-3.2182,-3.2182,-3.1817,-3.1609,-3.1609,-3.1211,-3.1061,-3.0986,-3.0986,-3.0986,-3.0986,-3.0986,-3.0986,-3.0986,0.0,0.0,0.0,-3.1117,-3.1169,-3.107,-3.0269,-2.9833,-2.9555,-2.8517,-2.7975,-2.7811,0.0,0.0,0.0,0.0,0.0,0.0,0.0,0.0,0.0,0.0,0.0,0.0,0.0,0.0,0.0,0.0,0.0,0.0,0.0,0.0,0.0,0.0,0.0,0.0,0.0,0.0,0.0,0.0,0.0,0.0,0.0,0.0,0.0,0.0,0.0,0.0,0.0,0.0,0.0,0.0,0.0,0.0,0.0,0.0,0.0,0.0,0.0,0.0,0.0,0.0,0.0,-3.5622,-3.5622,-3.5622,-3.5453,-3.4641,0.0,0.0,-3.3406,-3.2545,-3.1868,-3.2618,-3.242,-3.1998,-3.1967,0.0,0.0,0.0,-3.1638,-3.132,-3.1366,-3.189,-3.2121,-3.1567,0.0,-3.2398,0.0,0.0,0.0,0.0,0.0,0.0,0.0,0.0,0.0,0.0,0.0,0.0,0.0,-3.2155,-3.2182,-3.2182,-3.1963,-3.1743,-3.1609,-3.136,-3.1198,-3.0986,-3.0986,-3.0986,-3.0986,-3.0986,-3.0986,-3.0986,0.0,0.0,0.0,-3.1548,-3.1771,-3.1746,-3.2228,-3.1851,-3.1192,-3.1078,-3.0314,-2.9289,0.0,0.0,0.0,0.0,0.0,0.0,0.0,0.0,0.0,0.0,0.0,0.0,0.0,0.0,0.0,0.0,0.0,0.0,0.0,0.0,0.0,0.0,0.0,0.0,0.0,0.0,0.0,0.0,0.0,0.0,0.0,0.0,0.0,0.0,0.0,0.0,0.0,0.0,0.0,0.0,0.0,0.0,0.0,0.0,0.0,0.0,0.0,0.0,0.0,0.0,0.0,0.0,-3.5622,-3.5622,0.0,0.0,-3.4286,-3.3964,-3.3525,-3.2856,-3.2326,-3.258,-3.2039,-3.1598,-3.193,0.0,0.0,0.0,-3.1232,-3.092,-3.132,-3.1597,-3.1828,-3.1967,0.0,0.0,-3.2398,0.0,0.0,0.0,0.0,0.0,0.0,0.0,0.0,0.0,0.0,0.0,0.0,-3.2182,-3.2182,-3.2182,-3.2036,-3.1817,-3.1609,-3.1434,-3.1198,-3.0986,-3.0986,-3.0986,-3.0986,-3.0986,-3.0986,-3.0986,0.0,0.0,0.0,-3.1744,-3.2045,-3.2332,-3.2303,-3.2098,-3.1793,-3.1612,-3.1182,-3.0661,0.0,0.0,0.0,0.0,0.0,0.0,0.0,0.0,0.0,0.0,0.0,0.0,0.0,0.0,0.0,0.0,0.0,0.0,0.0,0.0,0.0,0.0,0.0,0.0,0.0,0.0,0.0,0.0,0.0,0.0,0.0,0.0,0.0,0.0,0.0,0.0,0.0,0.0,0.0,0.0,0.0,0.0,0.0,0.0,0.0,0.0,0.0,0.0,0.0,0.0,0.0,0.0,0.0,0.0,0.0,0.0,-3.4675,-3.4387,-3.3863,-3.3094,-3.2496,-3.2646,-3.1898,-3.1336,0.0,0.0,0.0,0.0,-3.1118,-3.0843,-3.1305,-3.1382,-3.1536,0.0,0.0,-3.2167,-3.2367,0.0,0.0,0.0,0.0,0.0,0.0,0.0,0.0,0.0,0.0,0.0,0.0,-3.2182,-3.2182,-3.2182,-3.2036,-3.189,-3.1683,-3.1582,-3.136,-3.1061,-3.1061,-3.1061,-3.0986,-3.0986,-3.0986,0.0,0.0,0.0,0.0,-3.2215,-3.2594,-3.2932,-3.2797,-3.2764,-3.2718,-3.25,-3.2277,-3.184,0.0,0.0,0.0,0.0,0.0,0.0,0.0,0.0,0.0,0.0,0.0,0.0,0.0,0.0,0.0,0.0,0.0,0.0,0.0,0.0,0.0,0.0,0.0,0.0,0.0,0.0,0.0,0.0,0.0,0.0,0.0,0.0,0.0,0.0,0.0,0.0,0.0,0.0,0.0,0.0,0.0,0.0,0.0,0.0,0.0,0.0,0.0,0.0,0.0,0.0,0.0,0.0,0.0,0.0,0.0,0.0,-3.5081,-3.4489,-3.4472,-3.3238,-3.2039,-3.2467,-3.1851,-3.1193,0.0,0.0,0.0,0.0,-3.1721,-3.1366,-3.1382,-3.1382,-3.1382,-3.1397,-3.1397,0.0,-3.2305,0.0,0.0,0.0,0.0,0.0,0.0,0.0,0.0,0.0,0.0,0.0,0.0,0.0,-3.2182,-3.2182,-3.2182,-3.2109,-3.189,-3.189,-3.1656,-3.1272,-3.1272,-3.1198,-3.0986,-3.0986,0.0,0.0,0.0,0.0,0.0,-3.3091,-3.3574,-3.3639,-3.4175,-3.4384,-3.4384,-3.4397,-3.3771,-3.2809,0.0,0.0,0.0,0.0,0.0,0.0,0.0,0.0,0.0,0.0,0.0,0.0,0.0,0.0,0.0,0.0,0.0,0.0,0.0,0.0,0.0,0.0,0.0,0.0,0.0,0.0,0.0,0.0,0.0,0.0,0.0,0.0,0.0,0.0,0.0,0.0,0.0,0.0,0.0,0.0,0.0,0.0,0.0,0.0,0.0,0.0,0.0,0.0,0.0,0.0,0.0,0.0,0.0,0.0,0.0,0.0,0.0,0.0,-3.4641,-3.3846,-3.3123,-3.2779,-3.1898,-3.1336,-3.196,0.0,0.0,0.0,0.0,-3.2074,-3.2074,-3.1705,-3.1536,-3.1997,-3.169,0.0,0.0,0.0,0.0,0.0,0.0,0.0,0.0,0.0,0.0,0.0,0.0,0.0,0.0,0.0,-3.2182,-3.2182,-3.2182,-3.2109,-3.189,-3.189,-3.173,-3.1272,-3.1272,-3.1198,-3.0986,-3.0986,0.0,0.0,0.0,0.0,0.0,-3.343,-3.3809,-3.4162,-3.4332,-3.4397,-3.4397,-3.4397,-3.4217,-3.37,0.0,0.0,0.0,0.0,0.0,0.0,0.0,0.0,0.0,0.0,0.0,0.0,0.0,0.0,0.0,0.0,0.0,0.0,0.0,0.0,0.0,0.0,0.0,0.0,0.0,0.0,0.0,0.0,0.0,0.0,0.0,0.0,0.0,0.0,0.0,0.0,0.0,0.0,0.0,0.0,0.0,0.0,-3.7132,0.0,0.0,0.0,0.0,0.0,0.0,0.0,0.0,0.0,0.0,0.0,0.0,0.0,0.0,0.0,0.0,-3.4538,-3.4084,-3.362,-3.2708,0.0,0.0,0.0,0.0,0.0,0.0,0.0,-3.2398,-3.1844,-3.1613,-3.2275,0.0,0.0,0.0,0.0,0.0,0.0,0.0,0.0,0.0,0.0,0.0,0.0,0.0,0.0,0.0,0.0,-3.2182,-3.2182,-3.2182,-3.2109,-3.2036,-3.2036,-3.1817,-3.1434,-3.1434,-3.1286,-3.0986,0.0,0.0,0.0,0.0,0.0,0.0,-3.3809,-3.4097,-3.4397,-3.4397,-3.4397,-3.4397,-3.4397,-3.4397,-3.4134,0.0,0.0,0.0,0.0,0.0,0.0,0.0,0.0,0.0,0.0,0.0,0.0,0.0,0.0,0.0,0.0,0.0,0.0,0.0,0.0,0.0,0.0,0.0,0.0,0.0,0.0,0.0,-3.3393,-3.3393,-3.3393,-3.3429,0.0,0.0,0.0,0.0,0.0,0.0,0.0,-3.7504,0.0,0.0,-3.7248,0.0,0.0,0.0,0.0,0.0,0.0,0.0,0.0,0.0,0.0,0.0,0.0,0.0,0.0,0.0,0.0,0.0,0.0,0.0,0.0,0.0,0.0,0.0,0.0,0.0,0.0,0.0,0.0,0.0,0.0,0.0,0.0,0.0,0.0,0.0,0.0,0.0,0.0,0.0,0.0,0.0,0.0,0.0,0.0,0.0,0.0,0.0,0.0,0.0,-3.2182,-3.2182,-3.2182,-3.2182,-3.2182,-3.1963,-3.1609,-3.1609,-3.1373,-3.0986,0.0,0.0,0.0,0.0,0.0,0.0,-3.4188,-3.4397,-3.4397,-3.4397,-3.4397,-3.4397,-3.4397,-3.4397,-3.4134,0.0,0.0,0.0,0.0,0.0,0.0,0.0,0.0,0.0,0.0,0.0,0.0,0.0,0.0,0.0,0.0,0.0,0.0,0.0,0.0,0.0,0.0,0.0,0.0,0.0,0.0,0.0,-3.3393,-3.3393,-3.3393,-3.3429,-3.4226,0.0,0.0,0.0,-3.7431,-3.8174,-3.7993,-3.8011,-3.8174,-3.7975,-3.7753,0.0,0.0,0.0,0.0,-3.4916,-3.4404,0.0,0.0,0.0,0.0,0.0,0.0,0.0,0.0,-3.4759,0.0,0.0,0.0,0.0,0.0,0.0,0.0,0.0,0.0,0.0,0.0,0.0,0.0,0.0,0.0,0.0,0.0,0.0,0.0,0.0,0.0,0.0,0.0,0.0,0.0,0.0,0.0,0.0,0.0,0.0,0.0,0.0,0.0,0.0,-3.2182,-3.2182,-3.2182,-3.2182,-3.2036,-3.1817,-3.1609,-3.1434,-3.1198,-3.0986,0.0,0.0,0.0,0.0,0.0,-3.4214,-3.4345,-3.4397,-3.4397,-3.4397,-3.4397,-3.4397,-3.4397,-3.4397,-3.4134,0.0,0.0,0.0,0.0,0.0,0.0,0.0,0.0,0.0,0.0,0.0,0.0,0.0,0.0,0.0,0.0,0.0,0.0,0.0,0.0,0.0,0.0,0.0,0.0,0.0,0.0,0.0,0.0,0.0,-3.3954,0.0,0.0,0.0,0.0,0.0,-3.7775,-3.8174,-3.7794,-3.7848,-3.8156,-3.7794,0.0,0.0,0.0,0.0,0.0,-3.4287,-3.3744,0.0,-3.3,-3.2899,-3.2899,0.0,0.0,0.0,0.0,-3.4235,0.0,0.0,0.0,0.0,0.0,0.0,0.0,0.0,0.0,0.0,0.0,0.0,0.0,0.0,0.0,0.0,0.0,0.0,0.0,0.0,0.0,0.0,0.0,0.0,0.0,0.0,0.0,0.0,0.0,0.0,0.0,0.0,0.0,0.0,0.0,-3.2182,-3.2182,-3.2182,-3.2036,-3.1817,-3.1609,-3.1434,-3.1198,-3.0986,0.0,0.0,0.0,0.0,0.0,-3.4397,-3.4397,-3.4397,-3.4397,-3.4397,-3.4397,-3.4397,-3.4397,-3.4397,-3.4217,0.0,0.0,0.0,0.0,0.0,0.0,0.0,0.0,0.0,0.0,0.0,0.0,0.0,0.0,0.0,0.0,0.0,0.0,0.0,0.0,0.0,0.0,0.0,0.0,0.0,0.0,0.0,0.0,0.0,0.0,0.0,0.0,-3.6417,0.0,-3.7884,-3.8192,-3.8156,-3.7449,-3.7558,-3.8138,0.0,0.0,0.0,0.0,0.0,0.0,0.0,0.0,0.0,-3.2324,-3.2121,-3.2121,-3.2121,0.0,0.0,0.0,0.0,0.0,0.0,0.0,0.0,0.0,0.0,0.0,0.0,0.0,0.0,0.0,0.0,0.0,0.0,-3.2321,0.0,0.0,0.0,0.0,0.0,0.0,0.0,0.0,0.0,0.0,0.0,0.0,0.0,0.0,0.0,0.0,0.0,0.0,0.0,0.0,-3.2182,-3.2182,-3.2182,-3.1963,-3.1743,-3.1609,-3.136,-3.1123,-3.0986,-3.0986,0.0,0.0,0.0,0.0,-3.4397,-3.4397,-3.4397,-3.4397,-3.4397,-3.4397,-3.4397,-3.4397,-3.4397,-3.4314,0.0,0.0,0.0,0.0,0.0,0.0,0.0,0.0,0.0,0.0,0.0,0.0,0.0,0.0,0.0,0.0,0.0,0.0,0.0,0.0,0.0,0.0,0.0,0.0,0.0,0.0,0.0,0.0,0.0,0.0,-3.5639,-3.6435,-3.7232,-3.8011,-3.8138,-3.8192,-3.8174,-3.8065,-3.8083,-3.8174,0.0,0.0,0.0,0.0,0.0,0.0,0.0,0.0,0.0,-3.141,-3.136,-3.136,-3.136,0.0,0.0,0.0,0.0,0.0,-3.432,-3.47,-3.4927,-3.4927,0.0,0.0,0.0,0.0,0.0,0.0,0.0,0.0,0.0,0.0,0.0,0.0,0.0,0.0,0.0,0.0,0.0,0.0,0.0,0.0,0.0,0.0,0.0,0.0,0.0,0.0,0.0,0.0,0.0,0.0,0.0,-3.2109,-3.1963,-3.1743,-3.1609,-3.1609,-3.1211,-3.1061,-3.0986,-3.0986,-3.1614,0.0,0.0,-3.3339,-3.4397,-3.4397,-3.4397,-3.4397,-3.4397,-3.4397,-3.4397,-3.4397,-3.4397,-3.4314,0.0,0.0,0.0,0.0,0.0,0.0,0.0,0.0,0.0,0.0,0.0,0.0,0.0,0.0,0.0,0.0,0.0,0.0,0.0,0.0,0.0,0.0,0.0,0.0,0.0,0.0,0.0,0.0,0.0,-3.6091,-3.6472,-3.7268,-3.783,-3.8192,-3.8192,-3.8192,-3.8192,-3.8192,-3.8054,-3.7845,0.0,0.0,0.0,0.0,0.0,0.0,0.0,0.0,0.0,0.0,-3.119,-3.119,-3.119,0.0,0.0,0.0,0.0,0.0,-3.3812,-3.4549,-3.5068,-3.4529,0.0,0.0,0.0,0.0,0.0,0.0,0.0,0.0,0.0,0.0,0.0,0.0,0.0,0.0,0.0,0.0,0.0,0.0,0.0,0.0,0.0,0.0,0.0,0.0,0.0,0.0,0.0,0.0,0.0,0.0,0.0,0.0,-3.189,-3.1582,-3.1522,-3.1609,-3.1211,-3.0986,-3.0986,-3.0986,-3.1614,-3.2685,0.0,-3.3339,-3.4397,-3.4397,-3.4397,-3.4397,-3.4397,-3.4397,-3.4397,-3.4397,-3.4397,-3.4314,0.0,0.0,0.0,0.0,0.0,0.0,0.0,0.0,0.0,0.0,0.0,0.0,0.0,0.0,0.0,0.0,0.0,0.0,0.0,0.0,0.0,0.0,0.0,0.0,0.0,0.0,-3.4787,-3.5168,-3.62,-3.6816,-3.7029,-3.7812,-3.8192,0.0,-3.8192,-3.8192,-3.8192,-3.8192,-3.7933,-3.7505,0.0,0.0,0.0,0.0,0.0,0.0,0.0,0.0,0.0,0.0,0.0,0.0,0.0,0.0,0.0,0.0,-3.2374,-3.344,-3.3609,-3.452,-3.5178,-3.4235,0.0,0.0,0.0,0.0,0.0,0.0,0.0,0.0,0.0,0.0,0.0,0.0,0.0,0.0,0.0,0.0,0.0,0.0,0.0,0.0,0.0,0.0,0.0,0.0,0.0,0.0,0.0,0.0,0.0,0.0,0.0,0.0,-3.1743,-3.1421,-3.136,-3.1522,-3.1136,-3.0986,-3.0986,-3.0986,-3.1535,-3.2502,-3.2633,-3.3273,-3.4214,-3.4345,-3.4397,-3.4397,-3.4397,-3.4397,-3.4397,-3.4397,-3.4397,-3.4397,0.0,0.0,0.0,0.0,0.0,0.0,0.0,0.0,0.0,0.0,0.0,0.0,0.0,0.0,0.0,0.0,0.0,0.0,0.0,0.0,0.0,0.0,0.0,0.0,0.0,-3.457,-3.5331,-3.6816,-3.62,-3.6272,-3.7029,-3.7812,-3.8192,-3.8192,-3.8192,-3.8192,-3.8192,-3.8192,-3.7933,-3.7505,-3.7505,0.0,0.0,0.0,0.0,0.0,0.0,0.0,0.0,0.0,0.0,0.0,0.0,0.0,0.0,0.0,-3.278,-3.3558,-3.4235,-3.4621,-3.4721,-3.4119,-3.3986,0.0,-3.2695,-3.2453,0.0,-3.2336,0.0,0.0,0.0,0.0,0.0,0.0,0.0,0.0,0.0,0.0,0.0,0.0,0.0,0.0,0.0,0.0,0.0,0.0,0.0,0.0,0.0,0.0,0.0,0.0,0.0,0.0,-3.1347,-3.1347,-3.1272,-3.1347,-3.1136,-3.0986,-3.0986,-3.0986,-3.1326,-3.194,-3.2463,-3.3051,-3.3692,-3.4188,-3.4397,-3.4397,-3.4397,-3.4397,-3.4397,-3.4397,-3.4397,-3.4397,0.0,0.0,0.0,0.0,0.0,0.0,0.0,0.0,0.0,0.0,0.0,0.0,0.0,0.0,0.0,0.0,0.0,0.0,0.0,0.0,0.0,0.0,0.0,-3.5584,-3.6073,-3.6091,-3.6381,-3.7011,-3.7196,-3.7178,-3.7029,-3.7812,0.0,0.0,-3.8054,-3.7898,-3.7413,-3.765,-3.7358,-3.6741,-3.6741,-3.6516,0.0,0.0,0.0,0.0,0.0,0.0,0.0,0.0,-3.1562,-3.1275,0.0,0.0,0.0,0.0,-3.3508,-3.4134,-3.4421,-3.4655,-3.4673,-3.4136,-3.3767,0.0,0.0,-3.2398,-3.2275,-3.1844,-3.2105,0.0,0.0,0.0,0.0,0.0,0.0,0.0,0.0,0.0,0.0,0.0,0.0,0.0,0.0,0.0,0.0,0.0,0.0,0.0,0.0,0.0,0.0,0.0,0.0,0.0,0.0,-3.1763,-3.1616,-3.1272,-3.1136,-3.0986,-3.0986,-3.0986,-3.13,-3.1798,-3.245,-3.3038,-3.3639,-3.4175,-3.4397,-3.4397,-3.4397,-3.4397,-3.4397,-3.4397,-3.4397,-3.4397,0.0,0.0,0.0,0.0,0.0,0.0,0.0,0.0,0.0,0.0,0.0,0.0,0.0,0.0,0.0,0.0,0.0,0.0,0.0,0.0,0.0,0.0,0.0,-3.6562,-3.7341,-3.7359,-3.7359,-3.7359,-3.792,-3.7775,-3.6997,0.0,0.0,0.0,0.0,-3.7541,-3.7132,-3.7377,-3.717,-3.6678,-3.6516,-3.6241,0.0,0.0,0.0,0.0,0.0,0.0,0.0,0.0,0.0,0.0,0.0,0.0,0.0,0.0,0.0,-3.4303,-3.4538,-3.4592,-3.4431,0.0,0.0,0.0,-3.2547,-3.2398,-3.2259,-3.1797,-3.2074,0.0,0.0,0.0,0.0,0.0,0.0,0.0,0.0,0.0,0.0,0.0,0.0,0.0,0.0,0.0,0.0,0.0,0.0,0.0,0.0,0.0,0.0,0.0,0.0,0.0,0.0,-3.1969,-3.1676,-3.1542,-3.1198,-3.0986,-3.0986,-3.0986,-3.1196,-3.1614,-3.2359,-3.2921,-3.3365,-3.4097,-3.4397,-3.4397,-3.4397,-3.4397,-3.4397,-3.4397,-3.4397,-3.4397,0.0,0.0,0.0,0.0,0.0,0.0,0.0,0.0,0.0,0.0,0.0,0.0,0.0,0.0,0.0,0.0,0.0,0.0,0.0,0.0,0.0,0.0,0.0,-3.7359,-3.8174,-3.8192,-3.8192,-3.8174,-3.8192,-3.7775,-3.6997,-3.7345,0.0,0.0,0.0,0.0,-3.7505,-3.7505,-3.7505,-3.7469,-3.7055,-3.6638,-3.6259,0.0,0.0,0.0,0.0,0.0,0.0,0.0,0.0,0.0,0.0,0.0,0.0,0.0,-3.4119,-3.3889,-3.4618,-3.4431,-3.3869,0.0,0.0,0.0,-3.2547,-3.2398,-3.2398,-3.2398,0.0,-3.2398,0.0,0.0,0.0,0.0,0.0,0.0,0.0,0.0,0.0,0.0,0.0,0.0,0.0,0.0,0.0,0.0,0.0,0.0,0.0,0.0,0.0,0.0,0.0,0.0,0.0,-3.175,-3.1408,-3.2074,-3.132,-3.0986,-3.0986,-3.0986,-3.0986,-3.1052,-3.2202,-3.2685,-3.2777,-3.3927,-3.4397,-3.4397,-3.4397,-3.4397,-3.4397,-3.4397,-3.4397,-3.4397,0.0,0.0,0.0,0.0,0.0,0.0,0.0,0.0,0.0,0.0,0.0,0.0,0.0,0.0,0.0,0.0,0.0,0.0,0.0,0.0,0.0,0.0,0.0,0.0,0.0,0.0,-3.7902,-3.7341,-3.7902,-3.7605,0.0,0.0,0.0,-3.7094,0.0,-3.7228,-3.7094,-3.7094,-3.69,-3.6638,-3.6182,-3.5898,-3.5783,0.0,0.0,0.0,0.0,0.0,0.0,0.0,0.0,0.0,0.0,0.0,0.0,-3.5064,-3.5133,-3.5093,-3.5311,-3.469,0.0,-3.3818,0.0,0.0,0.0,-3.2398,0.0,0.0,0.0,0.0,0.0,0.0,0.0,0.0,0.0,0.0,0.0,0.0,0.0,0.0,0.0,0.0,0.0,0.0,0.0,0.0,0.0,0.0,0.0,0.0,0.0,0.0,0.0,0.0,0.0,0.0,-3.2461,-3.2331,-3.1408,-3.0986,-3.0986,-3.0986,-3.0986,-3.1052,-3.2202,-3.2685,-3.2777,-3.3927,-3.4397,-3.4397,-3.4397,-3.4397,-3.4397,-3.4397,-3.4397,-3.4397,0.0,0.0,0.0,0.0,0.0,0.0,0.0,0.0,0.0,0.0,0.0,0.0,0.0,0.0,0.0,0.0,0.0,0.0,0.0,0.0,0.0,0.0,0.0,0.0,0.0,-3.8192,-3.7938,0.0,0.0,0.0,0.0,0.0,0.0,-3.7114,0.0,-3.6978,-3.69,-3.6719,-3.6597,-3.6492,-3.6088,-3.5871,-3.5871,0.0,0.0,0.0,0.0,0.0,0.0,0.0,0.0,0.0,0.0,0.0,0.0,-3.5182,-3.5115,-3.4927,-3.4704,0.0,0.0,-3.3355,-3.2857,-3.2398,-3.2398,0.0,0.0,0.0,0.0,0.0,0.0,0.0,0.0,0.0,0.0,0.0,0.0,0.0,0.0,0.0,0.0,0.0,0.0,0.0,0.0,0.0,0.0,0.0,0.0,0.0,0.0,0.0,0.0,0.0,0.0,0.0,0.0,-3.2676,-3.1556,-3.0986,-3.0986,-3.0986,-3.0986,-3.1052,-3.2202,-3.2829,-3.3117,-3.4018,-3.4397,-3.4397,-3.4397,-3.4397,-3.4397,-3.4397,-3.4397,-3.4397,0.0,0.0,0.0,0.0,0.0,0.0,0.0,0.0,0.0,0.0,0.0,0.0,0.0,0.0,0.0,0.0,0.0,0.0,0.0,0.0,0.0,0.0,0.0,0.0,0.0,0.0,0.0,0.0,0.0,0.0,0.0,0.0,-3.7505,-3.7469,0.0,-3.6557,-3.6939,-3.6492,-3.6533,-3.6821,-3.6409,-3.6259,-3.6174,-3.5739,0.0,0.0,0.0,0.0,0.0,0.0,0.0,0.0,0.0,-3.5622,-3.5515,-3.5021,-3.448,-3.3986,-3.3495,0.0,0.0,-3.2492,-3.2453,0.0,-3.2398,0.0,0.0,0.0,0.0,0.0,0.0,0.0,0.0,0.0,0.0,0.0,0.0,0.0,0.0,0.0,0.0,0.0,0.0,0.0,0.0,0.0,0.0,0.0,0.0,0.0,0.0,0.0,0.0,0.0,0.0,0.0,0.0,0.0,-3.175,-3.1061,-3.0986,-3.0986,-3.1013,-3.1117,-3.2215,-3.3038,-3.3639,-3.4175,-3.4397,-3.4397,-3.4397,-3.4397,-3.4397,-3.4397,-3.4397,-3.4397,0.0,0.0,0.0,0.0,0.0,0.0,0.0,0.0,0.0,0.0,0.0,0.0,0.0,0.0,0.0,0.0,0.0,0.0,0.0,0.0,0.0,0.0,0.0,0.0,0.0,0.0,0.0,0.0,0.0,0.0,0.0,0.0,0.0,-3.7469,0.0,-3.6978,-3.7303,-3.6597,-3.6343,-3.6367,-3.5915,-3.5739,-3.5739,-3.5622,-3.5622,0.0,0.0,0.0,0.0,0.0,0.0,0.0,-3.5622,-3.5622,-3.5577,-3.547,-3.5021,-3.4625,-3.4464,-3.3751,0.0,0.0,-3.2695,-3.2398,-3.2398,0.0,0.0,0.0,0.0,0.0,0.0,0.0,0.0,0.0,0.0,0.0,0.0,0.0,0.0,0.0,0.0,0.0,0.0,0.0,0.0,0.0,0.0,0.0,0.0,0.0,0.0,0.0,0.0,0.0,-3.5638,-3.4447,-3.3616,0.0,-3.2304,-3.1529,-3.0986,-3.0986,-3.1235,-3.1692,-3.2398,-3.3038,-3.3639,-3.4175,-3.4397,-3.4397,-3.4397,-3.4397,-3.4397,-3.4397,-3.4397,-3.4397,0.0,0.0,0.0,0.0,0.0,0.0,0.0,0.0,0.0,0.0,0.0,0.0,0.0,0.0,0.0,0.0,0.0,0.0,0.0,0.0,0.0,0.0,0.0,0.0,0.0,0.0,0.0,0.0,0.0,0.0,0.0,0.0,0.0,-3.7469,0.0,-3.6719,-3.69,-3.6241,-3.5958,-3.5958,-3.5711,-3.5622,-3.5622,-3.5622,-3.5622,-3.5622,-3.5622,0.0,0.0,0.0,0.0,0.0,0.0,0.0,-3.5577,-3.527,-3.5021,-3.4673,-3.4153,0.0,0.0,-3.2895,0.0,0.0,0.0,0.0,0.0,0.0,0.0,0.0,0.0,0.0,0.0,0.0,0.0,0.0,0.0,0.0,0.0,0.0,0.0,0.0,0.0,0.0,0.0,0.0,0.0,0.0,0.0,0.0,0.0,0.0,0.0,0.0,-3.5589,-3.4743,-3.3891,-3.3213,-3.2434,-3.1736,-3.0986,-3.0986,-3.1143,-3.147,-3.2333,-3.2868,-3.3221,-3.4058,-3.4397,-3.4397,-3.4397,-3.4397,-3.4397,-3.4397,-3.4397,-3.4397,0.0,0.0,0.0,0.0,0.0,0.0,0.0,0.0,0.0,0.0,0.0,0.0,0.0,0.0,0.0,0.0,0.0,0.0,0.0,0.0,0.0,0.0,0.0,0.0,0.0,0.0,0.0,0.0,0.0,0.0,0.0,0.0,0.0,-3.7469,0.0,-3.6301,-3.6259,-3.5783,-3.5622,-3.5622,-3.5622,-3.5622,-3.5622,-3.5622,-3.5622,-3.5622,-3.5622,-3.5622,-3.5622,-3.5622,0.0,0.0,0.0,0.0,-3.5515,-3.5068,-3.488,-3.4625,-3.37,0.0,-3.3093,-3.2547,-3.2398,0.0,0.0,0.0,0.0,0.0,0.0,0.0,0.0,0.0,0.0,0.0,0.0,0.0,0.0,0.0,0.0,0.0,0.0,0.0,0.0,0.0,0.0,0.0,0.0,0.0,0.0,0.0,0.0,0.0,0.0,-3.5385,-3.5504,-3.4839,-3.4109,-3.3353,-3.2506,-3.1736,-3.0986,-3.0986,-3.0986,-3.1052,-3.2202,-3.2685,-3.2777,-3.3927,-3.4397,-3.4397,-3.4397,-3.4397,-3.4397,-3.4397,-3.4397,-3.4397,0.0,0.0,0.0,0.0,0.0,0.0,0.0,0.0,0.0,0.0,0.0,0.0,0.0,0.0,0.0,0.0,0.0,0.0,0.0,0.0,0.0,0.0,0.0,0.0,0.0,0.0,0.0,0.0,0.0,0.0,0.0,0.0,0.0,-3.7469,0.0,0.0,-3.6259,-3.5783,-3.5622,-3.5622,-3.5622,-3.5622,-3.5622,-3.5622,-3.5622,-3.5622,-3.5622,-3.5622,-3.5622,-3.5622,-3.5622,0.0,0.0,0.0,0.0,0.0,-3.5161,-3.4769,0.0,0.0,-3.3093,0.0,-3.2398,0.0,0.0,0.0,0.0,0.0,0.0,0.0,0.0,0.0,0.0,0.0,0.0,0.0,0.0,0.0,0.0,0.0,0.0,0.0,0.0,0.0,0.0,0.0,0.0,0.0,0.0,0.0,-3.3036,-3.3604,-3.4262,0.0,-3.5489,-3.5359,-3.492,-3.4109,-3.2777,-3.1736,-3.0986,-3.0986,-3.0986,-3.1052,-3.2202,-3.2685,-3.2777,-3.3927,-3.4397,-3.4397,-3.4397,-3.4397,-3.4397,-3.4397,-3.4397,-3.4397,0.0,0.0,0.0,0.0,0.0,0.0,0.0,0.0,0.0,0.0,0.0,0.0,0.0,0.0,0.0,0.0,0.0,0.0,0.0,0.0,0.0,0.0,0.0,0.0,0.0,0.0,0.0,0.0,0.0,0.0,0.0,-3.7721,-3.7321,0.0,0.0,0.0,0.0,0.0,0.0,-3.5622,-3.5622,-3.5622,-3.5622,0.0,0.0,-3.5622,-3.5622,-3.5622,-3.5622,0.0,0.0,0.0,0.0,0.0,0.0,0.0,0.0,0.0,-3.4529,-3.3818,-3.3093,0.0,0.0,0.0,0.0,0.0,0.0,0.0,0.0,0.0,0.0,0.0,0.0,0.0,0.0,0.0,0.0,0.0,0.0,0.0,0.0,0.0,0.0,0.0,0.0,0.0,0.0,0.0,0.0,-3.2387,-3.2691,-3.2931,-3.3933,0.0,-3.4921,-3.531,-3.5133,-3.4312,-3.2777,-3.1942,-3.1603,-3.1185,-3.0986,-3.1052,-3.2202,-3.2685,-3.2777,-3.3927,-3.4397,-3.4397,-3.4397,-3.4397,-3.4397,-3.4397,-3.4397,-3.4397,0.0,0.0,0.0,0.0,0.0,0.0,0.0,0.0,0.0,0.0,0.0,0.0,0.0,0.0,0.0,0.0,0.0,0.0,0.0,0.0,0.0,0.0,0.0,0.0,0.0,0.0,0.0,0.0,0.0,0.0,-3.8156,-3.7845,-3.7206,0.0,-3.6301,-3.6045,0.0,0.0,0.0,0.0,-3.5622,0.0,0.0,0.0,0.0,0.0,0.0,0.0,0.0,0.0,0.0,0.0,0.0,0.0,0.0,0.0,0.0,0.0,0.0,0.0,-3.3443,0.0,0.0,0.0,0.0,0.0,0.0,0.0,0.0,0.0,0.0,0.0,0.0,0.0,0.0,0.0,0.0,0.0,0.0,0.0,0.0,0.0,0.0,0.0,0.0,0.0,0.0,0.0,-3.1996,-3.2279,-3.245,-3.2512,-3.3634,-3.4307,-3.4472,-3.516,-3.5133,-3.4312,-3.3199,-3.242,-3.2074,-3.1529,-3.1198,-3.1052,-3.2202,-3.2685,-3.2777,-3.3927,-3.4397,-3.4397,-3.4397,-3.4397,-3.4397,-3.4397,-3.4397,-3.4397,0.0,0.0,0.0,0.0,0.0,0.0,0.0,0.0,0.0,0.0,0.0,0.0,0.0,0.0,0.0,0.0,0.0,0.0,0.0,0.0,0.0,0.0,0.0,0.0,0.0,0.0,0.0,0.0,0.0,0.0,-3.7739,-3.7703,-3.7206,-3.6301,-3.6301,-3.6045,-3.5622,0.0,0.0,0.0,0.0,0.0,0.0,0.0,0.0,0.0,0.0,0.0,0.0,0.0,0.0,0.0,0.0,0.0,0.0,0.0,0.0,0.0,0.0,-3.4721,0.0,0.0,0.0,0.0,0.0,0.0,0.0,0.0,0.0,0.0,0.0,0.0,0.0,0.0,0.0,0.0,0.0,0.0,0.0,0.0,0.0,0.0,0.0,0.0,0.0,0.0,0.0,0.0,-3.1996,-3.1742,-3.1869,-3.2497,-3.3185,-3.3844,-3.4472,-3.516,-3.5133,-3.4312,-3.423,-3.3478,-3.2074,-3.2074,-3.1676,-3.1052,-3.2202,-3.2685,-3.2777,-3.3927,-3.4397,-3.4397,-3.4397,-3.4397,-3.4397,-3.4397,-3.4397,-3.4397,0.0,0.0,0.0,0.0,0.0,0.0,0.0,0.0,0.0,0.0,0.0,0.0,0.0,0.0,0.0,0.0,0.0,0.0,0.0,0.0,0.0,0.0,0.0,0.0,0.0,0.0,0.0,0.0,0.0,-3.8433,-3.8135,-3.7879,-3.7395,-3.6678,-3.6409,-3.6045,-3.5622,-3.5622,0.0,0.0,0.0,0.0,0.0,0.0,0.0,0.0,0.0,0.0,0.0,0.0,0.0,0.0,0.0,0.0,0.0,0.0,0.0,0.0,0.0,0.0,0.0,0.0,0.0,0.0,0.0,0.0,0.0,0.0,0.0,0.0,0.0,0.0,0.0,0.0,0.0,0.0,0.0,0.0,0.0,0.0,0.0,0.0,0.0,0.0,0.0,0.0,0.0,0.0,-3.1898,-3.1784,-3.176,-3.1884,-3.2527,-3.338,-3.4472,-3.516,-3.5133,-3.4312,-3.4312,-3.3547,-3.2074,-3.2074,-3.1676,-3.1026,-3.181,-3.2346,-3.2777,-3.3927,-3.4397,-3.4397,-3.4397,-3.4397,-3.4397,-3.4397,-3.4397,-3.4397,0.0,0.0,0.0,0.0,0.0,0.0,0.0,0.0,0.0,0.0,0.0,0.0,0.0,0.0,0.0,0.0,0.0,0.0,0.0,0.0,0.0,0.0,0.0,0.0,0.0,0.0,0.0,0.0,0.0,0.0,0.0,-3.7738,-3.7228,-3.6678,-3.6241,-3.5871,0.0,0.0,0.0,-3.5622,0.0,0.0,-3.5622,0.0,0.0,0.0,0.0,0.0,0.0,0.0,0.0,0.0,0.0,0.0,0.0,0.0,0.0,0.0,-3.5178,0.0,0.0,0.0,0.0,0.0,0.0,0.0,0.0,0.0,0.0,0.0,0.0,0.0,0.0,0.0,0.0,0.0,0.0,0.0,0.0,0.0,0.0,0.0,0.0,0.0,0.0,0.0,0.0,0.0,-3.1784,-3.1727,-3.176,-3.1854,-3.2497,-3.3365,-3.4472,-3.516,-3.5213,-3.4677,-3.4677,-3.3919,-3.2434,-3.2434,-3.1955,-3.1013,-3.1588,-3.2163,-3.2764,-3.3731,-3.4241,-3.4397,-3.4397,-3.4397,-3.4397,-3.4397,-3.4397,-3.4397,0.0,0.0,0.0,0.0,0.0,0.0,0.0,0.0,0.0,0.0,0.0,0.0,0.0,0.0,0.0,0.0,0.0,0.0,0.0,0.0,0.0,0.0,0.0,0.0,0.0,0.0,0.0,0.0,0.0,0.0,0.0,0.0,-3.6741,-3.6301,-3.5827,-3.5622,-3.5622,0.0,-3.5622,-3.5622,0.0,-3.5622,-3.5622,0.0,0.0,0.0,-3.5622,-3.5622,0.0,-3.5622,0.0,0.0,0.0,0.0,0.0,0.0,0.0,0.0,0.0,0.0,0.0,0.0,0.0,0.0,0.0,0.0,0.0,0.0,0.0,0.0,0.0,0.0,0.0,0.0,0.0,0.0,0.0,0.0,0.0,0.0,0.0,0.0,0.0,0.0,0.0,0.0,0.0,-3.1799,-3.1799,-3.1597,-3.1824,-3.2467,-3.3125,-3.3784,-3.4442,-3.513,-3.5489,-3.5439,-3.5504,-3.4654,-3.3143,-3.3213,-3.239,-3.1013,-3.1575,-3.215,-3.2738,-3.3339,-3.3914,-3.4397,-3.4397,-3.4397,-3.4397,-3.4397,-3.4397,-3.4397,0.0,0.0,0.0,0.0,0.0,0.0,0.0,0.0,0.0,0.0,0.0,0.0,0.0,0.0,0.0,0.0,0.0,0.0,0.0,0.0,0.0,0.0,0.0,0.0,0.0,0.0,0.0,0.0,0.0,0.0,0.0,0.0,0.0,0.0,-3.5941,-3.5622,-3.5622,-3.5622,0.0,0.0,-3.5622,-3.5622,0.0,0.0,0.0,0.0,0.0,-3.5622,-3.5622,0.0,-3.5622,-3.5622,0.0,0.0,0.0,0.0,0.0,0.0,-3.5622,0.0,0.0,0.0,0.0,0.0,0.0,0.0,0.0,0.0,0.0,0.0,0.0,0.0,0.0,0.0,0.0,0.0,0.0,0.0,0.0,0.0,0.0,0.0,0.0,0.0,0.0,0.0,0.0,-3.1597,-3.1597,-3.1539,-3.1556,-3.1735,-3.2437,-3.3095,-3.3769,-3.4427,-3.4723,-3.461,-3.5198,-3.4438,-3.2434,-3.2932,-3.239,-3.0999,-3.1156,-3.1784,-3.2738,-3.3339,-3.3914,-3.4397,-3.4397,-3.4397,-3.4397,-3.4397,-3.4397,-3.4397,0.0,0.0,0.0,0.0,0.0,0.0,0.0,0.0,0.0,0.0,0.0,0.0,0.0,0.0,0.0,0.0,0.0,0.0,0.0,0.0,0.0,0.0,0.0,0.0,0.0,0.0,0.0,0.0,0.0,0.0,0.0,0.0,0.0,0.0,0.0,0.0,0.0,0.0,0.0,0.0,-3.5622,0.0,0.0,-3.5622,-3.5622,0.0,0.0,0.0,-3.5622,-3.5622,-3.5622,0.0,0.0,0.0,0.0,0.0,0.0,0.0,0.0,0.0,0.0,0.0,0.0,0.0,0.0,-3.4219,0.0,0.0,0.0,0.0,0.0,0.0,0.0,0.0,0.0,0.0,0.0,0.0,0.0,0.0,0.0,0.0,0.0,0.0,0.0,0.0,-3.1597,-3.1482,-3.1482,-3.1482,-3.1482,-3.1482,-3.2168,-3.2826,-3.3484,-3.4143,-3.4594,-3.4824,-3.492,-3.4138,-3.2577,-3.272,-3.2101,-3.0986,-3.0986,-3.164,-3.2725,-3.3064,-3.3679,-3.4397,-3.4397,-3.4397,-3.4397,-3.4397,-3.4397,-3.4397,0.0,0.0,0.0,0.0,0.0,0.0,0.0,0.0,0.0,0.0,0.0,0.0,0.0,0.0,0.0,0.0,0.0,0.0,0.0,0.0,0.0,0.0,0.0,0.0,0.0,0.0,0.0,0.0,0.0,0.0,0.0,0.0,0.0,0.0,0.0,0.0,0.0,0.0,0.0,-3.5622,-3.5622,-3.5622,0.0,0.0,-3.5622,-3.5622,-3.5622,-3.5622,-3.5622,-3.5622,-3.5622,0.0,0.0,0.0,0.0,0.0,-3.5622,0.0,0.0,0.0,0.0,0.0,0.0,0.0,-3.4382,-3.4185,-3.3869,0.0,0.0,0.0,0.0,0.0,0.0,0.0,0.0,0.0,0.0,0.0,0.0,0.0,0.0,0.0,0.0,0.0,0.0,-3.1539,-3.1482,-3.1482,-3.1482,-3.1482,-3.1482,-3.1482,-3.2093,-3.2721,-3.338,-3.4038,-3.4711,-3.5385,-3.4647,-3.3891,-3.3143,-3.2434,-3.1676,-3.0986,-3.0986,-3.164,-3.2685,-3.2685,-3.3365,-3.4397,-3.4397,-3.4397,-3.4397,-3.4397,-3.4397,-3.4397,0.0,0.0,0.0,0.0,0.0,0.0,0.0,0.0,0.0,0.0,0.0,0.0,0.0,0.0,0.0,0.0,0.0,0.0,0.0,0.0,0.0,0.0,0.0,0.0,0.0,0.0,0.0,0.0,0.0,0.0,0.0,0.0,0.0,0.0,0.0,0.0,0.0,0.0,0.0,-3.5622,-3.5622,0.0,-3.5622,-3.5622,-3.5622,-3.5622,-3.5622,-3.5622,-3.5622,0.0,-3.5622,-3.5622,0.0,0.0,0.0,0.0,0.0,0.0,0.0,0.0,0.0,0.0,0.0,0.0,-3.5333,-3.527,-3.5131,0.0,0.0,0.0,0.0,0.0,0.0,0.0,0.0,0.0,0.0,0.0,0.0,0.0,0.0,0.0,0.0,0.0,-3.1539,-3.1482,-3.1482,-3.1482,-3.1482,-3.1482,-3.1482,-3.1482,-3.1601,-3.2048,-3.2706,-3.3365,-3.4023,-3.4681,-3.4427,-3.3891,-3.3143,-3.2434,-3.1676,-3.0986,-3.0986,-3.164,-3.2685,-3.2685,-3.3365,-3.4397,-3.4397,-3.4397,-3.4397,-3.4397,-3.4397,-3.4397,0.0,0.0,0.0,0.0,0.0,0.0,0.0,0.0,0.0,0.0,0.0,0.0,0.0,0.0,0.0,0.0,0.0,0.0,0.0,0.0,0.0,0.0,0.0,0.0,0.0,0.0,0.0,0.0,0.0,0.0,0.0,0.0,0.0,0.0,0.0,0.0,0.0,0.0,-3.5622,-3.5622,-3.5622,0.0,-3.5622,-3.5622,-3.5622,-3.5622,-3.5622,-3.5622,-3.5622,-3.5622,-3.5622,0.0,0.0,-3.5622,-3.5622,0.0,-3.5622,-3.5622,0.0,0.0,0.0,-3.5622,0.0,0.0,0.0,-3.5224,-3.5021,0.0,0.0,0.0,0.0,0.0,0.0,0.0,0.0,0.0,0.0,0.0,0.0,0.0,0.0,0.0,0.0,0.0,-3.1482,-3.1482,-3.1482,-3.1482,-3.1482,-3.1482,-3.1482,-3.1482,-3.1482,-3.1795,-3.2497,-3.3155,-3.3829,-3.4487,-3.4022,-3.3561,-3.3143,-3.2028,-3.1334,-3.0986,-3.0986,-3.164,-3.2685,-3.2685,-3.3365,-3.4397,-3.4397,-3.4397,-3.4397,-3.4397,-3.4397,-3.4397,0.0,0.0,0.0,0.0,0.0,0.0,0.0,0.0,0.0,0.0,0.0,0.0,0.0,0.0,0.0,0.0,0.0,0.0,0.0,0.0,0.0,0.0,0.0,-3.8707,0.0,0.0,0.0,0.0,0.0,0.0,0.0,0.0,0.0,0.0,0.0,0.0,0.0,0.0,0.0,-3.5622,0.0,-3.5622,-3.5622,-3.5622,-3.5622,-3.5622,-3.5622,-3.5622,-3.5622,-3.5622,0.0,-3.5622,-3.5622,-3.5622,0.0,0.0,0.0,0.0,0.0,0.0,0.0,0.0,0.0,-3.547,0.0,0.0,0.0,0.0,0.0,0.0,0.0,0.0,0.0,0.0,0.0,0.0,0.0,0.0,0.0,0.0,0.0,0.0,0.0,0.0,-3.1482,-3.1482,-3.1482,-3.1482,-3.1482,-3.1482,-3.1482,-3.1482,-3.1482,-3.1735,-3.2317,-3.3095,-3.3769,-3.4292,-3.3561,-3.3213,-3.3143,-3.169,-3.0986,-3.0986,-3.0986,-3.164,-3.2685,-3.2685,-3.3365,-3.4397,-3.4397,-3.4397,-3.4397,-3.4397,-3.4397,-3.4397,-3.7999,-3.7693,0.0,0.0,0.0,0.0,0.0,0.0,0.0,0.0,0.0,0.0,0.0,0.0,0.0,0.0,0.0,0.0,-3.8707,0.0,0.0,0.0,0.0,0.0,-3.8707,0.0,0.0,0.0,0.0,0.0,0.0,0.0,0.0,0.0,-3.6002,0.0,0.0,0.0,-3.5622,0.0,-3.5622,-3.5622,0.0,-3.5622,-3.5622,-3.5622,-3.5622,-3.5622,-3.5622,0.0,-3.5622,-3.5622,0.0,-3.5622,-3.5622,0.0,0.0,0.0,0.0,0.0,0.0,0.0,-3.5622,0.0,0.0,0.0,-3.547,0.0,0.0,0.0,0.0,0.0,0.0,0.0,0.0,0.0,0.0,0.0,0.0,0.0,0.0,0.0,0.0,0.0,0.0,-3.1482,-3.1482,-3.1482,-3.1482,-3.1482,-3.1482,-3.1482,-3.1482,-3.1511,-3.1586,-3.2871,-3.3529,-3.3619,-3.3346,-3.3213,-3.3143,-3.169,-3.0986,-3.0986,-3.0986,-3.164,-3.2685,-3.2685,-3.3365,-3.4397,-3.4397,-3.4397,-3.4397,-3.4397,-3.4397,-3.4397,-3.9355,-3.9221,0.0,0.0,0.0,0.0,0.0,0.0,0.0,0.0,0.0,0.0,0.0,0.0,0.0,0.0,0.0,-3.8707,0.0,0.0,0.0,0.0,0.0,0.0,0.0,0.0,0.0,0.0,-3.8483,0.0,0.0,0.0,0.0,0.0,-3.6045,0.0,-3.5773,0.0,-3.5667,0.0,0.0,0.0,0.0,-3.5622,-3.5622,-3.5622,-3.5622,-3.5622,-3.5622,0.0,-3.5622,0.0,0.0,0.0,0.0,0.0,0.0,0.0,0.0,0.0,0.0,0.0,0.0,0.0,-3.5622,0.0,-3.5622,0.0,0.0,0.0,0.0,0.0,0.0,0.0,0.0,0.0,0.0,0.0,0.0,0.0,0.0,0.0,0.0,0.0,0.0,0.0,0.0,-3.1482,-3.1482,-3.1482,-3.1482,-3.1482,-3.1482,-3.1482,-3.1482,-3.2841,-3.33,-3.2864,-3.3115,-3.3003,-3.2506,-3.1468,-3.0986,-3.0986,-3.0986,-3.1444,-3.2215,-3.2555,-3.3182,-3.3966,-3.428,-3.4397,-3.4397,-3.4397,-3.4397,-3.4397,-4.031,-4.031,0.0,0.0,0.0,0.0,0.0,0.0,0.0,0.0,0.0,0.0,-3.8707,-3.8707,0.0,0.0,-3.8707,-3.8707,0.0,0.0,-3.8707,0.0,0.0,0.0,0.0,0.0,0.0,0.0,0.0,0.0,0.0,0.0,0.0,0.0,0.0,-3.5905,-3.5861,0.0,0.0,-3.5622,-3.5728,-3.5684,-3.5622,-3.5622,-3.5622,-3.5622,-3.5622,-3.5622,-3.5622,-3.5622,-3.5622,0.0,-3.5622,0.0,0.0,0.0,0.0,0.0,-3.5622,0.0,0.0,0.0,0.0,0.0,0.0,0.0,0.0,0.0,0.0,0.0,0.0,0.0,0.0,0.0,0.0,0.0,0.0,0.0,0.0,0.0,0.0,0.0,0.0,0.0,0.0,0.0,-3.1482,0.0,-3.1482,-3.1482,-3.1482,-3.1482,-3.1482,-3.1482,-3.1482,-3.2841,-3.3114,-3.242,-3.2911,-3.2791,-3.2074,-3.1334,-3.0986,-3.0986,-3.0986,-3.1313,-3.1888,-3.245,-3.3051,-3.3639,-3.4188,-3.4397,-3.4397,-3.4397,-3.4397,-3.4397,-4.031,-4.031,0.0,0.0,0.0,0.0,0.0,0.0,0.0,0.0,0.0,0.0,0.0,0.0,0.0,0.0,0.0,-3.8707,-3.8707,0.0,-3.8707,0.0,0.0,-3.8707,0.0,0.0,0.0,0.0,0.0,0.0,0.0,0.0,0.0,0.0,0.0,-3.6122,-3.5975,-3.5861,-3.5728,-3.5622,-3.5622,-3.5622,-3.5622,0.0,-3.5622,-3.5622,-3.5622,0.0,0.0,-3.5622,-3.5622,0.0,0.0,0.0,0.0,0.0,0.0,0.0,0.0,0.0,0.0,-3.5622,0.0,0.0,0.0,0.0,-3.5622,0.0,0.0,0.0,0.0,0.0,0.0,0.0,0.0,0.0,0.0,0.0,0.0,0.0,0.0,0.0,0.0,0.0,0.0,0.0,-3.1482,0.0,-3.1482,-3.1482,-3.1482,-3.1482,-3.1482,-3.1482,-3.1482,-3.2841,-3.3114,-3.242,-3.2911,-3.2791,-3.2074,-3.1334,-3.0986,-3.0986,-3.0986,-3.1313,-3.1888,-3.245,-3.3051,-3.3639,-3.4188,-3.4397,-3.4397,-3.4397,-3.4397,-3.4397,-4.031,0.0,0.0,0.0,0.0,0.0,0.0,-3.9272,0.0,0.0,0.0,0.0,0.0,-3.8707,-3.8707,0.0,0.0,-3.8707,-3.8707,-3.8707,0.0,0.0,0.0,-3.8707,0.0,0.0,0.0,0.0,0.0,0.0,0.0,0.0,0.0,0.0,0.0,-3.6122,0.0,0.0,0.0,0.0,0.0,-3.5622,-3.5622,0.0,0.0,-3.5622,-3.5622,-3.5622,0.0,-3.5622,-3.5622,-3.5622,-3.5622,-3.5622,-3.5622,-3.5622,-3.5622,0.0,0.0,0.0,-3.5622,-3.5622,0.0,0.0,0.0,0.0,0.0,0.0,0.0,0.0,0.0,0.0,0.0,0.0,0.0,0.0,0.0,0.0,0.0,0.0,0.0,0.0,0.0,0.0,0.0,-3.1539,-3.1482,-3.1482,0.0,-3.1482,-3.1482,-3.1482,-3.1482,-3.1278,-3.0837,-3.2645,-3.2645,-3.1029,-3.2499,-3.2591,-3.132,-3.1123,-3.0986,-3.0986,-3.0986,-3.1091,-3.1352,-3.2293,-3.2816,-3.3091,-3.4031,-3.4397,-3.4397,-3.4397,-3.4397,-3.4397,-4.031,0.0,0.0,0.0,0.0,0.0,0.0,0.0,0.0,0.0,-3.875,0.0,-3.8707,0.0,-3.8707,0.0,-3.8707,-3.8707,-3.8707,-3.8707,0.0,-3.8707,-3.8707,0.0,0.0,0.0,0.0,0.0,0.0,-3.8285,0.0,0.0,0.0,0.0,0.0,0.0,-3.6019,0.0,-3.5844,0.0,0.0,-3.5622,0.0,0.0,-3.5622,-3.5622,0.0,-3.5622,-3.5622,-3.5622,-3.5622,-3.5622,-3.5622,-3.5622,-3.5622,-3.5622,-3.5622,-3.5622,-3.5622,-3.5622,0.0,0.0,-3.5622,0.0,-3.5622,0.0,0.0,0.0,0.0,0.0,0.0,0.0,0.0,0.0,0.0,0.0,0.0,0.0,0.0,0.0,0.0,0.0,0.0,0.0,-3.167,-3.1539,-3.1482,-3.1482,0.0,0.0,-3.1482,-3.1482,-3.1482,-3.1161,-3.0524,-3.2509,-3.244,-3.0309,-3.2305,-3.2461,-3.0986,-3.0986,-3.0986,-3.0986,-3.0986,-3.0986,-3.1078,-3.2215,-3.2685,-3.2803,-3.3953,-3.4397,-3.4397,-3.4397,-3.4397,-3.4397,-4.031,0.0,0.0,0.0,-3.987,0.0,0.0,0.0,-3.881,0.0,-3.8851,-3.8707,-3.8707,-3.8707,-3.8707,-3.8707,-3.8707,-3.8707,-3.8707,-3.8707,0.0,0.0,-3.8707,-3.8707,-3.8707,0.0,0.0,0.0,0.0,0.0,0.0,0.0,0.0,0.0,-3.6301,0.0,-3.6019,-3.6019,-3.5844,-3.5622,-3.5622,-3.5622,-3.5622,-3.5622,0.0,-3.5622,-3.5622,-3.5622,-3.5622,-3.5622,-3.5622,-3.5622,-3.5622,-3.5622,-3.5622,-3.5622,-3.5622,-3.5622,-3.5622,-3.5622,-3.5622,-3.5622,0.0,0.0,0.0,0.0,-3.5577,0.0,0.0,0.0,0.0,0.0,0.0,0.0,0.0,0.0,0.0,0.0,0.0,0.0,0.0,0.0,0.0,-3.1482,-3.1482,-3.1482,-3.1482,0.0,0.0,0.0,0.0,-3.1482,-3.1467,-3.1146,-3.045,-3.2387,-3.2312,-3.0309,-3.2236,-3.2376,-3.0986,-3.0986,-3.0986,-3.0986,-3.0986,-3.0986,-3.1078,-3.2215,-3.2685,-3.2803,-3.3953,-3.4397,-3.4397,-3.4397,-3.4397,-3.4397,-4.031,-4.031,-4.031,0.0,-4.0017,-3.9762,0.0,0.0,0.0,0.0,-3.875,-3.8707,-3.8707,-3.8707,-3.8707,-3.8707,-3.8707,0.0,0.0,0.0,0.0,-3.8707,-3.8707,-3.8707,-3.8707,-3.8707,0.0,-3.8707,0.0,0.0,-3.7505,0.0,0.0,0.0,0.0,0.0,-3.6019,-3.6019,-3.5888,-3.5728,-3.5622,-3.5667,0.0,0.0,-3.5622,-3.5622,-3.5622,-3.5622,-3.5622,-3.5622,-3.5622,-3.5622,-3.5622,-3.5622,-3.5622,-3.5622,-3.5622,-3.5622,-3.5622,-3.5622,-3.5622,-3.5622,-3.5316,-3.5131,0.0,0.0,0.0,0.0,0.0,0.0,0.0,0.0,0.0,0.0,0.0,0.0,0.0,0.0,0.0,0.0,0.0,0.0,-3.1539,-3.1482,-3.1482,-3.1482,-3.1482,0.0,0.0,0.0,0.0,-3.1482,-3.1029,-3.045,-2.9766,-3.1219,-3.1135,-2.957,-3.146,-3.1882,-3.0986,-3.0986,-3.0986,-3.0986,-3.0986,-3.0986,-3.1078,-3.2215,-3.2685,-3.2803,-3.3953,-3.4397,-3.4397,-3.4397,-3.4397,-3.4397,-4.031,0.0,0.0,-4.0769,0.0,0.0,-4.0217,0.0,0.0,-3.9877,-3.9829,0.0,-3.9753,-3.9753,-3.9753,-3.9753,-3.9441,0.0,-3.9221,0.0,0.0,-3.8707,-3.8707,-3.8707,-3.8707,-3.8707,0.0,-3.8707,0.0,0.0,-3.7505,0.0,0.0,0.0,0.0,-3.6216,0.0,-3.5949,-3.5888,-3.5861,-3.5711,0.0,0.0,-3.5728,-3.5667,-3.5622,-3.5622,-3.5622,-3.5622,-3.5622,-3.5622,-3.5622,-3.5622,-3.5622,-3.5622,-3.5622,-3.5622,-3.5622,-3.5622,-3.5622,-3.5622,-3.5622,-3.5379,-3.5178,-3.5224,-3.5224,-3.5178,0.0,0.0,0.0,0.0,0.0,0.0,0.0,0.0,0.0,0.0,0.0,0.0,0.0,0.0,0.0,-3.1539,-3.1482,-3.1482,-3.1482,0.0,0.0,0.0,0.0,0.0,-3.1482,-3.1146,-3.0464,-2.9504,-3.1027,-3.1001,-2.9287,-3.1173,-3.1736,-3.0986,-3.0986,-3.0986,-3.0986,-3.0986,-3.0986,-3.1078,-3.2215,-3.2685,-3.2803,-3.3953,-3.4397,-3.4397,-3.4397,-3.4397,-3.4397,-4.0635,0.0,0.0,0.0,0.0,0.0,0.0,-4.0617,0.0,-4.1341,0.0,-4.1111,-4.1111,-4.1111,-4.1111,-4.1111,0.0,-4.0065,-4.0065,-3.9294,-3.8854,-3.8854,-3.8762,-3.8707,-3.8707,-3.8707,-3.8707,0.0,0.0,0.0,0.0,0.0,0.0,0.0,0.0,0.0,0.0,-3.5905,-3.5905,0.0,-3.5861,-3.5817,-3.5861,-3.5817,-3.5756,-3.5667,-3.5622,-3.5622,-3.5622,-3.5622,-3.5622,-3.5622,-3.5622,-3.5622,-3.5622,-3.5622,-3.5622,-3.5622,-3.5622,-3.5622,-3.5622,-3.5622,-3.5577,-3.5379,-3.4975,-3.5178,-3.5316,-3.4975,-3.5161,0.0,0.0,0.0,0.0,0.0,0.0,0.0,0.0,0.0,0.0,0.0,0.0,0.0,0.0,0.0,0.0,0.0,0.0,0.0,0.0,0.0,0.0,0.0,-3.1278,0.0,-2.9755,0.0,-3.1177,-2.9605,-3.1213,-3.1603,-3.0986,-3.0986,-3.0986,-3.0986,-3.0986,-3.0986,-3.1078,-3.2215,-3.2777,-3.3012,-3.4005,-3.4397,-3.4397,-3.4397,-3.4397,-3.4397,-4.2354,0.0,0.0,0.0,0.0,-4.1897,-4.236,-4.1757,-4.1206,-4.1172,-4.1144,-4.1111,-4.1111,-4.1111,-4.1111,-4.1111,-4.0983,0.0,0.0,0.0,0.0,-3.968,-3.9056,-3.8707,-3.8707,-3.8707,-3.8707,0.0,0.0,0.0,0.0,0.0,0.0,0.0,0.0,0.0,-3.6182,-3.5905,0.0,-3.6122,-3.5905,-3.5949,-3.614,-3.5993,-3.5932,-3.5932,-3.58,-3.5667,-3.5622,-3.5622,-3.5622,-3.5622,-3.5622,-3.5622,-3.5622,-3.5622,-3.5622,-3.5622,-3.5622,-3.5622,-3.5622,-3.5622,-3.527,-3.5021,-3.5379,-3.4833,-3.4529,-3.5316,-3.4816,-3.4431,-3.488,0.0,0.0,0.0,0.0,0.0,0.0,0.0,0.0,0.0,0.0,0.0,0.0,0.0,0.0,0.0,0.0,0.0,0.0,0.0,0.0,0.0,0.0,0.0,0.0,0.0,0.0,-3.0845,-3.1076,-3.1123,-3.0986,-3.0986,-3.0986,-3.0986,-3.0986,-3.0986,-3.1078,-3.2215,-3.3247,-3.4123,-3.4319,-3.4397,-3.4397,-3.4397,-3.4397,-3.4397,0.0,0.0,0.0,0.0,0.0,0.0,0.0,-4.2902,0.0,-4.2375,-4.2341,-4.2341,-4.2341,-4.2341,-4.2341,-4.2341,-4.1974,-4.1735,-4.1735,-4.0983,-4.0524,-4.0524,-3.9753,0.0,-3.9313,-3.8716,-3.8483,-3.8707,0.0,0.0,0.0,0.0,0.0,0.0,0.0,-3.6259,0.0,0.0,0.0,-3.6233,-3.6079,-3.6079,-3.6165,-3.6122,-3.6079,-3.5975,-3.5949,-3.5817,-3.5667,-3.5622,-3.5622,-3.5622,-3.5622,-3.5622,-3.5622,-3.5622,-3.5622,-3.5622,-3.5622,-3.5622,-3.5622,-3.5622,-3.5424,-3.5224,-3.5178,-3.4785,-3.448,-3.4721,-3.4382,-3.4086,-3.4333,-3.3767,0.0,0.0,0.0,0.0,0.0,0.0,0.0,0.0,0.0,0.0,0.0,0.0,0.0,0.0,0.0,0.0,0.0,0.0,0.0,0.0,0.0,0.0,0.0,0.0,0.0,-3.0605,-3.0847,-3.0986,-3.0986,-3.0986,-3.0986,-3.0986,-3.0986,-3.0986,-3.1078,-3.2215,-3.3365,-3.4397,-3.4397,-3.4397,-3.4397,-3.4397,-3.4397,-3.4397,0.0,-4.2978,0.0,0.0,-4.3278,0.0,-4.3799,-4.3682,-4.3497,-4.3497,-4.3497,-4.3497,-4.3497,-4.3497,-4.3497,-4.3497,-4.291,-4.2561,-4.2561,-4.1809,-4.1368,-4.1368,-4.0579,-4.0157,-4.0157,-3.8973,-3.8507,0.0,0.0,0.0,0.0,0.0,0.0,0.0,0.0,0.0,0.0,0.0,-3.6251,-3.6301,-3.6208,-3.6208,-3.6225,-3.6397,-3.6406,-3.6336,-3.6473,-3.6454,-3.6321,-3.6186,-3.5938,-3.5622,-3.5622,-3.5622,-3.5622,-3.5622,-3.5622,-3.5622,-3.5622,-3.5622,-3.5622,-3.5622,-3.5622,-3.547,-3.5068,-3.4769,-3.4529,-3.4235,-3.3986,-3.3783,-3.3681,-3.3303,0.0,0.0,0.0,0.0,0.0,0.0,0.0,0.0,0.0,0.0,0.0,0.0,0.0,0.0,0.0,0.0,0.0,0.0,0.0,0.0,0.0,0.0,-2.9804,0.0,-3.0361,0.0,-3.0839,-3.0986,-3.0986,-3.0986,-3.0986,-3.0986,-3.0986,-3.1117,-3.1418,-3.2319,-3.3365,-3.4397,-3.4397,-3.4397,-3.4397,-3.4397,-3.4397,-3.4397,0.0,0.0,0.0,0.0,0.0,0.0,0.0,-4.3513,-4.3497,-4.3497,-4.3497,-4.3497,-4.3497,-4.3497,-4.3497,-4.3497,-4.3424,-4.3387,-4.3387,-4.2635,-4.2194,-4.2194,-4.1423,-4.1001,-4.1001,-3.981,-3.9204,0.0,0.0,0.0,0.0,0.0,0.0,0.0,0.0,0.0,0.0,-3.6251,-3.6251,-3.6301,-3.6208,-3.6251,-3.6387,-3.7094,-3.737,-3.7413,-3.7978,-3.8174,-3.8128,-3.806,-3.6956,-3.5622,-3.5622,-3.5622,-3.5622,-3.5622,-3.5622,-3.5622,-3.5622,-3.5622,-3.5622,-3.5622,-3.5622,-3.5577,-3.5532,-3.4769,-3.4185,-3.4625,-3.3953,-3.3145,-3.2641,-3.2492,-3.2492,0.0,0.0,0.0,0.0,0.0,0.0,0.0,0.0,0.0,0.0,0.0,0.0,0.0,0.0,0.0,0.0,0.0,0.0,0.0,0.0,-3.0606,-3.1236,-3.0516,0.0,-3.1933,-3.1307,-3.0986,-3.0986,-3.0986,-3.0986,-3.0986,-3.0986,-3.1575,-3.2542,-3.2646,-3.3365,-3.4397,-3.4397,-3.4397,-3.4397,-3.4397,-3.4397,-3.4397,0.0,0.0,0.0,0.0,0.0,0.0,0.0,-4.3497,-4.3497,-4.3497,-4.3497,-4.3497,-4.3497,-4.3497,-4.3497,-4.3497,-4.3497,-4.3497,-4.3497,-4.3185,-4.302,-4.302,-4.2249,-4.1827,-4.1827,-4.0648,-3.9784,0.0,0.0,0.0,0.0,0.0,0.0,0.0,0.0,-3.6301,-3.6301,-3.6276,-3.6534,-3.7008,-3.6982,-3.724,-3.7715,-3.8025,-3.8146,-3.818,-3.8429,-3.8487,-3.838,-3.8368,-3.7792,-3.7046,-3.6559,-3.6378,-3.6231,-3.5757,-3.5622,-3.5622,-3.5622,-3.5622,-3.5622,-3.5622,-3.5622,-3.5622,-3.5622,-3.4769,-3.4086,-3.4284,-3.3459,-3.2641,-3.2437,-3.2398,-3.2398,0.0,0.0,0.0,0.0,0.0,0.0,0.0,0.0,0.0,0.0,0.0,0.0,0.0,0.0,0.0,0.0,0.0,0.0,-2.7908,0.0,-2.9524,-3.0131,-3.0111,-3.0558,-3.1468,-3.1123,-3.0986,-3.0986,-3.0986,-3.0986,-3.0999,-3.1352,-3.1954,-3.2725,-3.3077,-3.3692,-3.4397,-3.4397,-3.4397,-3.4397,-3.4397,-3.4397,-3.4397,-4.4223,0.0,-4.3846,0.0,-4.3649,-4.3497,-4.3497,-4.3497,-4.3497,-4.3497,-4.3497,-4.3497,-4.3497,-4.3497,-4.3497,-4.3497,-4.3497,-4.3497,-4.3497,-4.3497,-4.3497,-4.3497,-4.2947,0.0,-4.2653,-4.1467,-4.0582,-4.0002,-3.9643,0.0,0.0,0.0,0.0,0.0,-3.6973,-3.6973,-3.6973,-3.6973,-3.7301,-3.7801,-3.7801,-3.8129,-3.8612,-3.8836,-3.8922,-3.8939,-3.9181,-3.9204,-3.9158,-3.9158,-3.9037,-3.8666,-3.7648,-3.725,-3.7039,-3.6451,-3.6299,-3.6299,-3.6299,-3.6129,-3.596,-3.596,-3.5791,-3.5622,-3.5622,-3.4769,-3.3935,-3.3563,-3.2911,-3.2398,-3.2398,-3.2398,-3.2398,0.0,0.0,0.0,0.0,0.0,0.0,0.0,-3.2398,-3.2342,-3.2247,0.0,0.0,0.0,0.0,0.0,0.0,0.0,0.0,0.0,0.0,0.0,0.0,0.0,-3.0594,-3.0986,-3.0986,-3.0986,-3.0986,-3.0986,-3.0986,-3.1013,-3.1588,-3.2163,-3.2738,-3.3339,-3.3914,-3.4397,-3.4397,-3.4397,-3.4397,-3.4397,-3.4397,-3.4397,-4.3838,-4.3749,-4.3532,-4.3532,-4.3479,-4.3497,-4.3497,-4.3497,-4.3497,-4.3497,-4.3497,-4.3497,-4.3497,-4.3497,-4.3497,-4.3497,-4.3497,-4.3497,-4.3497,-4.3497,-4.3497,0.0,0.0,-4.3479,-4.3479,-4.2322,-4.1669,-4.1651,0.0,0.0,-3.9294,0.0,0.0,-3.856,-3.856,-3.856,-3.856,-3.856,-3.8577,-3.8577,-3.8577,-3.8577,-3.8663,-3.9405,-3.9681,-3.9784,-4.0578,-4.0853,-4.0853,-4.0853,-4.0758,-4.0357,-3.8632,-3.8108,-3.8061,-3.7919,-3.7872,-3.7872,-3.7872,-3.733,-3.6772,-3.6772,-3.618,-3.5622,-3.5622,-3.4769,-3.3716,-3.2656,-3.2398,-3.2398,-3.2398,-3.2398,-3.2398,-3.2398,0.0,0.0,0.0,0.0,0.0,0.0,-3.2398,-3.2398,-3.2398,0.0,0.0,0.0,0.0,0.0,0.0,0.0,0.0,-2.8415,-2.9629,0.0,-3.0111,-3.0699,-3.0973,-3.0986,-3.0986,-3.0986,-3.0986,-3.0986,-3.0986,-3.1013,-3.1588,-3.2163,-3.2738,-3.3339,-3.3914,-3.4397,-3.4397,-3.4397,-3.4397,-3.4397,-3.4397,-3.4397,-4.3594,-4.3582,-4.3497,-4.3497,-4.3497,-4.3497,-4.3497,-4.3497,-4.3497,-4.3497,-4.3497,-4.3497,-4.3497,-4.3497,-4.3497,0.0,-4.3497,-4.3497,0.0,-4.3497,-4.3497,-4.3497,-4.3497,-4.3497,-4.3497,-4.3118,-4.2396,-4.1292,0.0,0.0,0.0,-3.9066,-3.8868,-3.8594,-3.8594,-3.8594,-3.8594,-3.8594,-3.8888,-3.9353,-3.9353,-3.9664,-4.0181,-4.0422,-4.0509,-4.0543,-4.0784,-4.0888,-4.0888,-4.0888,-4.0888,-4.0707,-3.997,-3.9347,-3.8693,-3.8106,-3.7905,-3.7905,-3.7905,-3.7736,-3.755,-3.755,-3.7364,-3.7043,-3.6518,-3.5149,-3.3681,-3.2602,-3.2398,-3.2398,-3.2398,-3.2398,-3.2398,-3.2398,0.0,0.0,0.0,0.0,0.0,0.0,0.0,-3.2398,0.0,-3.212,0.0,0.0,0.0,0.0,0.0,0.0,0.0,0.0,-2.9552,0.0,-3.0137,-3.0699,-3.0986,-3.0986,-3.0986,-3.0986,-3.0999,-3.1392,-3.1575,-3.1627,-3.2607,-3.3143,-3.3352,-3.3914,-3.4241,-3.4397,-3.4397,-3.4397,-3.4397,-3.4397,-3.4397,-3.4397,-4.3497,-4.3497,-4.3589,-4.3901,-4.3956,-4.4048,-4.436,-4.4397,-4.4397,-4.4397,-4.4397,-4.4397,-4.4397,-4.4397,0.0,-4.3534,-4.3497,-4.3497,-4.3497,-4.3497,-4.3497,-4.3497,-4.3497,-4.3497,-4.3497,0.0,0.0,-4.1779,-4.1626,-4.0955,-3.9826,-3.9826,-3.9693,-3.9439,-3.9439,-3.9439,-3.9439,-3.9439,-3.9715,-4.0146,-4.0146,-4.044,-4.0888,-4.0888,-4.0888,-4.0888,-4.0888,-4.0888,-4.0888,-4.0888,-4.0888,-4.0823,-4.0583,-4.0129,-3.9572,-3.8918,-3.8717,-3.8717,-3.8717,-3.8514,-3.8311,-3.8311,-3.8108,-3.7675,-3.6785,-3.5678,-3.4455,-3.3091,-3.2782,-3.269,-3.2444,-3.2398,-3.2398,-3.2398,0.0,-3.2398,0.0,0.0,0.0,0.0,0.0,0.0,0.0,-3.2107,0.0,0.0,0.0,0.0,0.0,0.0,0.0,-2.9166,-2.9745,0.0,-3.0451,-3.0803,-3.0986,-3.0986,-3.0986,-3.1104,-3.1313,-3.1679,-3.1954,-3.2215,-3.3169,-3.3587,-3.3639,-3.4175,-3.4397,-3.4397,-3.4397,-3.4397,-3.4397,-3.4397,-3.4397,-3.4397,-4.3644,-4.3663,0.0,0.0,-4.4782,0.0,-4.5792,-4.5902,-4.5902,-4.5902,-4.5902,-4.5902,-4.5902,-4.5902,-4.5296,-4.3791,0.0,0.0,0.0,-4.3497,-4.3497,-4.3497,-4.3497,0.0,-4.3497,-4.3479,-4.325,-4.2806,-4.1948,-4.1283,-4.0888,-4.0888,-4.0888,-4.0888,-4.0888,-4.0888,-4.0888,-4.0888,-4.0888,-4.0888,-4.0888,-4.0888,-4.0888,-4.0888,-4.0888,-4.0888,-4.0888,-4.0888,-4.0888,-4.0888,-4.0888,-4.0823,-4.0583,-4.0534,-4.0436,-4.0171,-4.007,-4.007,-4.007,-3.958,-3.9073,-3.9073,-3.8514,-3.7666,-3.6535,-3.6222,-3.5674,-3.3882,-3.3475,-3.329,-3.2659,-3.2536,-3.2521,-3.2475,-3.2459,-3.2444,-3.2398,0.0,0.0,0.0,0.0,0.0,0.0,-3.1961,-3.1526,0.0,0.0,0.0,0.0,0.0,-3.0381,-3.0401,-3.0249,-3.0451,-3.0973,-3.0986,-3.0999,-3.1052,-3.1052,-3.1352,-3.1901,-3.194,-3.2254,-3.279,-3.3391,-3.3652,-3.3692,-3.4188,-3.4397,-3.4397,-3.4397,-3.4397,-3.4397,-3.4397,-3.4397,-3.4397,0.0,0.0,-4.5388,-4.5571,-4.5626,-4.5681,-4.5865,-4.5902,-4.5902,-4.5902,-4.5902,-4.5902,-4.5902,-4.5902,-4.5755,-4.5369,-4.4764,-4.4158,-4.3534,-4.3497,-4.3497,-4.3497,-4.3497,-4.3497,-4.3497,-4.3196,-4.2655,-4.1821,-4.1604,-4.1283,-4.0888,-4.0888,-4.0888,-4.0888,-4.0888,-4.0888,-4.0888,-4.0888,-4.0888,-4.0888,-4.0888,-4.0888,-4.0888,-4.0888,-4.0888,-4.0888,-4.0888,-4.0888,-4.0888,-4.0888,-4.0888,-4.0888,-4.068,-4.0583,-4.0436,-4.0171,-4.007,-4.007,-4.007,-3.9952,-3.9817,-3.9817,-3.9276,-3.8454,-3.7306,-3.6615,-3.5819,-3.4519,-3.4214,-3.4168,-3.4014,-3.3983,-3.3798,-3.3244,-3.3167,-3.2982,-3.2459,0.0,0.0,0.0,-3.3644,-3.3983,-3.3983,-3.3367,-3.2694,0.0,0.0,0.0,0.0,0.0,-3.0864,-3.0428,-3.0629,-3.0856,-3.0986,-3.0986,-3.1209,-3.164,-3.164,-3.194,-3.2502,-3.2973,-3.3247,-3.3417,-3.3966,-3.4201,-3.4214,-3.4345,-3.4397,-3.4397,-3.4397,-3.4397,-3.4397,-3.4397,-3.4397,-3.4397,-4.581,-4.5902,-4.6012,-4.6379,-4.6452,-4.6581,-4.6948,-4.7003,-4.7003,-4.7003,-4.7003,-4.7003,-4.7003,-4.7003,-4.6856,-4.6489,-4.5388,-4.4525,-4.4085,-4.3699,-4.3497,-4.3497,-4.3497,-4.3497,-4.3497,-4.3304,-4.2732,-4.1821,-4.1604,-4.1283,-4.0888,-4.0888,-4.0888,-4.0888,-4.0888,-4.0888,-4.0888,-4.0888,-4.0888,-4.0888,-4.0888,-4.0888,-4.0888,-4.0888,-4.0888,-4.0888,-4.0888,-4.0888,-4.0888,-4.0888,-4.0888,-4.0888,-4.0745,-4.0648,-4.0534,-4.0288,-4.0138,-4.007,-4.007,-4.007,-4.007,-4.007,-3.9783,-3.9211,-3.8041,-3.7475,-3.6733,-3.5279,-3.4937,-3.4845,-3.4537,-3.4475,-3.4337,-3.3952,-3.3891,-3.3767,-3.3398,-3.366,0.0,-3.3891,-3.4245,-3.4342,-3.4014,-3.3585,-3.3039,-3.2259,0.0,0.0,-3.1393,-3.1409,-3.1214,-3.0811,-3.0966,-3.0986,-3.0986,-3.1248,-3.1535,-3.1759,-3.211,-3.2542,-3.3117,-3.3443,-3.3731,-3.3979,-3.4267,-3.4397,-3.4397,-3.4397,-3.4397,-3.4397,-3.4397,-3.4397,-3.4397,-3.4397,-3.4397,-3.4397,-4.6232,-4.6269,-4.6489,-4.7168,-4.7297,-4.7517,-4.8214,-4.8306,-4.8306,-4.8306,-4.8306,-4.8306,-4.8306,-4.8306,-4.8031,-4.7352,-4.5938,-4.4966,-4.4727,-4.4066,-4.3626,-4.3497,-4.3497,-4.3497,-4.3497,-4.3497,-4.305,-4.2074,-4.1778,-4.1356,-4.0888,-4.0888,-4.0888,-4.0888,-4.0888,-4.0888,-4.0888,-4.0888,-4.0888,-4.0888,-4.0888,-4.0888,-4.0888,-4.0888,-4.0888,-4.0888,-4.0888,-4.0888,-4.0888,-4.0888,-4.0888,-4.0888,-4.0745,-4.0697,-4.0648,-4.0387,-4.0238,-4.0138,-4.0138,-4.007,-4.007,-4.007,-4.007,-3.9782,-3.8574,-3.8278,-3.7776,-3.604,-3.563,-3.546,-3.4891,-3.4783,-3.4752,-3.4645,-3.4629,-3.4599,-3.4491,0.0,-3.4629,-3.4629,-3.4722,-3.4574,-3.3923,-3.3711,-3.3301,-3.2577,-3.2414,0.0,0.0,-3.1817,-3.1562,-3.1391,-3.1176,-3.1026,-3.1117,-3.1679,-3.2019,-3.211,-3.2594,-3.3143,-3.3718,-3.3718,-3.3966,-3.4397,-3.4397,-3.4397,-3.4397,-3.4397,-3.4397,-3.4397,-3.4397,-3.4397,-3.4397,-3.4397,-3.4397,-3.4397,-4.7792,-4.7939,-4.7976,-4.8104,-4.8122,-4.8159,-4.8288,-4.8306,-4.8306,-4.8306,-4.8306,-4.8306,-4.8306,-4.8306,-4.8251,-4.8122,-4.7278,-4.6159,-4.48,-4.458,-4.4213,-4.3516,-4.3497,-4.3497,-4.3497,-4.3497,-4.2865,-4.1604,-4.1948,-4.1666,-4.0888,-4.0888,-4.0888,-4.0888,-4.0888,-4.0888,-4.0888,-4.0888,-4.0888,-4.0888,-4.0888,-4.0888,-4.0888,-4.0888,-4.0888,-4.0888,-4.0888,-4.0888,-4.0888,-4.0888,-4.0888,-4.0888,-4.0888,-4.0793,-4.0648,-4.0534,-4.0387,-4.0238,-4.0121,-4.007,-4.007,-4.007,-4.007,-3.9782,-3.8574,-3.8278,-3.7921,-3.6645,-3.6338,-3.6307,-3.6199,-3.6184,-3.5984,-3.5414,-3.5322,-3.5122,0.0,0.0,-3.5322,-3.5322,-3.583,-3.6107,-3.6045,-3.5461,-3.4779,-3.4018,-3.3366,-3.269,-3.1963,-3.1757,-3.1748,-3.1985,-3.131,-3.1222,-3.1705,-3.2267,-3.2816,-3.3326,-3.3417,-3.3744,-3.428,-3.428,-3.4319,-3.4397,-3.4397,-3.4397,-3.4397,-3.4397,-3.4397,-3.4397,-3.4397,-3.4397,-3.4397,-3.4397,-3.4397,-3.4397,-4.8233,-4.8306,-4.8306,-4.8306,-4.8306,-4.8306,-4.8306,-4.8306,-4.8306,-4.8306,-4.8306,-4.8306,-4.8306,-4.8306,-4.8306,-4.8306,-4.7976,-4.726,-4.6085,-4.559,-4.4984,-4.4176,-4.4158,-4.3938,-4.3497,-4.3497,-4.2958,-4.1864,-4.2074,-4.1753,-4.0888,-4.0888,-4.0888,-4.0888,-4.0888,-4.0888,-4.0888,-4.0888,-4.0888,-4.0888,-4.0888,-4.0888,-4.0888,-4.0888,-4.0888,-4.0888,-4.0888,-4.0888,-4.0888,-4.0888,-4.0888,-4.0888,-4.0888,-4.0888,-4.0793,-4.0648,-4.0387,-4.0188,-4.0138,-4.007,-4.002,-3.9696,-3.9644,-3.9312,-3.8067,-3.7796,-3.7562,-3.6662,-3.6492,-3.6492,-3.6492,-3.6492,-3.6384,-3.6076,-3.603,0.0,0.0,-3.583,-3.603,-3.603,-3.6307,-3.6352,-3.5943,-3.5255,-3.4514,-3.3768,-3.303,-3.264,-3.257,-3.2198,-3.2226,-3.272,-3.2187,-3.2032,-3.2293,-3.2881,-3.3313,-3.3587,-3.3888,-3.4162,-3.4397,-3.4397,-3.4397,-3.4397,-3.4397,-3.4397,-3.4397,-3.4397,-3.4397,-3.4397,-3.4397,-3.4397,-3.4397,-3.4397,-3.4397,-3.4397,-4.8306,-4.8306,-4.8306,-4.8306,-4.8306,-4.8306,-4.8306,-4.8306,-4.8306,-4.8306,-4.8306,-4.8306,-4.8306,-4.8306,-4.8306,-4.8306,-4.8306,-4.8049,-4.7443,-4.6801,-4.6012,-4.5021,-4.48,-4.4323,-4.3516,-4.3497,-4.3087,-4.2198,-4.2198,-4.1753,-4.0888,-4.0888,-4.0888,-4.0888,-4.0888,-4.0888,-4.0888,-4.0888,-4.0888,-4.0888,-4.0888,-4.0888,-4.0888,-4.0888,-4.0888,-4.0888,-4.0888,-4.0888,-4.0888,-4.0888,-4.0888,-4.0888,-4.0888,-4.0888,-4.0871,-4.0745,-4.0436,-4.0138,-4.0138,-4.007,-3.9969,-3.9523,-3.9312,-3.892,-3.7854,-3.7519,-3.7238,-3.66,-3.6492,-3.6492,-3.6492,-3.6492,-3.6492,-3.6492,0.0,0.0,0.0,-3.6492,-3.6492,-3.6492,-3.6492,-3.6289,-3.5737,-3.4993,-3.4303,-3.369,-3.3054,-3.2837,-3.324,-3.2876,-3.2824,-3.333,-3.3054,-3.2894,-3.2894,-3.3483,-3.3783,-3.3783,-3.4201,-3.4397,-3.4397,-3.4397,-3.4397,-3.4397,-3.4397,-3.4397,-3.4397,-3.4397,-3.4397,-3.4397,-3.4397,-3.4397,-3.4397,-3.4397,-3.4397,-3.4397,-4.8306,-4.8306,-4.8306,-4.8306,-4.8306,-4.8306,-4.8306,-4.8306,-4.8306,-4.8306,-4.8306,-4.8306,-4.8306,-4.8306,-4.8306,-4.8306,-4.8306,-4.8269,-4.8233,-4.8159,-4.7443,-4.5883,-4.5112,-4.4323,-4.3516,-4.3497,-4.3087,-4.2198,-4.2198,-4.1753,-4.0888,-4.0888,-4.0888,-4.0888,-4.0888,-4.0888,-4.0888,-4.0888,-4.0888,-4.0888,-4.0888,-4.0888,-4.0888,-4.0888,-4.0888,-4.0888,-4.0888,-4.0888,-4.0888,-4.0888,-4.0888,-4.0888,-4.0888,-4.0888,-4.0871,-4.0745,-4.0502,-4.0238,-4.0121,-4.007,-4.007,-4.002,-3.9592,-3.9028,-3.8407,-3.7796,-3.7238,-3.66,-3.6492,-3.6492,-3.6492,-3.6492,-3.6492,-3.6492,0.0,0.0,-3.6492,-3.6492,-3.6492,-3.6492,-3.6492,-3.6492,-3.6414,-3.5737,-3.523,-3.5071,-3.4342,-3.3928,-3.3851,-3.3467,-3.3357,-3.359,-3.3522,-3.3522,-3.3522,-3.4071,-3.4332,-3.4332,-3.4384,-3.4397,-3.4397,-3.4397,-3.4397,-3.4397,-3.4397,-3.4397,-3.4397,-3.4397,-3.4397,-3.4397,-3.4397,-3.4397,-3.4397,-3.4397,-3.4397,-3.4397,-4.8306,-4.8306,-4.8306,-4.8306,-4.8306,-4.8306,-4.8306,-4.8306,-4.8306,-4.8306,-4.8306,-4.8306,-4.8306,-4.8306,-4.8306,-4.8306,-4.8306,-4.8306,-4.8306,-4.8306,-4.781,-4.6709,-4.5883,-4.5076,-4.4268,-4.425,-4.3579,-4.2198,-4.2198,-4.1753,-4.0888,-4.0888,-4.0888,-4.0888,-4.0888,-4.0888,-4.0888,-4.0888,-4.0888,-4.0888,-4.0888,-4.0888,-4.0888,-4.0888,-4.0888,-4.0888,-4.0888,-4.0888,-4.0888,-4.0888,-4.0888,-4.0888,-4.0888,-4.0888,-4.0871,-4.0745,-4.06,-4.0387,-4.0238,-4.0188,-3.9901,-3.9172,-3.8794,-3.8407,-3.7385,-3.6997,-3.6785,-3.6554,-3.6492,-3.6492,-3.6492,-3.6492,-3.6492,-3.6492,0.0,-3.6492,-3.6492,-3.6492,-3.6492,-3.6492,-3.6492,-3.6661,-3.7076,-3.6421,-3.6,-3.5863,-3.5138,-3.4627,-3.4461,-3.4446,-3.4432,-3.4357,-3.4179,-3.4097,-3.4097,-3.4293,-3.4397,-3.4397,-3.4397,-3.4397,-3.4397,-3.4397,-3.4397,-3.4397,-3.4397,-3.4397,-3.4397,-3.4397,-3.4397,-3.4397,-3.4397,-3.4397,-3.4397,-3.4397,-3.4397,-3.4397,-4.8306,-4.8306,-4.8306,-4.8306,-4.8306,-4.8306,-4.8306,-4.8306,-4.8306,-4.8306,-4.8306,-4.8306,-4.8306,-4.8306,-4.8306,-4.8306,-4.8306,-4.8306,-4.8306,-4.8306,-4.7957,-4.715,-4.6581,-4.5902,-4.5094,-4.4837,-4.4015,-4.2573,-4.2323,-4.1753,-4.0888,-4.0888,-4.0888,-4.0888,-4.0888,-4.0888,-4.0888,-4.0888,-4.0888,-4.0888,-4.0888,-4.0888,-4.0888,-4.0888,-4.0888,-4.0888,-4.0888,-4.0888,-4.0888,-4.0888,-4.0888,-4.0888,-4.0888,-4.0888,-4.0871,-4.0745,-4.0648,-4.0534,-4.0355,-4.0238,-3.9901,-3.8849,-3.8463,-3.7994,-3.6997,-3.6662,-3.6492,-3.6492,-3.6492,-3.6492,-3.6492,-3.6492,-3.6492,-3.6492,-3.6492,-3.6492,-3.6492,-3.6492,-3.6569,-3.6784,-3.6799,-3.7076,-3.7754,-3.7182,-3.6737,-3.6816,-3.5925,-3.5252,-3.4993,-3.5103,-3.5086,-3.4921,-3.466,-3.4494,-3.4494,-3.4397,-3.4397,-3.4397,-3.4397,-3.4397,-3.4397,-3.4397,-3.4397,-3.4397,-3.4397,-3.4397,-3.4397,-3.4397,-3.4397,-3.4397,-3.4397,-3.4397,-3.4397,-3.4397,-3.4397,-3.4397,-4.8306,-4.8306,-4.8306,-4.8306,-4.8306,-4.8306,-4.8306,-4.8306,-4.8306,-4.8306,-4.8306,-4.8306,-4.8306,-4.8306,-4.8306,-4.8306,-4.8306,-4.8306,-4.8306,-4.8306,-4.7957,-4.715,-4.7131,-4.6746,-4.592,-4.5131,-4.4288,-4.34,-4.2608,-4.177,-4.0888,-4.0888,-4.0888,-4.0888,-4.0888,-4.0888,-4.0888,-4.0888,-4.0888,-4.0888,-4.0888,-4.0888,-4.0888,-4.0888,-4.0888,-4.0888,-4.0888,-4.0888,-4.0888,-4.0888,-4.0888,-4.0888,-4.0888,-4.0888,-4.0871,-4.0745,-4.0697,-4.0648,-4.0404,-4.0305,-4.0138,-3.9365,-3.8739,-3.8124,-3.7519,-3.6952,-3.6492,-3.6492,-3.6492,-3.6492,-3.6492,-3.6492,-3.6492,-3.6492,-3.6492,-3.6492,-3.6507,-3.6507,-3.6753,-3.743,-3.7507,-3.7769,-3.8446,-3.7864,-3.7629,-3.8287,-3.6864,-3.58,-3.544,-3.5399,-3.5318,-3.5086,-3.4921,-3.4756,-3.4756,-3.4494,-3.4397,-3.4397,-3.4397,-3.4397,-3.4397,-3.4397,-3.4397,-3.4397,-3.4397,-3.4397,-3.4397,-3.4397,-3.4397,-3.4397,-3.4397,-3.4397,-3.4397,-3.4397,-3.4397,-3.4397,-4.8306,-4.8306,-4.8306,-4.8306,-4.8306,-4.8306,-4.8306,-4.8306,-4.8306,-4.8306,-4.8306,-4.8306,-4.8306,-4.8306,-4.8306,-4.8306,-4.8306,-4.8306,-4.8306,-4.8306,-4.8196,-4.7957,-4.7957,-4.759,-4.6764,-4.6168,-4.5337,-4.4161,-4.3598,-4.2748,-4.1647,-4.1647,-4.1388,-4.0888,-4.0888,-4.0888,-4.0888,-4.0888,-4.0888,-4.0888,-4.0888,-4.0888,-4.0888,-4.0888,-4.0888,-4.0888,-4.0888,-4.0888,-4.0888,-4.0888,-4.0888,-4.0888,-4.0888,-4.0888,-4.0888,-4.084,-4.0793,-4.0697,-4.06,-4.0453,-4.002,-3.8849,-3.8446,-3.801,-3.6997,-3.66,-3.6492,-3.6492,-3.6492,-3.6492,-3.6492,-3.6492,-3.6492,-3.6492,-3.6492,-3.6661,-3.7138,-3.72,-3.7446,-3.8123,-3.82,-3.8477,-3.9154,-3.8999,-3.8903,-3.8975,-3.7541,-3.6584,-3.6466,-3.5777,-3.5399,-3.5318,-3.5086,-3.5003,-3.5003,-3.4564,-3.4397,-3.4397,-3.4397,-3.4397,-3.4397,-3.4397,-3.4397,-3.4397,-3.4397,-3.4397,-3.4397,-3.4397,-3.4397,-3.4397,-3.4397,-3.4397,-3.4397,-3.4397,-3.4397,-3.4397,-4.8306,-4.8306,-4.8306,-4.8306,-4.8306,-4.8306,-4.8306,-4.8306,-4.8306,-4.8306,-4.8306,-4.8306,-4.8306,-4.8306,-4.8306,-4.8306,-4.8306,-4.8306,-4.8306,-4.8306,-4.8306,-4.8306,-4.8306,-4.8086,-4.7609,-4.6973,-4.6119,-4.4963,-4.4369,-4.3512,-4.2457,-4.2457,-4.2216,-4.1833,-4.1833,-4.1612,-4.1319,-4.1319,-4.1147,-4.0888,-4.0888,-4.0888,-4.0888,-4.0888,-4.0888,-4.0888,-4.0888,-4.0888,-4.0888,-4.0888,-4.0888,-4.0888,-4.0888,-4.0888,-4.0888,-4.0888,-4.084,-4.0793,-4.0697,-4.0551,-4.0104,-3.8995,-3.8502,-3.8067,-3.7058,-3.6662,-3.6492,-3.6492,-3.6492,-3.6492,-3.6492,-3.6707,-3.6892,-3.6892,-3.7107,-3.743,-3.7846,-3.7908,-3.8154,-3.8831,-3.8908,-3.917,-3.9847,-3.9924,-3.9718,-3.9361,-3.8413,-3.7601,-3.6922,-3.6308,-3.5871,-3.5562,-3.5318,-3.5236,-3.5236,-3.4825,-3.466,-3.4577,-3.4481,-3.4397,-3.4397,-3.4397,-3.4397,-3.4397,-3.4397,-3.4397,-3.4397,-3.4397,-3.4397,-3.4397,-3.4397,-3.4397,-3.4397,-3.4397,-3.4397,-3.4397,-4.8306,-4.8306,-4.8306,-4.8306,-4.8306,-4.8306,-4.8306,-4.8306,-4.8306,-4.8306,-4.8306,-4.8306,-4.8306,-4.8306,-4.8306,-4.8306,-4.8306,-4.8306,-4.8306,-4.8306,-4.8306,-4.8306,-4.8306,-4.8306,-4.8306,-4.7552,-4.6702,-4.5784,-4.5027,-4.4177,-4.3318,-4.3318,-4.3283,-4.3214,-4.3214,-4.2768,-4.2095,-4.2095,-4.1698,-4.1095,-4.1095,-4.1095,-4.1078,-4.1009,-4.0974,-4.0974,-4.0905,-4.0888,-4.0888,-4.0888,-4.0888,-4.0888,-4.0888,-4.0888,-4.0888,-4.0888,-4.0888,-4.0871,-4.0745,-4.0583,-4.032,-3.9746,-3.904,-3.8303,-3.7535,-3.6952,-3.6569,-3.6569,-3.6584,-3.6599,-3.6661,-3.7169,-3.7584,-3.7584,-3.8108,-3.8539,-3.8585,-3.86,-3.8846,-3.9524,-3.9616,-3.9847,-4.0462,-4.0524,-4.0231,-3.9463,-3.932,-3.8635,-3.7078,-3.6922,-3.6559,-3.571,-3.5562,-3.5399,-3.5399,-3.5236,-3.5003,-3.4839,-3.4577,-3.4397,-3.4397,-3.4397,-3.4397,-3.4397,-3.4397,-3.4397,-3.4397,-3.4397,-3.4397,-3.4397,-3.4397,-3.4397,-3.4397,-3.4397,-3.4397,-3.4397,-4.8306,-4.8306,-4.8306,-4.8306,-4.8306,-4.8306,-4.8306,-4.8306,-4.8306,-4.8306,-4.8306,-4.8306,-4.8306,-4.8306,-4.8306,-4.8306,-4.8306,-4.8306,-4.8306,-4.8306,-4.8306,-4.8306,-4.8306,-4.8306,-4.8306,-4.7773,-4.7211,-4.6641,-4.6112,-4.5215,-4.4044,-4.4044,-4.3767,-4.3214,-4.3214,-4.3128,-4.2973,-4.2973,-4.2869,-4.2731,-4.2731,-4.2731,-4.2612,-4.1974,-4.175,-4.1681,-4.1095,-4.0888,-4.0888,-4.0888,-4.0888,-4.0888,-4.0888,-4.0888,-4.0888,-4.0888,-4.0888,-4.0871,-4.0871,-4.068,-4.0622,-4.1002,-4.0481,-3.9427,-3.7764,-3.7298,-3.7214,-3.7295,-3.7277,-3.7446,-3.7984,-3.82,-3.8292,-3.8292,-3.8415,-3.8692,-3.9231,-3.9293,-3.9554,-4.0232,-4.0309,-4.037,-4.0524,-4.0524,-4.0455,-4.0231,-3.9692,-3.8855,-3.7875,-3.7218,-3.6559,-3.571,-3.5629,-3.5642,-3.5642,-3.548,-3.5236,-3.5003,-3.4839,-3.4673,-3.4673,-3.4494,-3.4397,-3.4397,-3.4397,-3.4397,-3.4397,-3.4397,-3.4397,-3.4397,-3.4397,-3.4397,-3.4397,-3.4397,-3.4397,-3.4397,-4.8306,-4.8306,-4.8306,-4.8306,-4.8306,-4.8306,-4.8306,-4.8306,-4.8306,-4.8306,-4.8306,-4.8306,-4.8306,-4.8306,-4.8306,-4.8306,-4.8306,-4.8306,-4.8306,-4.8306,-4.8306,-4.8306,-4.8306,-4.8306,-4.8306,-4.7856,-4.7378,-4.6908,-4.6631,-4.5975,-4.482,-4.482,-4.4613,-4.4251,-4.4251,-4.4044,-4.3699,-4.3699,-4.3492,-4.3214,-4.3214,-4.3214,-4.318,-4.2716,-4.2543,-4.2492,-4.2112,-4.2023,-4.1971,-4.1526,-4.1405,-4.1405,-4.1405,-4.1405,-4.1474,-4.1854,-4.2023,-4.2023,-4.2023,-4.1761,-4.1647,-4.204,-4.1466,-4.0456,-3.9119,-3.8623,-3.8308,-3.8021,-3.7984,-3.8092,-3.8446,-3.8769,-3.8985,-3.8985,-3.9262,-3.9601,-3.9955,-4.0001,-4.0139,-4.0493,-4.0524,-4.0524,-4.0524,-4.0524,-4.0524,-4.0524,-4.0076,-3.9535,-3.8708,-3.8264,-3.7525,-3.6322,-3.6243,-3.6097,-3.571,-3.5642,-3.548,-3.5399,-3.5086,-3.4921,-3.4756,-3.466,-3.4494,-3.4397,-3.4397,-3.4397,-3.4397,-3.4397,-3.4397,-3.4397,-3.4397,-3.4397,-3.4397,-3.4397,-3.4397,-3.4397,-4.8306,-4.8306,-4.8306,-4.8306,-4.8306,-4.8306,-4.8306,-4.8306,-4.8306,-4.8306,-4.8306,-4.8306,-4.8306,-4.8306,-4.8306,-4.8306,-4.8306,-4.8306,-4.8306,-4.8306,-4.8306,-4.8306,-4.8306,-4.8306,-4.8306,-4.7856,-4.7378,-4.6908,-4.6817,-4.6315,-4.5423,-4.5423,-4.5423,-4.5423,-4.5423,-4.5061,-4.4475,-4.4475,-4.413,-4.3561,-4.3561,-4.3561,-4.3544,-4.3456,-4.3404,-4.3387,-4.3266,-4.3214,-4.3128,-4.2406,-4.2199,-4.2199,-4.2199,-4.2199,-4.2319,-4.3024,-4.3214,-4.3214,-4.3214,-4.2996,-4.2757,-4.2877,-4.2223,-4.1387,-4.0875,-4.011,-3.9314,-3.8778,-3.8677,-3.8723,-3.8831,-3.9323,-3.9693,-3.9693,-4.017,-4.0524,-4.0524,-4.0524,-4.0524,-4.0524,-4.0524,-4.0524,-4.0524,-4.0524,-4.0524,-4.0524,-4.0524,-4.0146,-3.9305,-3.9305,-3.8561,-3.6922,-3.6936,-3.648,-3.571,-3.571,-3.571,-3.571,-3.5318,-3.5086,-3.4839,-3.4756,-3.4577,-3.4397,-3.4397,-3.4397,-3.4397,-3.4397,-3.4397,-3.4397,-3.4397,-3.4397,-3.4397,-3.4397,-3.4397,-3.4397,-4.8306,-4.8306,-4.8306,-4.8306,-4.8306,-4.8306,-4.8306,-4.8306,-4.8306,-4.8306,-4.8306,-4.8306,-4.8306,-4.8306,-4.8306,-4.8306,-4.8306,-4.8306,-4.8306,-4.8306,-4.8306,-4.8306,-4.8306,-4.8306,-4.8306,-4.7856,-4.7378,-4.6908,-4.6507,-4.5988,-4.5423,-4.5423,-4.5423,-4.5423,-4.5423,-4.5354,-4.5268,-4.5268,-4.5199,-4.5113,-4.5113,-4.5113,-4.5044,-4.4371,-4.413,-4.4095,-4.3456,-4.3214,-4.3197,-4.3093,-4.3059,-4.3059,-4.3059,-4.3059,-4.3076,-4.3197,-4.3214,-4.3214,-4.3214,-4.3064,-4.3066,-4.3613,-4.3141,-4.2485,-4.2284,-4.0751,-3.9408,-3.938,-3.9385,-3.9554,-4.0139,-4.0324,-4.0385,-4.0385,-4.0462,-4.0524,-4.0524,-4.0524,-4.0524,-4.0524,-4.0524,-4.0524,-4.0524,-4.0524,-4.0524,-4.0524,-4.0524,-4.0146,-3.9305,-3.9305,-3.8561,-3.6922,-3.6936,-3.648,-3.571,-3.571,-3.571,-3.571,-3.548,-3.5236,-3.5086,-3.466,-3.4397,-3.4397,-3.4397,-3.4397,-3.4397,-3.4397,-3.4397,-3.4397,-3.4397,-3.4397,-3.4397,-3.4397,-3.4397,-3.4397,-4.8306,-4.8306,-4.8306,-4.8306,-4.8306,-4.8306,-4.8306,-4.8306,-4.8306,-4.8306,-4.8306,-4.8306,-4.8306,-4.8306,-4.8306,-4.8306,-4.8306,-4.8306,-4.8306,-4.8306,-4.8306,-4.8306,-4.8035,-4.7897,-4.7897,-4.7204,-4.6724,-4.6507,-4.6332,-4.5955,-4.5423,-4.5423,-4.5423,-4.5423,-4.5423,-4.5423,-4.5423,-4.5423,-4.5423,-4.5423,-4.5423,-4.5423,-4.5389,-4.5044,-4.4906,-4.4872,-4.4544,-4.444,-4.4371,-4.3923,-4.3785,-4.3785,-4.3785,-4.3785,-4.3871,-4.4302,-4.444,-4.444,-4.444,-4.432,-4.4284,-4.4574,-4.3698,-4.2714,-4.2704,-4.131,-4.0029,-4.0084,-4.0078,-4.017,-4.0478,-4.0524,-4.0524,-4.0524,-4.0524,-4.0524,-4.0524,-4.0524,-4.0524,-4.0524,-4.0524,-4.0524,-4.0524,-4.0524,-4.0524,-4.0524,-4.0524,-4.037,-3.999,-3.999,-3.9247,-3.7587,-3.7587,-3.6986,-3.571,-3.571,-3.571,-3.571,-3.5399,-3.5154,-3.5086,-3.4743,-3.4577,-3.4397,-3.4397,-3.4397,-3.4397,-3.4397,-3.4397,-3.4397,-3.4397,-3.4397,-3.4397,-3.4397,-3.4397,-3.4397]},{"header":{"parameterUnit":"m.s-1","parameterCategory":1,"la1":30.6,"la2":28.766,"lo1":-90.7593,"lo2":-88.6598,"dx":0.0162,"dy":0.0183,"nx":116,"ny":114,"refTime":"2023-02-14T18:00:00:Z","depth":0,"parameterNumber":3,"parameterNumberName":"V-component_of_WINDS"},"data":[0.0,0.0,0.0,0.0,0.0,0.0,0.0,0.0,0.0,0.0,0.0,0.0,0.0,0.0,0.0,0.0,0.0,0.0,0.0,0.0,0.0,0.0,0.0,0.0,0.0,0.0,0.0,0.0,0.0,0.0,0.0,0.0,0.0,0.0,0.0,0.0,0.0,0.0,0.0,0.0,0.0,0.0,0.0,0.0,0.0,0.0,0.0,0.0,0.0,0.0,0.0,0.0,0.0,0.0,0.0,0.0,0.0,0.0,0.0,0.0,0.0,0.0,0.0,0.0,0.0,0.0,0.0,0.0,0.0,0.0,0.0,0.0,0.0,0.0,0.0,0.0,0.0,0.0,0.0,0.0,0.0,0.0,0.0,0.0,0.0,0.0,0.0,0.0,0.0,0.0,0.0,0.0,0.0,0.0,0.0,0.0,0.0,0.0,0.0,0.0,0.0,0.0,0.0,0.0,0.0,0.0,0.0,0.0,0.0,0.0,0.0,0.0,0.0,0.0,0.0,0.0,0.0,0.0,0.0,0.0,0.0,0.0,0.0,0.0,0.0,0.0,0.0,0.0,0.0,0.0,0.0,0.0,0.0,0.0,0.0,0.0,0.0,0.0,0.0,0.0,0.0,0.0,0.0,0.0,0.0,0.0,0.0,0.0,0.0,0.0,0.0,0.0,0.0,0.0,0.0,0.0,0.0,0.0,0.0,0.0,0.0,0.0,0.0,0.0,0.0,0.0,0.0,0.0,0.0,0.0,0.0,0.0,0.0,0.0,0.0,0.0,0.0,0.0,0.0,0.0,0.0,0.0,0.0,0.0,0.0,0.0,0.0,0.0,0.0,0.0,0.0,0.0,0.0,0.0,0.0,0.0,0.0,0.0,0.0,0.0,0.0,0.0,0.0,0.0,0.0,0.0,0.0,0.0,0.0,0.0,0.0,0.0,0.0,0.0,0.0,0.0,0.0,0.0,0.0,0.0,0.0,0.0,0.0,0.0,0.0,0.0,0.0,0.0,0.0,0.0,0.0,0.0,0.0,0.0,0.0,0.0,0.0,0.0,0.0,0.0,0.0,0.0,0.0,0.0,0.0,0.0,0.0,0.0,0.0,0.0,0.0,0.0,0.0,0.0,0.0,0.0,0.0,0.0,0.0,0.0,0.0,0.0,0.0,0.0,0.0,0.0,0.0,0.0,0.0,0.0,0.0,0.0,0.0,0.0,0.0,0.0,0.0,0.0,0.0,0.0,0.0,0.0,0.0,0.0,0.0,0.0,0.0,0.0,0.0,0.0,0.0,0.0,0.0,0.0,0.0,0.0,0.0,0.0,0.0,0.0,0.0,0.0,0.0,0.0,0.0,0.0,0.0,0.0,0.0,0.0,0.0,0.0,0.0,0.0,0.0,0.0,0.0,0.0,0.0,0.0,0.0,0.0,0.0,0.0,0.0,0.0,0.0,0.0,0.0,0.0,0.0,0.0,0.0,0.0,0.0,0.0,0.0,0.0,0.0,0.0,0.0,0.0,0.0,0.0,0.0,0.0,0.0,0.0,0.0,0.0,0.0,0.0,0.0,0.0,0.0,0.0,0.0,0.0,0.0,0.0,0.0,0.0,0.0,0.0,0.0,0.0,0.0,0.0,0.0,0.0,0.0,0.0,0.0,0.0,0.0,0.0,0.0,0.0,0.0,0.0,0.0,0.0,0.0,0.0,0.0,0.0,0.0,0.0,0.0,0.0,0.0,0.0,0.0,0.0,0.0,0.0,0.0,0.0,0.0,0.0,0.0,0.0,0.0,0.0,0.0,0.0,0.0,0.0,0.0,0.0,0.0,0.0,0.0,0.0,0.0,0.0,0.0,0.0,0.0,0.0,0.0,0.0,0.0,0.0,0.0,0.0,0.0,0.0,0.0,0.0,0.0,0.0,0.0,0.0,0.0,0.0,0.0,0.0,0.0,0.0,0.0,0.0,0.0,0.0,0.0,0.0,0.0,0.0,0.0,0.0,0.0,0.0,0.0,0.0,0.0,0.0,0.0,0.0,0.0,0.0,0.0,0.0,0.0,0.0,0.0,0.0,0.0,0.0,0.0,0.0,0.0,0.0,0.0,0.0,0.0,0.0,0.0,0.0,0.0,0.0,0.0,0.0,0.0,0.0,0.0,0.0,0.0,0.0,0.0,0.0,0.0,0.0,0.0,0.0,0.0,0.0,0.0,0.0,0.0,0.0,0.0,0.0,0.0,0.0,0.0,0.0,0.0,0.0,0.0,0.0,0.0,0.0,0.0,0.0,0.0,0.0,0.0,0.0,0.0,0.0,0.0,0.0,0.0,0.0,0.0,0.0,0.0,0.0,0.0,0.0,0.0,0.0,0.0,0.0,0.0,0.0,0.0,0.0,0.0,0.0,0.0,0.0,0.0,0.0,0.0,0.0,0.0,0.0,0.0,0.0,0.0,0.0,0.0,0.0,0.0,0.0,0.0,0.0,0.0,0.0,0.0,0.0,0.0,0.0,0.0,0.0,0.0,0.0,0.0,0.0,0.0,0.0,0.0,0.0,0.0,0.0,0.0,0.0,0.0,0.0,0.0,0.0,0.0,0.0,0.0,0.0,0.0,0.0,0.0,0.0,0.0,0.0,0.0,0.0,0.0,0.0,0.0,0.0,0.0,0.0,0.0,0.0,0.0,0.0,0.0,0.0,0.0,0.0,0.0,0.0,0.0,0.0,0.0,0.0,0.0,0.0,0.0,0.0,0.0,0.0,0.0,0.0,0.0,0.0,0.0,0.0,0.0,0.0,0.0,0.0,0.0,0.0,0.0,0.0,0.0,0.0,0.0,0.0,0.0,0.0,0.0,0.0,0.0,0.0,0.0,0.0,0.0,0.0,0.0,0.0,0.0,0.0,0.0,0.0,0.0,0.0,0.0,0.0,0.0,0.0,0.0,0.0,0.0,0.0,0.0,0.0,0.0,0.0,0.0,0.0,0.0,0.0,0.0,0.0,0.0,0.0,0.0,0.0,0.0,0.0,0.0,0.0,0.0,0.0,0.0,0.0,0.0,0.0,0.0,0.0,0.0,0.0,0.0,0.0,0.0,0.0,0.0,0.0,0.0,0.0,0.0,0.0,0.0,0.0,0.0,0.0,0.0,0.0,0.0,0.0,0.0,0.0,0.0,0.0,0.0,0.0,0.0,0.0,0.0,0.0,0.0,0.0,0.0,0.0,0.0,0.0,0.0,0.0,0.0,0.0,0.0,0.0,0.0,0.0,0.0,0.0,0.0,0.0,0.0,0.0,0.0,0.0,0.0,0.0,0.0,0.0,0.0,0.0,0.0,0.0,0.0,0.0,0.0,0.0,0.0,0.0,0.0,0.0,0.0,0.0,0.0,0.0,0.0,0.0,0.0,0.0,0.0,0.0,0.0,0.0,0.0,0.0,0.0,0.0,0.0,0.0,0.0,0.0,0.0,0.0,0.0,0.0,0.0,0.0,0.0,0.0,0.0,0.0,0.0,0.0,0.0,0.0,0.0,0.0,0.0,0.0,0.0,0.0,0.0,0.0,0.0,0.0,0.0,0.0,0.0,0.0,0.0,0.0,0.0,0.0,0.0,0.0,0.0,0.0,0.0,0.0,0.0,0.0,0.0,0.0,0.0,0.0,0.0,0.0,0.0,0.0,0.0,0.0,0.0,0.0,0.0,0.0,0.0,0.0,0.0,0.0,0.0,0.0,0.0,0.0,0.0,0.0,0.0,0.0,0.0,0.0,0.0,0.0,0.0,0.0,0.0,0.0,0.0,0.0,0.0,0.0,0.0,0.0,0.0,0.0,0.0,0.0,0.0,0.0,0.0,0.0,0.0,0.0,0.0,0.0,0.0,0.0,0.0,0.0,0.0,0.0,0.0,0.0,0.0,0.0,0.0,0.0,0.0,0.0,0.0,0.0,0.0,0.0,0.0,0.0,0.0,0.0,0.0,0.0,0.0,0.0,0.0,0.0,0.0,0.0,0.0,0.0,0.0,0.0,0.0,0.0,0.0,0.0,0.0,0.0,0.0,0.0,0.0,0.0,0.0,0.0,0.0,0.0,0.0,0.0,0.0,0.0,0.0,0.0,0.0,0.0,0.0,0.0,0.0,0.0,0.0,0.0,0.0,0.0,0.0,0.0,0.0,0.0,0.0,0.0,0.0,0.0,0.0,0.0,0.0,0.0,0.0,0.0,0.0,0.0,0.0,0.0,0.0,0.0,0.0,0.0,0.0,0.0,0.0,0.0,0.0,0.0,0.0,0.0,0.0,0.0,0.0,0.0,0.0,0.0,0.0,0.0,0.0,0.0,0.0,0.0,0.0,0.0,0.0,0.0,0.0,0.0,0.0,0.0,0.0,0.0,0.0,0.0,0.0,0.0,0.0,0.0,0.0,0.0,0.0,0.0,0.0,0.0,0.0,0.0,0.0,0.0,0.0,0.0,0.0,0.0,0.0,0.0,0.0,0.0,0.0,0.0,0.0,0.0,0.0,0.0,0.0,0.0,0.0,0.0,0.0,0.0,0.0,0.0,0.0,0.0,0.0,0.0,0.0,0.0,0.0,0.0,0.0,0.0,0.0,0.0,0.0,0.0,0.0,0.0,0.0,0.0,0.0,0.0,0.0,0.0,0.0,0.0,0.0,0.0,0.0,0.0,0.0,0.0,0.0,0.0,0.0,0.0,0.0,0.0,0.0,0.0,0.0,0.0,0.0,0.0,0.0,0.0,0.0,0.0,0.0,0.0,0.0,0.0,0.0,0.0,0.0,0.0,0.0,0.0,0.0,0.0,0.0,0.0,0.0,0.0,0.0,0.0,0.0,0.0,0.0,0.0,0.0,0.0,0.0,0.0,0.0,0.0,0.0,0.0,0.0,0.0,0.0,0.0,0.0,0.0,0.0,0.0,0.0,0.0,0.0,0.0,0.0,0.0,0.0,0.0,0.0,0.0,0.0,0.0,0.0,0.0,0.0,0.0,0.0,0.0,0.0,0.0,0.0,0.0,0.0,0.0,0.0,0.0,0.0,0.0,0.0,0.0,0.0,0.0,0.0,0.0,0.0,0.0,0.0,0.0,0.0,0.0,0.0,0.0,0.0,0.0,0.0,0.0,0.0,0.0,0.0,0.0,0.0,0.0,0.0,0.0,0.0,0.0,0.0,0.0,0.0,0.0,0.0,0.0,0.0,0.0,0.0,0.0,0.0,0.0,0.0,0.0,0.0,0.0,0.0,0.0,0.0,0.0,0.0,0.0,0.0,0.0,0.0,0.0,0.0,0.0,0.0,0.0,0.0,0.0,0.0,0.0,0.0,0.0,0.0,0.0,0.0,0.0,0.0,0.0,0.0,0.0,0.0,0.0,0.0,0.0,0.0,0.0,0.0,0.0,0.0,0.0,0.0,0.0,0.0,0.0,0.0,0.0,0.0,0.0,0.0,0.0,0.0,0.0,0.0,0.0,0.0,0.0,0.0,0.0,0.0,0.0,0.0,0.0,0.0,0.0,0.0,0.0,0.0,0.0,0.0,0.0,0.0,0.0,0.0,0.0,0.0,0.0,0.0,0.0,0.0,0.0,0.0,0.0,0.0,0.0,0.0,0.0,0.0,0.0,0.0,0.0,0.0,0.0,0.0,0.0,0.0,0.0,0.0,0.0,0.0,0.0,0.0,0.0,0.0,0.0,0.0,0.0,0.0,0.0,0.0,0.0,0.0,0.0,0.0,0.0,0.0,0.0,0.0,0.0,0.0,0.0,0.0,0.0,0.0,0.0,0.0,0.0,0.0,0.0,0.0,0.0,0.0,0.0,0.0,0.0,0.0,0.0,0.0,0.0,0.0,0.0,0.0,0.0,0.0,0.0,0.0,0.0,0.0,0.0,0.0,0.0,0.0,0.0,0.0,0.0,0.0,0.0,0.0,0.0,0.0,0.0,0.0,0.0,0.0,0.0,0.0,0.0,0.0,0.0,0.0,0.0,0.0,0.0,0.0,0.0,0.0,0.0,0.0,0.0,0.0,0.0,0.0,0.0,0.0,0.0,0.0,0.0,0.0,0.0,0.0,0.0,0.0,0.0,0.0,0.0,0.0,0.0,0.0,0.0,0.0,0.0,0.0,0.0,-2.5616,0.0,0.0,0.0,0.0,0.0,0.0,0.0,0.0,0.0,0.0,0.0,0.0,0.0,0.0,0.0,0.0,0.0,0.0,0.0,0.0,0.0,0.0,0.0,0.0,0.0,0.0,0.0,0.0,0.0,0.0,0.0,0.0,0.0,0.0,0.0,0.0,0.0,0.0,0.0,0.0,0.0,0.0,0.0,0.0,0.0,0.0,0.0,0.0,0.0,0.0,0.0,0.0,0.0,0.0,0.0,0.0,0.0,0.0,0.0,0.0,0.0,0.0,0.0,0.0,0.0,0.0,0.0,0.0,0.0,0.0,0.0,0.0,0.0,0.0,0.0,0.0,0.0,0.0,0.0,0.0,0.0,0.0,0.0,0.0,0.0,0.0,0.0,0.0,0.0,0.0,0.0,0.0,0.0,0.0,0.0,0.0,0.0,0.0,0.0,0.0,0.0,0.0,0.0,0.0,0.0,0.0,0.0,0.0,0.0,0.0,0.0,0.0,0.0,0.0,0.0,0.0,-2.5616,0.0,0.0,0.0,0.0,0.0,0.0,0.0,0.0,0.0,0.0,0.0,0.0,0.0,0.0,0.0,0.0,0.0,0.0,0.0,0.0,0.0,0.0,0.0,0.0,0.0,0.0,0.0,0.0,0.0,0.0,0.0,0.0,0.0,0.0,0.0,0.0,0.0,0.0,0.0,0.0,0.0,0.0,0.0,0.0,0.0,0.0,0.0,0.0,0.0,0.0,0.0,0.0,0.0,0.0,0.0,0.0,0.0,0.0,0.0,0.0,0.0,0.0,0.0,0.0,0.0,0.0,0.0,0.0,0.0,0.0,0.0,0.0,0.0,0.0,0.0,0.0,0.0,0.0,0.0,0.0,0.0,0.0,0.0,0.0,0.0,0.0,0.0,0.0,0.0,0.0,0.0,0.0,0.0,0.0,0.0,0.0,0.0,0.0,0.0,0.0,0.0,0.0,0.0,0.0,0.0,0.0,0.0,0.0,0.0,-2.6949,-2.7883,-2.7446,-2.7559,-2.8012,-2.6733,-2.6085,-2.5988,0.0,0.0,0.0,0.0,0.0,0.0,0.0,0.0,0.0,0.0,0.0,0.0,0.0,0.0,0.0,0.0,0.0,0.0,0.0,0.0,0.0,0.0,0.0,0.0,0.0,0.0,0.0,0.0,0.0,0.0,0.0,0.0,0.0,0.0,0.0,0.0,0.0,0.0,0.0,-1.6401,-1.721,-1.7612,-1.7817,-1.6472,0.0,0.0,0.0,0.0,0.0,0.0,0.0,0.0,0.0,0.0,0.0,0.0,0.0,0.0,0.0,0.0,0.0,0.0,0.0,0.0,0.0,0.0,0.0,0.0,0.0,0.0,0.0,0.0,0.0,0.0,0.0,0.0,0.0,0.0,0.0,0.0,0.0,0.0,0.0,0.0,0.0,0.0,0.0,-2.2325,-2.2982,0.0,0.0,0.0,0.0,0.0,0.0,0.0,0.0,0.0,0.0,0.0,0.0,0.0,0.0,-2.4582,-2.5058,-2.5861,-2.6902,-2.7929,-2.8505,-2.866,-2.9211,-2.9545,-2.9578,-2.8725,0.0,-2.7429,-2.7429,0.0,0.0,0.0,0.0,0.0,0.0,0.0,0.0,0.0,0.0,0.0,0.0,0.0,0.0,0.0,0.0,0.0,0.0,0.0,0.0,0.0,0.0,0.0,0.0,0.0,0.0,0.0,0.0,0.0,0.0,0.0,0.0,0.0,0.0,0.0,0.0,-1.5457,-1.6001,-1.655,-1.6952,-1.7033,-1.6935,-1.6869,-1.7125,-1.7744,-1.8443,0.0,0.0,0.0,0.0,0.0,0.0,0.0,0.0,0.0,0.0,0.0,0.0,0.0,0.0,0.0,0.0,0.0,0.0,0.0,0.0,0.0,0.0,0.0,0.0,0.0,0.0,0.0,0.0,0.0,0.0,0.0,0.0,0.0,0.0,0.0,0.0,0.0,0.0,0.0,-2.258,-2.332,-2.3836,-2.4077,-2.4152,0.0,0.0,0.0,0.0,0.0,0.0,0.0,0.0,0.0,-2.5342,-2.5153,-2.5513,-2.6561,-2.6767,-2.7024,-2.7358,-2.7946,-2.8385,-2.8806,-2.9113,-2.9529,-2.9902,-2.9578,-2.9211,-2.8854,-2.8045,-2.7705,-2.7705,0.0,0.0,0.0,0.0,0.0,-2.785,0.0,0.0,0.0,0.0,0.0,0.0,0.0,0.0,0.0,0.0,0.0,0.0,0.0,0.0,0.0,-1.2077,0.0,0.0,0.0,0.0,0.0,0.0,0.0,0.0,0.0,0.0,0.0,0.0,-1.5347,-1.5499,-1.5982,-1.6221,-1.6221,-1.6221,-1.7277,-1.8006,-1.8487,-1.9054,-1.9618,0.0,0.0,0.0,0.0,0.0,0.0,0.0,0.0,0.0,0.0,0.0,0.0,0.0,0.0,0.0,0.0,0.0,0.0,0.0,0.0,0.0,0.0,0.0,0.0,0.0,0.0,0.0,0.0,0.0,0.0,0.0,0.0,0.0,0.0,0.0,0.0,0.0,0.0,-2.315,-2.3797,-2.435,-2.4373,-2.4347,0.0,0.0,0.0,0.0,0.0,0.0,-2.4149,-2.4226,-2.4863,-2.6176,-2.6221,-2.6665,-2.7519,-2.7671,-2.768,-2.7656,-2.8297,-2.8893,-2.9424,-2.9927,-3.0441,-3.0989,-3.0765,-3.0729,-3.0616,-2.8935,-2.8255,-2.8255,-2.8255,-2.8255,0.0,-2.8255,-2.8297,-2.8445,0.0,0.0,0.0,0.0,0.0,0.0,0.0,0.0,0.0,0.0,0.0,0.0,0.0,0.0,-1.126,-1.1706,-1.1706,-1.2003,0.0,0.0,0.0,0.0,0.0,0.0,0.0,0.0,0.0,-1.509,-1.509,-1.4999,-1.4817,-1.5628,-1.6131,-1.6386,-1.7342,-1.718,-1.6378,-1.8407,-1.9213,-1.9204,0.0,0.0,0.0,0.0,0.0,0.0,0.0,0.0,0.0,0.0,0.0,0.0,0.0,0.0,0.0,0.0,0.0,0.0,0.0,0.0,0.0,0.0,0.0,0.0,0.0,0.0,0.0,0.0,0.0,0.0,0.0,0.0,0.0,0.0,0.0,0.0,0.0,0.0,0.0,-2.3517,-2.3793,0.0,0.0,0.0,0.0,-2.5277,-2.5394,-2.5445,-2.5524,-2.564,-2.5444,-2.4892,-2.4956,-2.5311,-2.5929,-2.6396,-2.6988,-2.7525,-2.9918,-3.1019,-3.1163,-3.2997,-3.3841,-3.3841,-3.321,-3.2935,-3.2773,-3.068,-2.9805,-2.9805,-2.9805,-2.9805,-2.9805,-2.9805,-2.9919,-3.0091,0.0,0.0,0.0,0.0,0.0,0.0,0.0,0.0,0.0,0.0,0.0,0.0,0.0,-1.0443,-1.0513,-1.0887,-1.1186,-1.1632,-1.2452,0.0,0.0,0.0,0.0,0.0,0.0,0.0,-1.4999,-1.4824,-1.4824,-1.4992,-1.5318,-1.5517,-1.5493,-1.5486,-1.6517,-1.6437,-1.5759,-1.8223,-1.9292,-1.9292,-2.0245,-2.0566,0.0,0.0,0.0,0.0,0.0,0.0,0.0,0.0,0.0,0.0,0.0,0.0,0.0,0.0,0.0,0.0,0.0,0.0,0.0,0.0,0.0,0.0,0.0,0.0,0.0,0.0,0.0,0.0,0.0,0.0,0.0,0.0,0.0,0.0,0.0,0.0,0.0,-2.4244,-2.4716,0.0,0.0,-2.5193,-2.5344,-2.5494,-2.525,-2.5243,-2.5713,-2.5778,-2.6243,-2.7187,-2.7698,-2.8181,-2.8671,-2.9331,-2.9489,-2.924,-3.0125,-3.0779,-3.1176,-3.1865,-3.2367,-3.274,-3.2498,-3.2384,-3.2336,-3.1558,-3.1251,-3.1251,-3.1251,-3.1251,-3.1251,-3.1251,-3.1326,-3.1487,0.0,0.0,0.0,0.0,0.0,0.0,0.0,0.0,0.0,0.0,0.0,-1.0443,-1.0218,-0.9992,-1.0143,-1.0738,-1.0962,-1.1521,-1.252,0.0,0.0,0.0,0.0,0.0,0.0,-1.4999,-1.4775,-1.4497,-1.4497,-1.4613,-1.4835,-1.4933,-1.475,-1.4511,-1.552,-1.5614,-1.5098,-1.7439,-1.8565,-1.8895,-2.0089,-2.0401,-2.0167,0.0,0.0,0.0,0.0,0.0,0.0,0.0,0.0,0.0,0.0,0.0,0.0,0.0,0.0,0.0,0.0,0.0,0.0,0.0,0.0,0.0,0.0,0.0,0.0,0.0,0.0,0.0,0.0,0.0,0.0,0.0,0.0,0.0,0.0,0.0,-2.5141,-2.5236,-2.5712,-2.6044,-2.6088,-2.6035,-2.6096,-2.6312,-2.6191,-2.6315,-2.6736,-2.6968,-2.7574,-2.8619,-2.908,-2.952,-3.0075,-3.0319,-3.0357,-3.0253,-3.0499,-3.0918,-3.1523,-3.1911,-3.2335,-3.2708,-3.2708,-3.2708,-3.2708,-3.2708,-3.2708,-3.2659,-3.219,-3.2012,-3.2012,-3.2012,-3.2089,-3.221,0.0,0.0,0.0,0.0,0.0,0.0,0.0,0.0,0.0,0.0,0.0,-0.9992,-1.0143,-1.0067,-1.0368,-1.1335,-1.126,-1.1677,-1.303,-1.3331,0.0,0.0,0.0,0.0,-1.509,-1.4817,-1.4497,-1.4035,-1.3947,-1.3722,-1.3227,-1.3959,-1.3952,-1.3509,-1.4287,-1.4535,-1.4316,-1.5904,-1.7002,-1.7836,-1.9825,-2.0079,-1.946,0.0,0.0,0.0,0.0,0.0,0.0,0.0,0.0,0.0,0.0,0.0,0.0,0.0,0.0,0.0,0.0,0.0,0.0,0.0,0.0,0.0,0.0,0.0,0.0,0.0,0.0,0.0,0.0,0.0,0.0,0.0,0.0,0.0,-2.3986,-2.4873,-2.5877,-2.6404,-2.665,-2.7002,-2.7475,-2.7147,-2.7099,-2.7683,-2.8347,-2.8681,-2.8681,-2.9261,-2.9305,-2.8695,-2.8695,-2.9031,-2.9619,-2.9046,-2.9307,-3.0397,-3.1059,-3.17,-3.2317,-3.3476,-3.405,-3.4101,-3.4101,-3.4101,-3.4101,-3.4101,-3.4101,-3.3955,-3.2611,-3.2077,-3.2077,-3.2077,-3.2154,-3.2262,0.0,0.0,0.0,0.0,0.0,0.0,0.0,0.0,0.0,0.0,-1.0293,-1.0443,-0.9992,-1.0812,-1.1335,-1.1186,-1.1706,-1.2201,-1.2802,0.0,0.0,0.0,0.0,0.0,-1.509,-1.4524,-1.4117,-1.4035,-1.3581,-1.3474,-1.352,-1.3539,-1.3552,-1.3595,-1.3837,-1.4394,-1.5257,-1.625,-1.6999,-1.7603,-1.9391,-2.0053,-2.0098,0.0,0.0,0.0,0.0,0.0,0.0,0.0,0.0,0.0,0.0,0.0,0.0,0.0,0.0,0.0,0.0,0.0,0.0,0.0,0.0,0.0,0.0,0.0,0.0,0.0,0.0,0.0,0.0,0.0,0.0,0.0,0.0,-2.7343,-2.6572,-2.6856,-2.7151,-2.7339,-2.7422,-2.7708,-2.8306,-2.826,-2.8419,-2.9058,-2.884,-2.8681,-2.8681,-2.884,-2.8855,-2.8695,-2.9116,-2.942,-2.9578,-2.9944,-3.0207,-3.0541,-3.0718,-3.1153,-3.1718,-3.2053,-3.268,-3.3475,-3.3475,-3.3697,-3.4101,-3.4101,-3.4101,-3.4052,-3.368,-3.3518,-3.3518,-3.3518,-3.334,-3.3121,0.0,0.0,0.0,0.0,0.0,0.0,0.0,0.0,0.0,0.0,-1.0218,-1.0443,-1.0513,-1.1186,-1.1632,-1.1706,-1.2077,-1.2553,-1.3054,0.0,0.0,0.0,0.0,-1.4935,-1.4896,-1.4377,-1.4054,-1.3929,-1.3598,-1.3525,-1.3528,-1.375,-1.3684,-1.346,-1.3769,-1.4395,-1.5339,-1.6014,-1.6566,-1.6978,-1.8421,-1.9212,-1.9618,-1.9953,-2.0245,-2.0566,-2.0566,-2.0566,-2.0566,-2.0566,0.0,0.0,0.0,0.0,0.0,0.0,0.0,0.0,0.0,0.0,0.0,0.0,0.0,0.0,0.0,0.0,0.0,0.0,0.0,0.0,0.0,0.0,0.0,0.0,-2.663,-2.7695,-2.788,-2.8235,-2.8419,-2.8158,-2.8306,-2.8553,-2.8986,-2.8712,-2.8655,-2.8958,-2.9016,-2.9015,-2.9015,-2.9319,-2.9479,-2.9479,-2.9827,-3.0134,-3.0411,-3.0498,-3.0851,-3.1364,-3.1087,-3.1306,-3.1879,-3.213,-3.2555,0.0,-3.3475,-3.3764,-3.4101,-3.4101,-3.4101,0.0,0.0,0.0,0.0,0.0,-3.3974,-3.3858,0.0,0.0,0.0,0.0,0.0,0.0,0.0,0.0,0.0,0.0,0.0,-1.0443,0.0,0.0,0.0,0.0,0.0,-1.2627,0.0,0.0,0.0,-1.509,-1.488,-1.4641,-1.4617,-1.4377,-1.4055,-1.3817,-1.3782,-1.3646,-1.355,-1.433,-1.4202,-1.3307,-1.398,-1.4531,-1.4937,-1.5567,-1.5936,-1.625,-1.711,-1.7859,-1.8493,-1.9012,-1.9737,-2.0489,-2.0566,-2.0566,-2.0566,-2.0566,0.0,0.0,0.0,0.0,0.0,0.0,0.0,0.0,0.0,0.0,0.0,0.0,0.0,0.0,0.0,0.0,0.0,0.0,0.0,0.0,0.0,0.0,0.0,0.0,-2.6062,-2.7018,-2.8182,-2.903,-2.9305,-2.8798,-2.9045,-2.9304,-2.9376,-2.8698,-2.834,-2.8411,-2.9116,-2.9491,-2.955,0.0,0.0,0.0,0.0,-3.0866,-3.1364,-3.0866,-3.1146,-3.2176,-3.1652,-3.1652,-3.2216,-3.2664,-3.2917,-3.3039,-3.3662,-3.3933,-3.3984,-3.4101,-3.4101,-3.4101,-3.4101,-3.4101,-3.4101,-3.4101,-3.425,0.0,0.0,0.0,0.0,0.0,0.0,0.0,0.0,0.0,0.0,0.0,0.0,0.0,0.0,0.0,0.0,0.0,0.0,-1.2627,0.0,0.0,-1.4735,-1.5075,-1.4757,-1.4674,-1.486,-1.3952,-1.3628,-1.3817,-1.3572,-1.3478,-1.3554,-1.4114,-1.4246,-1.3915,-1.4227,-1.4785,-1.5494,-1.5313,-1.5747,-1.6493,-1.5846,-1.6252,-1.7363,-1.8461,-1.9173,-1.9618,-2.0333,-2.0566,-2.0566,-2.0566,-2.0566,-2.0566,-2.0566,0.0,0.0,0.0,0.0,0.0,0.0,0.0,0.0,0.0,0.0,0.0,0.0,0.0,0.0,0.0,0.0,0.0,0.0,0.0,0.0,-2.5717,-2.6488,-2.7323,-2.8028,-2.8725,-2.9125,-2.9026,-2.8669,-2.8641,-2.9083,-2.9026,-2.9228,-2.9863,-3.0067,-3.0199,-3.0393,-3.051,0.0,-3.0568,-3.0568,-3.0628,-3.0747,-3.0628,-3.0687,-3.0984,0.0,0.0,-3.097,-3.1073,-3.1349,-3.1864,-3.2492,-3.2964,-3.3407,-3.3882,-3.4101,-3.4101,-3.4101,-3.4101,-3.4101,-3.4201,-3.43,-3.4349,0.0,0.0,0.0,0.0,0.0,0.0,0.0,0.0,0.0,0.0,0.0,0.0,0.0,0.0,0.0,0.0,-1.281,0.0,0.0,-1.4266,-1.4681,-1.501,-1.5018,-1.4873,-1.4714,-1.4151,-1.398,-1.4145,-1.3987,-1.3994,-1.4186,-1.4427,-1.4351,-1.4088,-1.4243,-1.4734,-1.5538,-1.5383,-1.5448,-1.573,-1.5257,-1.5148,-1.5544,-1.7355,-1.8643,-1.9725,-2.0333,-2.0566,-2.0566,-2.0566,-2.0566,-2.0566,-2.0566,-2.0566,-2.0478,0.0,0.0,0.0,0.0,0.0,0.0,0.0,0.0,0.0,0.0,0.0,0.0,0.0,0.0,-2.3532,0.0,0.0,-2.5128,-2.5709,-2.6531,-2.7183,-2.7449,-2.8333,-2.8984,-2.9109,-2.9007,-2.9135,-2.9448,-2.9369,-2.9497,-2.9946,-3.0007,-3.0068,-3.019,-3.028,-3.0401,-3.0447,-3.0447,-3.0507,-3.0568,-3.0568,-3.0568,-3.0568,-3.0568,-3.0568,-3.0628,-3.0911,-3.1204,-3.1537,-3.216,-3.2695,-3.3251,-3.3866,-3.4101,-3.4101,-3.4101,-3.4101,-3.4101,-3.425,-3.4349,-3.4448,0.0,0.0,0.0,0.0,0.0,0.0,0.0,0.0,0.0,0.0,0.0,0.0,0.0,0.0,0.0,0.0,0.0,0.0,0.0,-1.4288,-1.4714,-1.486,-1.5196,-1.5065,-1.4479,-1.4406,-1.4406,-1.4387,-1.4465,-1.4547,-1.4734,-1.4817,-1.458,-1.4166,-1.4166,-1.4573,-1.5151,-1.5151,-1.4964,-1.464,-1.471,-1.4392,-1.4137,-1.6231,-1.805,-1.9507,-2.0323,-2.0566,-2.0566,-2.0566,-2.0566,-2.0566,-2.0566,-2.0508,-2.0352,-1.9922,-1.9727,0.0,0.0,0.0,0.0,0.0,0.0,0.0,0.0,0.0,-2.3773,-2.3773,-2.3845,-2.4037,-2.4446,-2.4667,-2.4964,-2.5498,-2.614,-2.6583,-2.6908,-2.789,-2.8783,-2.9146,-2.9525,-2.9761,-2.9761,-2.9651,-2.9602,-2.9665,-2.9761,-2.9822,-2.9884,-3.0036,-3.0158,-3.0266,-3.0312,-3.0447,-3.0507,-3.0568,-3.0568,-3.0568,-3.0568,-3.0568,-3.0642,-3.1087,-3.1321,-3.1379,-3.2242,-3.2897,-3.3472,-3.4237,-3.4522,-3.4522,-3.4522,-3.4522,-3.4505,-3.4314,-3.4349,-3.4497,0.0,0.0,0.0,0.0,0.0,0.0,0.0,0.0,0.0,0.0,0.0,0.0,0.0,0.0,0.0,0.0,0.0,0.0,-1.3651,-1.4241,-1.4648,-1.4933,-1.4977,-1.4831,-1.4479,-1.4187,-1.4096,-1.4137,-1.4387,-1.4547,-1.4734,-1.5166,-1.4999,-1.4398,-1.4566,-1.4496,-1.425,-1.425,-1.4074,-1.3696,-1.348,-1.3733,-1.4328,-1.5926,-1.7039,-1.8029,-1.9927,-2.0566,-2.0566,-2.0566,-2.0566,-2.0566,-2.0566,-2.0303,-1.9902,-1.9482,0.0,-1.8691,-1.8271,-1.9468,-2.1174,-2.224,-2.3152,-2.3676,0.0,0.0,-2.3773,-2.3773,-2.4121,-2.4458,-2.4506,-2.4518,-2.4743,-2.5284,-2.5026,-2.5413,-2.7168,-2.7578,-2.8115,-2.9366,-2.956,-2.9602,-2.9602,-2.9602,-2.9665,-2.9761,-2.9808,-2.9884,-3.005,-3.0205,-3.0219,-3.0111,-3.0401,-3.0507,-3.0326,-3.0507,-3.0568,-3.0568,-3.0568,-3.0568,-3.0568,-3.0687,-3.0687,-3.0776,-3.2528,-3.3652,-3.4279,-3.5556,-3.606,-3.606,-3.606,-3.606,-3.5898,-3.4586,-3.4201,-3.4349,0.0,0.0,0.0,0.0,0.0,0.0,0.0,0.0,0.0,0.0,0.0,0.0,0.0,0.0,0.0,0.0,0.0,0.0,-1.3541,-1.4179,-1.4531,-1.4662,-1.5028,-1.5072,-1.475,-1.4428,-1.4333,-1.4301,-1.4275,-1.4352,-1.4639,-1.481,-1.4821,-1.4566,-1.465,-1.4573,-1.4223,-1.4137,-1.3837,-1.3601,-1.3362,-1.3502,-1.4091,-1.5502,-1.6621,-1.7787,-1.9849,-2.0566,0.0,0.0,-2.0566,-2.0566,-2.0566,-2.0439,-2.0215,-1.9775,-1.9521,0.0,-1.9885,-2.0657,-2.155,0.0,-2.3776,-2.4133,-2.3833,-2.423,-2.4578,-2.4266,-2.4374,-2.4614,-2.4927,-2.4723,-2.4699,0.0,-2.5469,-2.5878,-2.6718,-2.7217,-2.7868,-2.8839,-2.898,-2.9121,-2.954,-2.9602,-2.9602,-2.9651,-2.9713,-2.9713,-2.9789,-2.996,-3.0021,-3.0111,-3.0326,-3.0447,-3.0447,-3.0568,-3.0568,-3.0568,-3.0568,-3.0756,-3.1119,-3.1119,-3.1337,-3.1776,-3.2901,-3.3543,-3.3867,-3.5165,-3.5696,-3.5751,-3.6126,-3.6303,-3.6222,-3.5643,-3.5451,-3.5554,0.0,0.0,0.0,0.0,0.0,0.0,0.0,0.0,0.0,0.0,0.0,0.0,0.0,0.0,0.0,0.0,0.0,0.0,0.0,-1.4026,-1.4377,-1.4465,-1.4999,-1.5189,-1.4948,-1.4721,-1.4553,-1.4472,-1.4231,-1.4277,-1.4568,-1.4568,-1.4522,-1.4564,-1.4564,-1.4399,-1.4214,-1.4001,-1.383,-1.3642,-1.3507,-1.3614,-1.3981,-1.5289,-1.6489,-1.7709,-1.9537,-2.0411,0.0,0.0,-2.0566,-2.0566,-2.0566,-2.0478,-2.0322,-2.001,-1.9746,-1.9826,-2.1026,0.0,0.0,-2.3276,-2.401,-2.4254,-2.4025,-2.4554,-2.4987,-2.4602,-2.4638,-2.4807,-2.5047,-2.4891,-2.4867,-2.5252,-2.5721,-2.6139,-2.6346,-2.7015,-2.7736,-2.8441,-2.8698,-2.898,-2.954,-2.9602,-2.9602,-2.9602,-2.9602,-2.9602,-2.9651,-2.9837,-2.996,-3.0111,-3.0266,-3.0447,-3.0507,-3.0742,-3.0843,-3.0843,-3.1032,-3.1351,-3.1801,-3.1801,-3.2063,-3.2527,-3.3324,-3.3694,-3.377,-3.5097,-3.5582,-3.5655,-3.6342,-3.658,-3.6635,-3.6891,-3.6739,-3.645,0.0,0.0,0.0,0.0,0.0,0.0,0.0,0.0,0.0,0.0,0.0,0.0,0.0,0.0,0.0,0.0,0.0,0.0,0.0,-1.3814,-1.4136,-1.4457,-1.4779,-1.4867,-1.486,-1.4852,-1.4779,-1.4472,-1.4457,-1.4465,-1.4479,-1.4479,-1.4401,-1.4088,-1.4088,-1.4002,-1.3845,-1.3838,-1.3831,-1.3831,-1.381,-1.3817,-1.4016,-1.5393,-1.6458,-1.7388,-1.8822,0.0,0.0,0.0,-2.0566,-2.0566,-2.0566,-2.0273,0.0,-1.9922,-1.9326,0.0,0.0,0.0,-2.1329,-2.2982,-2.3591,-2.3917,-2.4398,-2.4518,-2.4542,-2.4518,-2.4927,-2.5131,-2.4638,-2.4951,-2.5288,-2.5312,-2.5312,-2.5581,-2.6277,-2.7015,-2.7749,-2.8417,-2.9135,-2.9602,0.0,-2.9602,-2.9602,-2.9602,-2.9602,-2.9651,-2.9808,-2.9974,-3.0111,-3.0111,-3.0401,-3.0507,-3.0312,-3.1054,-3.1482,-3.1496,-3.215,-3.2469,-3.2483,-3.2483,-3.2498,-3.2542,-3.3847,-3.4337,-3.4445,-3.5798,-3.6384,-3.6446,-3.7084,-3.7354,-3.7472,-3.8084,-3.7507,-3.6397,0.0,0.0,0.0,0.0,0.0,0.0,0.0,0.0,0.0,0.0,0.0,0.0,0.0,0.0,0.0,0.0,0.0,0.0,0.0,-1.3799,-1.4128,-1.4457,-1.4772,-1.4961,-1.5262,-1.4969,-1.4889,-1.4787,-1.4575,-1.4575,-1.4787,-1.4787,-1.4816,-1.4938,-1.4938,-1.4849,-1.4671,-1.4458,-1.4292,-1.4111,-1.4066,-1.4187,-1.446,-1.5651,-1.6787,-1.7897,0.0,0.0,0.0,0.0,0.0,0.0,-2.0566,0.0,0.0,-2.0,0.0,0.0,0.0,0.0,-2.2343,-2.379,-2.4181,-2.4314,-2.4482,-2.4795,-2.4939,-2.459,-2.4939,-2.5252,-2.5071,-2.5192,-2.5312,-2.5312,-2.5312,-2.5594,-2.6277,-2.662,-2.7204,-2.8376,-2.8712,0.0,0.0,0.0,0.0,-2.9602,-2.9602,-2.9602,-2.9651,-2.9927,-3.0111,-3.0111,-3.0805,-3.113,-3.1069,-3.1797,-3.2179,-3.2193,-3.2832,-3.3151,-3.3166,-3.3587,-3.3775,-3.3775,-3.423,-3.4383,-3.4464,-3.5359,-3.577,-3.5834,-3.6966,-3.7417,-3.7476,-3.8148,-3.8084,-3.7734,0.0,0.0,0.0,0.0,0.0,0.0,0.0,0.0,0.0,0.0,0.0,0.0,0.0,0.0,0.0,0.0,0.0,0.0,0.0,0.0,-1.3953,-1.4282,-1.4604,-1.4926,-1.5248,-1.5167,-1.5057,-1.486,-1.4735,-1.4684,-1.4772,-1.4772,-1.4889,-1.5087,-1.5087,-1.5005,-1.4902,-1.4699,-1.4525,-1.4438,-1.4734,-1.5053,-1.5328,-1.6389,-1.7544,0.0,0.0,0.0,0.0,0.0,0.0,0.0,0.0,0.0,0.0,0.0,0.0,0.0,0.0,-2.1326,-2.1935,-2.3475,-2.3822,-2.3937,-2.4414,-2.4783,-2.4987,-2.4831,-2.5071,-2.5312,-2.5312,-2.5312,-2.5312,-2.5312,-2.5312,-2.5441,-2.5931,-2.6208,-2.6744,-2.7657,-2.8168,-2.8698,0.0,0.0,0.0,-2.9602,-2.9602,-2.9602,-2.9651,-2.9913,-3.0225,-3.044,-3.1075,-3.1517,-3.1748,-3.2399,-3.2898,-3.3195,-3.3616,-3.3804,-3.3819,-3.4225,-3.4414,-3.4414,-3.4414,-3.4414,-3.4414,-3.4839,-3.5023,-3.5154,-3.6523,-3.7027,-3.7147,-3.8091,-3.8391,-3.8391,0.0,0.0,0.0,0.0,0.0,0.0,0.0,0.0,0.0,0.0,0.0,0.0,0.0,0.0,0.0,0.0,0.0,0.0,0.0,0.0,0.0,-1.3967,-1.4275,-1.4596,-1.4852,-1.5248,-1.5262,-1.497,-1.497,-1.4816,-1.4516,-1.4516,-1.4516,-1.4516,-1.4516,-1.4516,-1.4516,-1.4516,-1.4516,-1.4616,-1.5684,-1.6198,-1.6389,-1.754,0.0,0.0,0.0,0.0,0.0,0.0,0.0,0.0,0.0,0.0,0.0,0.0,0.0,-1.8932,-2.0113,-2.0128,-2.0255,-2.2264,-2.2673,-2.2948,-2.4229,-2.4554,-2.4699,-2.5204,-2.5312,-2.5312,0.0,0.0,-2.5312,-2.5312,-2.5312,-2.5312,-2.5312,-2.5931,-2.6414,0.0,0.0,0.0,0.0,0.0,0.0,-2.9602,0.0,-2.9665,-2.9803,-3.0017,-3.0378,-3.1019,-3.1252,-3.1694,-3.2234,-3.2918,-3.3671,-3.4414,-3.4414,-3.4414,-3.4414,-3.4414,-3.4414,-3.4414,-3.4414,-3.4414,-3.4414,-3.4414,-3.4414,-3.4534,-3.5834,-3.6384,-3.6569,-3.7902,-3.8391,-3.8391,0.0,0.0,0.0,0.0,0.0,0.0,0.0,0.0,0.0,0.0,0.0,0.0,0.0,0.0,0.0,0.0,0.0,0.0,0.0,0.0,0.0,0.0,0.0,0.0,0.0,0.0,0.0,0.0,0.0,-1.5262,-1.5182,-1.5182,-1.5182,-1.5182,-1.5182,-1.5182,-1.5182,-1.5182,-1.5182,-1.5189,0.0,-1.6016,-1.6652,0.0,0.0,0.0,0.0,0.0,0.0,0.0,0.0,0.0,0.0,0.0,-1.9853,0.0,0.0,-1.9481,-1.9802,-2.0154,-2.0866,-2.2764,-2.3201,-2.3549,-2.4847,-2.5107,-2.5143,-2.5276,-2.5312,-2.5312,0.0,0.0,0.0,-2.5312,-2.5312,0.0,-2.5312,-2.5931,0.0,-2.7149,0.0,-2.8698,-2.9261,-2.9477,0.0,0.0,-2.9602,-2.9799,-3.0312,-3.0482,-3.0906,-3.1517,-3.2131,-3.2643,-3.2947,-3.3715,-3.4187,-3.4414,-3.4414,-3.4414,-3.4414,-3.4414,-3.4414,-3.4414,-3.4414,-3.4414,-3.4414,-3.4414,-3.4414,-3.4467,-3.5335,-3.5946,-3.6508,-3.7342,-3.7976,-3.8391,0.0,0.0,0.0,0.0,0.0,0.0,0.0,0.0,0.0,0.0,0.0,0.0,0.0,0.0,0.0,0.0,0.0,0.0,0.0,0.0,0.0,0.0,0.0,0.0,0.0,0.0,0.0,0.0,0.0,0.0,0.0,-1.5431,-1.5431,-1.5431,-1.5431,-1.5431,-1.5431,0.0,0.0,0.0,0.0,0.0,0.0,0.0,0.0,0.0,0.0,0.0,0.0,0.0,0.0,-2.0566,-2.0566,-2.0264,-1.9834,-1.9414,0.0,-1.9183,-1.9183,-1.9872,-2.0952,-2.2548,-2.3333,-2.4001,-2.5028,-2.5312,-2.5312,-2.5312,-2.5312,0.0,-2.5312,0.0,0.0,0.0,0.0,0.0,-2.5312,-2.5652,-2.6208,0.0,-2.767,0.0,-2.9058,-2.9401,-2.9715,0.0,-3.001,-3.015,-3.0502,-3.0912,-3.1415,-3.1984,-3.2525,-3.2986,-3.3475,-3.4105,-3.4414,-3.4414,-3.4414,-3.4414,-3.4414,-3.4414,-3.4414,-3.4414,0.0,-3.4414,-3.4414,-3.4414,-3.4414,-3.4481,-3.5464,-3.6072,-3.6508,-3.746,-3.8091,-3.8391,0.0,0.0,0.0,0.0,0.0,0.0,0.0,0.0,0.0,0.0,0.0,0.0,0.0,0.0,0.0,0.0,0.0,0.0,0.0,0.0,0.0,0.0,0.0,0.0,0.0,0.0,0.0,0.0,0.0,0.0,0.0,0.0,0.0,0.0,0.0,0.0,0.0,0.0,0.0,0.0,0.0,0.0,0.0,0.0,0.0,0.0,0.0,0.0,0.0,0.0,-2.0566,-2.0566,-2.0566,-2.0303,-1.9902,-1.9434,-1.9023,-1.8721,-1.8721,-1.9484,-2.0667,-2.2049,-2.3212,-2.4192,-2.5087,-2.5312,-2.5312,-2.5312,0.0,-2.5312,-2.5312,-2.5312,-2.5312,-2.5312,0.0,-2.5312,-2.5312,-2.5312,-2.5581,-2.6277,-2.6947,-2.7604,-2.8298,-2.9058,-2.9729,-3.0331,-3.0535,-3.0684,-3.0769,-3.1406,-3.1998,-3.2497,-3.2701,-3.3107,-3.3882,-3.421,-3.4414,-3.4414,-3.4414,-3.4414,-3.4414,-3.4414,-3.4414,-3.4414,0.0,0.0,-3.4414,-3.4414,-3.4414,-3.4534,-3.5706,-3.6259,-3.6569,-3.7711,-3.8327,-3.8537,0.0,0.0,0.0,0.0,0.0,0.0,0.0,0.0,0.0,0.0,0.0,0.0,0.0,0.0,0.0,0.0,0.0,0.0,0.0,0.0,0.0,0.0,0.0,0.0,0.0,0.0,0.0,0.0,0.0,0.0,0.0,0.0,0.0,0.0,0.0,0.0,0.0,0.0,0.0,0.0,0.0,0.0,0.0,0.0,0.0,0.0,0.0,0.0,0.0,0.0,-2.0566,-2.0566,-2.0566,-2.0508,-2.0293,-1.9521,-1.9238,-1.918,-1.918,-1.9374,-2.0038,-2.2315,-2.304,-2.3537,-2.5016,-2.5312,0.0,0.0,-2.5312,-2.5312,-2.5312,-2.5312,-2.5312,-2.5312,0.0,0.0,0.0,0.0,-2.5581,0.0,0.0,0.0,0.0,0.0,0.0,0.0,0.0,0.0,-3.2047,-3.2174,-3.2525,-3.3143,-3.3518,-3.3782,-3.3896,-3.421,-3.4414,-3.4414,-3.4414,-3.4414,-3.4414,-3.4414,-3.4414,-3.4414,0.0,0.0,-3.4414,-3.4414,-3.4414,-3.4414,-3.4668,-3.54,-3.6446,-3.6631,-3.7824,-3.9298,0.0,0.0,0.0,0.0,0.0,0.0,0.0,0.0,0.0,0.0,0.0,0.0,0.0,0.0,0.0,0.0,0.0,0.0,0.0,0.0,0.0,0.0,0.0,0.0,0.0,0.0,0.0,0.0,0.0,0.0,0.0,0.0,0.0,0.0,0.0,0.0,0.0,0.0,0.0,0.0,0.0,0.0,0.0,0.0,0.0,0.0,0.0,0.0,0.0,0.0,-2.0566,-2.0566,-2.0566,-2.0566,-2.04,-1.9541,-1.9287,-1.9287,-1.9287,-1.964,-2.0339,-2.1977,-2.2947,-2.3756,-2.4492,0.0,0.0,0.0,-2.4687,-2.459,-2.4855,0.0,0.0,0.0,0.0,0.0,0.0,0.0,0.0,0.0,0.0,0.0,0.0,0.0,0.0,0.0,0.0,0.0,-3.2384,-3.2707,-3.3016,-3.3312,-3.3675,-3.3896,-3.3896,-3.421,-3.4414,-3.4414,-3.4414,-3.4414,-3.4414,-3.4414,-3.4414,-3.4414,0.0,0.0,-3.4414,-3.4414,-3.4414,-3.4511,-3.5606,-3.6444,-3.711,-3.8135,-3.9182,-4.0011,0.0,0.0,0.0,0.0,0.0,0.0,0.0,0.0,0.0,0.0,0.0,0.0,0.0,0.0,0.0,0.0,0.0,0.0,0.0,0.0,0.0,0.0,0.0,0.0,0.0,0.0,0.0,0.0,0.0,0.0,0.0,0.0,0.0,0.0,0.0,0.0,0.0,0.0,0.0,0.0,0.0,0.0,0.0,0.0,0.0,0.0,0.0,0.0,0.0,0.0,-2.0566,-2.0566,-2.0566,-2.0566,-2.042,-1.9648,-1.9355,-1.9287,-1.9287,-1.9777,-2.0533,-2.1343,-2.2557,-2.3572,-2.3572,-2.3851,0.0,0.0,-2.4138,-2.4049,-2.4446,0.0,-2.4783,0.0,-2.524,0.0,0.0,0.0,0.0,0.0,0.0,0.0,0.0,0.0,0.0,0.0,0.0,0.0,0.0,-3.3059,-3.3326,-3.3326,-3.3675,-3.3896,-3.3896,-3.421,-3.4346,-3.4414,-3.4414,-3.4414,-3.4414,-3.4414,-3.4414,-3.4414,0.0,0.0,0.0,-3.4559,-3.4617,-3.4811,-3.6556,-3.7338,-3.7658,-3.925,-4.0139,-4.0466,0.0,0.0,0.0,0.0,0.0,0.0,0.0,0.0,0.0,0.0,0.0,0.0,0.0,0.0,0.0,0.0,0.0,0.0,0.0,0.0,0.0,0.0,0.0,0.0,0.0,0.0,0.0,0.0,0.0,0.0,0.0,0.0,0.0,0.0,0.0,0.0,0.0,0.0,0.0,0.0,0.0,0.0,0.0,0.0,0.0,0.0,0.0,0.0,0.0,0.0,0.0,-2.0566,-2.0566,-2.0566,-2.0469,-2.0,0.0,0.0,-1.9287,-1.9555,-1.9913,-2.0481,-2.1154,-2.1787,-2.1867,0.0,0.0,0.0,-2.4058,-2.447,-2.4506,-2.4915,-2.5095,-2.4662,0.0,-2.5312,0.0,0.0,0.0,0.0,0.0,0.0,0.0,0.0,0.0,0.0,0.0,0.0,0.0,-3.3297,-3.3326,-3.3326,-3.3536,-3.3744,-3.3896,-3.4074,-3.4196,-3.4414,-3.4414,-3.4414,-3.4414,-3.4414,-3.4414,-3.4414,0.0,0.0,0.0,-3.5038,-3.5285,-3.5412,-3.6108,-3.6803,-3.7338,-3.7534,-3.88,-4.0499,0.0,0.0,0.0,0.0,0.0,0.0,0.0,0.0,0.0,0.0,0.0,0.0,0.0,0.0,0.0,0.0,0.0,0.0,0.0,0.0,0.0,0.0,0.0,0.0,0.0,0.0,0.0,0.0,0.0,0.0,0.0,0.0,0.0,0.0,0.0,0.0,0.0,0.0,0.0,0.0,0.0,0.0,0.0,0.0,0.0,0.0,0.0,0.0,0.0,0.0,0.0,0.0,-2.0566,-2.0566,0.0,0.0,-1.9795,-1.9609,-1.9355,-1.9645,-2.0102,-2.0358,-2.1307,-2.2228,-2.2671,0.0,0.0,0.0,-2.4074,-2.4157,-2.447,-2.4687,-2.4867,-2.4975,0.0,0.0,-2.5312,0.0,0.0,0.0,0.0,0.0,0.0,0.0,0.0,0.0,0.0,0.0,0.0,-3.3326,-3.3326,-3.3326,-3.3466,-3.3675,-3.3896,-3.4005,-3.4196,-3.4414,-3.4414,-3.4414,-3.4414,-3.4414,-3.4414,-3.4414,0.0,0.0,0.0,-3.5256,-3.559,-3.6067,-3.7161,-3.7749,-3.8057,-3.8864,-3.9733,-4.0504,0.0,0.0,0.0,0.0,0.0,0.0,0.0,0.0,0.0,0.0,0.0,0.0,0.0,0.0,0.0,0.0,0.0,0.0,0.0,0.0,0.0,0.0,0.0,0.0,0.0,0.0,0.0,0.0,0.0,0.0,0.0,0.0,0.0,0.0,0.0,0.0,0.0,0.0,0.0,0.0,0.0,0.0,0.0,0.0,0.0,0.0,0.0,0.0,0.0,0.0,0.0,0.0,0.0,0.0,0.0,0.0,-2.0019,-1.9853,-1.9551,-2.0082,-2.0603,-2.04,-2.1516,-2.2662,0.0,0.0,0.0,0.0,-2.4094,-2.4097,-2.4458,-2.4518,-2.4638,0.0,0.0,-2.5131,-2.5288,0.0,0.0,0.0,0.0,0.0,0.0,0.0,0.0,0.0,0.0,0.0,0.0,-3.3326,-3.3326,-3.3326,-3.3466,-3.3605,-3.3827,-3.3868,-3.4074,-3.4346,-3.4346,-3.4346,-3.4414,-3.4414,-3.4414,0.0,0.0,0.0,0.0,-3.5778,-3.6199,-3.6736,-3.7895,-3.8362,-3.8478,-3.9425,-3.9859,-4.0209,0.0,0.0,0.0,0.0,0.0,0.0,0.0,0.0,0.0,0.0,0.0,0.0,0.0,0.0,0.0,0.0,0.0,0.0,0.0,0.0,0.0,0.0,0.0,0.0,0.0,0.0,0.0,0.0,0.0,0.0,0.0,0.0,0.0,0.0,0.0,0.0,0.0,0.0,0.0,0.0,0.0,0.0,0.0,0.0,0.0,0.0,0.0,0.0,0.0,0.0,0.0,0.0,0.0,0.0,0.0,0.0,-2.0254,-1.9912,-1.9902,-2.0669,-2.1307,-2.0684,-2.1585,-2.2559,0.0,0.0,0.0,0.0,-2.4013,-2.4506,-2.4518,-2.4518,-2.4518,-2.453,-2.453,0.0,-2.524,0.0,0.0,0.0,0.0,0.0,0.0,0.0,0.0,0.0,0.0,0.0,0.0,0.0,-3.3326,-3.3326,-3.3326,-3.3396,-3.3605,-3.3605,-3.3799,-3.4128,-3.4128,-3.4196,-3.4414,-3.4414,0.0,0.0,0.0,0.0,0.0,-3.6751,-3.7288,-3.736,-3.7955,-3.8188,-3.8188,-3.8202,-3.8679,-3.9448,0.0,0.0,0.0,0.0,0.0,0.0,0.0,0.0,0.0,0.0,0.0,0.0,0.0,0.0,0.0,0.0,0.0,0.0,0.0,0.0,0.0,0.0,0.0,0.0,0.0,0.0,0.0,0.0,0.0,0.0,0.0,0.0,0.0,0.0,0.0,0.0,0.0,0.0,0.0,0.0,0.0,0.0,0.0,0.0,0.0,0.0,0.0,0.0,0.0,0.0,0.0,0.0,0.0,0.0,0.0,0.0,0.0,0.0,-2.0,-2.0538,-2.1,-2.0483,-2.1516,-2.2662,-2.2797,0.0,0.0,0.0,0.0,-2.5059,-2.5059,-2.4771,-2.4638,-2.4999,-2.4759,0.0,0.0,0.0,0.0,0.0,0.0,0.0,0.0,0.0,0.0,0.0,0.0,0.0,0.0,0.0,-3.3326,-3.3326,-3.3326,-3.3396,-3.3605,-3.3605,-3.373,-3.4128,-3.4128,-3.4196,-3.4414,-3.4414,0.0,0.0,0.0,0.0,0.0,-3.7128,-3.7549,-3.7941,-3.813,-3.8202,-3.8202,-3.8202,-3.8337,-3.8767,0.0,0.0,0.0,0.0,0.0,0.0,0.0,0.0,0.0,0.0,0.0,0.0,0.0,0.0,0.0,0.0,0.0,0.0,0.0,0.0,0.0,0.0,0.0,0.0,0.0,0.0,0.0,0.0,0.0,0.0,0.0,0.0,0.0,0.0,0.0,0.0,0.0,0.0,0.0,0.0,0.0,0.0,-1.7513,0.0,0.0,0.0,0.0,0.0,0.0,0.0,0.0,0.0,0.0,0.0,0.0,0.0,0.0,0.0,0.0,-2.0752,-2.1195,-2.0906,-2.2062,0.0,0.0,0.0,0.0,0.0,0.0,0.0,-2.5312,-2.4879,-2.4699,-2.5216,0.0,0.0,0.0,0.0,0.0,0.0,0.0,0.0,0.0,0.0,0.0,0.0,0.0,0.0,0.0,0.0,-3.3326,-3.3326,-3.3326,-3.3396,-3.3466,-3.3466,-3.3675,-3.4005,-3.4005,-3.4142,-3.4414,0.0,0.0,0.0,0.0,0.0,0.0,-3.7549,-3.7868,-3.8202,-3.8202,-3.8202,-3.8202,-3.8202,-3.8202,-3.8412,0.0,0.0,0.0,0.0,0.0,0.0,0.0,0.0,0.0,0.0,0.0,0.0,0.0,0.0,0.0,0.0,0.0,0.0,0.0,0.0,0.0,0.0,0.0,0.0,0.0,0.0,0.0,-1.3492,-1.3492,-1.3492,-1.3506,0.0,0.0,0.0,0.0,0.0,0.0,0.0,-1.5153,0.0,0.0,-1.5619,0.0,0.0,0.0,0.0,0.0,0.0,0.0,0.0,0.0,0.0,0.0,0.0,0.0,0.0,0.0,0.0,0.0,0.0,0.0,0.0,0.0,0.0,0.0,0.0,0.0,0.0,0.0,0.0,0.0,0.0,0.0,0.0,0.0,0.0,0.0,0.0,0.0,0.0,0.0,0.0,0.0,0.0,0.0,0.0,0.0,0.0,0.0,0.0,0.0,-3.3326,-3.3326,-3.3326,-3.3326,-3.3326,-3.3536,-3.3896,-3.3896,-3.4088,-3.4414,0.0,0.0,0.0,0.0,0.0,0.0,-3.797,-3.8202,-3.8202,-3.8202,-3.8202,-3.8202,-3.8202,-3.8202,-3.8412,0.0,0.0,0.0,0.0,0.0,0.0,0.0,0.0,0.0,0.0,0.0,0.0,0.0,0.0,0.0,0.0,0.0,0.0,0.0,0.0,0.0,0.0,0.0,0.0,0.0,0.0,0.0,-1.3492,-1.3492,-1.3492,-1.3506,-1.3828,0.0,0.0,0.0,-1.5123,-1.5423,-1.535,-1.5357,-1.5423,-1.5343,-1.5831,0.0,0.0,0.0,0.0,-1.9755,-1.9863,0.0,0.0,0.0,0.0,0.0,0.0,0.0,0.0,-2.0068,0.0,0.0,0.0,0.0,0.0,0.0,0.0,0.0,0.0,0.0,0.0,0.0,0.0,0.0,0.0,0.0,0.0,0.0,0.0,0.0,0.0,0.0,0.0,0.0,0.0,0.0,0.0,0.0,0.0,0.0,0.0,0.0,0.0,0.0,-3.3326,-3.3326,-3.3326,-3.3326,-3.3466,-3.3675,-3.3896,-3.4005,-3.4196,-3.4414,0.0,0.0,0.0,0.0,0.0,-3.7999,-3.8144,-3.8202,-3.8202,-3.8202,-3.8202,-3.8202,-3.8202,-3.8202,-3.8412,0.0,0.0,0.0,0.0,0.0,0.0,0.0,0.0,0.0,0.0,0.0,0.0,0.0,0.0,0.0,0.0,0.0,0.0,0.0,0.0,0.0,0.0,0.0,0.0,0.0,0.0,0.0,0.0,0.0,-1.3718,0.0,0.0,0.0,0.0,0.0,-1.5262,-1.5423,-1.527,-1.5292,-1.5416,-1.527,0.0,0.0,0.0,0.0,0.0,-1.9399,-1.9482,0.0,-1.9053,-1.8994,-1.8994,0.0,0.0,0.0,0.0,-1.9766,0.0,0.0,0.0,0.0,0.0,0.0,0.0,0.0,0.0,0.0,0.0,0.0,0.0,0.0,0.0,0.0,0.0,0.0,0.0,0.0,0.0,0.0,0.0,0.0,0.0,0.0,0.0,0.0,0.0,0.0,0.0,0.0,0.0,0.0,0.0,-3.3326,-3.3326,-3.3326,-3.3466,-3.3675,-3.3896,-3.4005,-3.4196,-3.4414,0.0,0.0,0.0,0.0,0.0,-3.8202,-3.8202,-3.8202,-3.8202,-3.8202,-3.8202,-3.8202,-3.8202,-3.8202,-3.8337,0.0,0.0,0.0,0.0,0.0,0.0,0.0,0.0,0.0,0.0,0.0,0.0,0.0,0.0,0.0,0.0,0.0,0.0,0.0,0.0,0.0,0.0,0.0,0.0,0.0,0.0,0.0,0.0,0.0,0.0,0.0,0.0,-1.4714,0.0,-1.5306,-1.5431,-1.5416,-1.5131,-1.5174,-1.5409,0.0,0.0,0.0,0.0,0.0,0.0,0.0,0.0,0.0,-1.8662,-1.8545,-1.8545,-1.8545,0.0,0.0,0.0,0.0,0.0,0.0,0.0,0.0,0.0,0.0,0.0,0.0,0.0,0.0,0.0,0.0,0.0,0.0,-2.5252,0.0,0.0,0.0,0.0,0.0,0.0,0.0,0.0,0.0,0.0,0.0,0.0,0.0,0.0,0.0,0.0,0.0,0.0,0.0,0.0,-3.3326,-3.3326,-3.3326,-3.3536,-3.3744,-3.3896,-3.4074,-3.4264,-3.4414,-3.4414,0.0,0.0,0.0,0.0,-3.8202,-3.8202,-3.8202,-3.8202,-3.8202,-3.8202,-3.8202,-3.8202,-3.8202,-3.8277,0.0,0.0,0.0,0.0,0.0,0.0,0.0,0.0,0.0,0.0,0.0,0.0,0.0,0.0,0.0,0.0,0.0,0.0,0.0,0.0,0.0,0.0,0.0,0.0,0.0,0.0,0.0,0.0,0.0,0.0,-1.4399,-1.4721,-1.5043,-1.5357,-1.5409,-1.5431,-1.5423,-1.5379,-1.5387,-1.5423,0.0,0.0,0.0,0.0,0.0,0.0,0.0,0.0,0.0,-1.8135,-1.8105,-1.8105,-1.8105,0.0,0.0,0.0,0.0,0.0,-1.9814,-2.0747,-2.1614,-2.1614,0.0,0.0,0.0,0.0,0.0,0.0,0.0,0.0,0.0,0.0,0.0,0.0,0.0,0.0,0.0,0.0,0.0,0.0,0.0,0.0,0.0,0.0,0.0,0.0,0.0,0.0,0.0,0.0,0.0,0.0,0.0,-3.3396,-3.3536,-3.3744,-3.3896,-3.3896,-3.421,-3.4346,-3.4414,-3.4414,-3.5111,0.0,0.0,-3.7027,-3.8202,-3.8202,-3.8202,-3.8202,-3.8202,-3.8202,-3.8202,-3.8202,-3.8202,-3.8277,0.0,0.0,0.0,0.0,0.0,0.0,0.0,0.0,0.0,0.0,0.0,0.0,0.0,0.0,0.0,0.0,0.0,0.0,0.0,0.0,0.0,0.0,0.0,0.0,0.0,0.0,0.0,0.0,0.0,-1.4582,-1.4735,-1.5057,-1.5284,-1.5431,-1.5431,-1.5431,-1.5431,-1.5431,-1.5665,-1.6064,0.0,0.0,0.0,0.0,0.0,0.0,0.0,0.0,0.0,0.0,-1.8008,-1.8008,-1.8008,0.0,0.0,0.0,0.0,0.0,-1.9521,-2.0351,-2.1385,-2.2209,0.0,0.0,0.0,0.0,0.0,0.0,0.0,0.0,0.0,0.0,0.0,0.0,0.0,0.0,0.0,0.0,0.0,0.0,0.0,0.0,0.0,0.0,0.0,0.0,0.0,0.0,0.0,0.0,0.0,0.0,0.0,0.0,-3.3605,-3.3868,-3.3951,-3.3896,-3.421,-3.4414,-3.4414,-3.4414,-3.5111,-3.6301,0.0,-3.7027,-3.8202,-3.8202,-3.8202,-3.8202,-3.8202,-3.8202,-3.8202,-3.8202,-3.8202,-3.8277,0.0,0.0,0.0,0.0,0.0,0.0,0.0,0.0,0.0,0.0,0.0,0.0,0.0,0.0,0.0,0.0,0.0,0.0,0.0,0.0,0.0,0.0,0.0,0.0,0.0,0.0,-1.4055,-1.4209,-1.4626,-1.4874,-1.4867,-1.5277,-1.5431,0.0,-1.5431,-1.5431,-1.5431,-1.5431,-1.5906,-1.6698,0.0,0.0,0.0,0.0,0.0,0.0,0.0,0.0,0.0,0.0,0.0,0.0,0.0,0.0,0.0,0.0,-1.8691,-1.9307,-1.9404,-2.0131,-2.1242,-2.266,0.0,0.0,0.0,0.0,0.0,0.0,0.0,0.0,0.0,0.0,0.0,0.0,0.0,0.0,0.0,0.0,0.0,0.0,0.0,0.0,0.0,0.0,0.0,0.0,0.0,0.0,0.0,0.0,0.0,0.0,0.0,0.0,-3.3744,-3.3991,-3.4074,-3.3951,-3.4278,-3.4414,-3.4414,-3.4414,-3.5024,-3.6098,-3.6243,-3.6954,-3.7999,-3.8144,-3.8202,-3.8202,-3.8202,-3.8202,-3.8202,-3.8202,-3.8202,-3.8202,0.0,0.0,0.0,0.0,0.0,0.0,0.0,0.0,0.0,0.0,0.0,0.0,0.0,0.0,0.0,0.0,0.0,0.0,0.0,0.0,0.0,0.0,0.0,0.0,0.0,-1.3967,-1.4275,-1.4874,-1.4626,-1.4655,-1.4867,-1.5277,-1.5431,-1.5431,-1.5431,-1.5431,-1.5431,-1.5431,-1.5906,-1.6698,-1.6698,0.0,0.0,0.0,0.0,0.0,0.0,0.0,0.0,0.0,0.0,0.0,0.0,0.0,0.0,0.0,-1.8926,-1.9375,-1.9766,-2.0803,-2.1907,-2.2798,-2.3032,0.0,-2.4862,-2.5241,0.0,-2.5264,0.0,0.0,0.0,0.0,0.0,0.0,0.0,0.0,0.0,0.0,0.0,0.0,0.0,0.0,0.0,0.0,0.0,0.0,0.0,0.0,0.0,0.0,0.0,0.0,0.0,0.0,-3.4059,-3.4059,-3.4128,-3.4059,-3.4278,-3.4414,-3.4414,-3.4414,-3.4791,-3.5473,-3.6054,-3.6707,-3.7418,-3.797,-3.8202,-3.8202,-3.8202,-3.8202,-3.8202,-3.8202,-3.8202,-3.8202,0.0,0.0,0.0,0.0,0.0,0.0,0.0,0.0,0.0,0.0,0.0,0.0,0.0,0.0,0.0,0.0,0.0,0.0,0.0,0.0,0.0,0.0,0.0,-1.4377,-1.4575,-1.4582,-1.4699,-1.486,-1.5028,-1.5021,-1.4867,-1.5277,0.0,0.0,-1.5665,-1.5989,-1.6952,-1.6468,-1.7025,-1.8318,-1.8318,-1.8807,0.0,0.0,0.0,0.0,0.0,0.0,0.0,0.0,-1.8223,-1.8057,0.0,0.0,0.0,0.0,-1.9346,-1.9707,-1.9873,-2.0823,-2.1983,-2.2809,-2.3316,0.0,0.0,-2.5312,-2.5216,-2.4879,-2.5083,0.0,0.0,0.0,0.0,0.0,0.0,0.0,0.0,0.0,0.0,0.0,0.0,0.0,0.0,0.0,0.0,0.0,0.0,0.0,0.0,0.0,0.0,0.0,0.0,0.0,0.0,-3.3618,-3.3756,-3.4128,-3.4278,-3.4414,-3.4414,-3.4414,-3.4762,-3.547,-3.604,-3.6693,-3.736,-3.7955,-3.8202,-3.8202,-3.8202,-3.8202,-3.8202,-3.8202,-3.8202,-3.8202,0.0,0.0,0.0,0.0,0.0,0.0,0.0,0.0,0.0,0.0,0.0,0.0,0.0,0.0,0.0,0.0,0.0,0.0,0.0,0.0,0.0,0.0,0.0,-1.4772,-1.5087,-1.5094,-1.5094,-1.5094,-1.5321,-1.5262,-1.4948,0.0,0.0,0.0,0.0,-1.6714,-1.7513,-1.6935,-1.7432,-1.8487,-1.8807,-1.9371,0.0,0.0,0.0,0.0,0.0,0.0,0.0,0.0,0.0,0.0,0.0,0.0,0.0,0.0,0.0,-2.0307,-2.0446,-2.1302,-2.236,0.0,0.0,0.0,-2.5087,-2.5312,-2.5204,-2.4843,-2.5059,0.0,0.0,0.0,0.0,0.0,0.0,0.0,0.0,0.0,0.0,0.0,0.0,0.0,0.0,0.0,0.0,0.0,0.0,0.0,0.0,0.0,0.0,0.0,0.0,0.0,0.0,-3.3395,-3.3673,-3.3825,-3.4196,-3.4414,-3.4414,-3.4414,-3.4646,-3.5111,-3.5938,-3.6562,-3.7056,-3.7868,-3.8202,-3.8202,-3.8202,-3.8202,-3.8202,-3.8202,-3.8202,-3.8202,0.0,0.0,0.0,0.0,0.0,0.0,0.0,0.0,0.0,0.0,0.0,0.0,0.0,0.0,0.0,0.0,0.0,0.0,0.0,0.0,0.0,0.0,0.0,-1.5094,-1.5423,-1.5431,-1.5431,-1.5423,-1.5431,-1.5262,-1.4948,-1.6141,0.0,0.0,0.0,0.0,-1.6698,-1.6698,-1.6698,-1.678,-1.7674,-1.8567,-1.9381,0.0,0.0,0.0,0.0,0.0,0.0,0.0,0.0,0.0,0.0,0.0,0.0,0.0,-2.0501,-2.1176,-2.1631,-2.236,-2.3169,0.0,0.0,0.0,-2.5087,-2.5312,-2.5312,-2.5312,0.0,-2.5312,0.0,0.0,0.0,0.0,0.0,0.0,0.0,0.0,0.0,0.0,0.0,0.0,0.0,0.0,0.0,0.0,0.0,0.0,0.0,0.0,0.0,0.0,0.0,0.0,0.0,-3.3604,-3.3977,-3.3213,-3.4031,-3.4414,-3.4414,-3.4414,-3.4414,-3.4486,-3.5764,-3.6301,-3.6402,-3.768,-3.8202,-3.8202,-3.8202,-3.8202,-3.8202,-3.8202,-3.8202,-3.8202,0.0,0.0,0.0,0.0,0.0,0.0,0.0,0.0,0.0,0.0,0.0,0.0,0.0,0.0,0.0,0.0,0.0,0.0,0.0,0.0,0.0,0.0,0.0,0.0,0.0,0.0,-1.5313,-1.5087,-1.5313,-1.5576,0.0,0.0,0.0,-1.7594,0.0,-1.7261,-1.7594,-1.7594,-1.7997,-1.8567,-1.9441,-2.0001,-2.0245,0.0,0.0,0.0,0.0,0.0,0.0,0.0,0.0,0.0,0.0,0.0,0.0,-2.0244,-2.0592,-2.0775,-2.0904,-2.1993,0.0,-2.3243,0.0,0.0,0.0,-2.5312,0.0,0.0,0.0,0.0,0.0,0.0,0.0,0.0,0.0,0.0,0.0,0.0,0.0,0.0,0.0,0.0,0.0,0.0,0.0,0.0,0.0,0.0,0.0,0.0,0.0,0.0,0.0,0.0,0.0,0.0,-3.2889,-3.3044,-3.3977,-3.4414,-3.4414,-3.4414,-3.4414,-3.4486,-3.5764,-3.6301,-3.6402,-3.768,-3.8202,-3.8202,-3.8202,-3.8202,-3.8202,-3.8202,-3.8202,-3.8202,0.0,0.0,0.0,0.0,0.0,0.0,0.0,0.0,0.0,0.0,0.0,0.0,0.0,0.0,0.0,0.0,0.0,0.0,0.0,0.0,0.0,0.0,0.0,0.0,0.0,-1.5431,-1.5328,0.0,0.0,0.0,0.0,0.0,0.0,-1.7504,0.0,-1.7836,-1.7997,-1.8407,-1.8647,-1.8895,-1.9696,-2.0089,-2.0089,0.0,0.0,0.0,0.0,0.0,0.0,0.0,0.0,0.0,0.0,0.0,0.0,-2.0931,-2.1308,-2.1614,-2.1897,0.0,0.0,-2.3902,-2.4647,-2.5312,-2.5312,0.0,0.0,0.0,0.0,0.0,0.0,0.0,0.0,0.0,0.0,0.0,0.0,0.0,0.0,0.0,0.0,0.0,0.0,0.0,0.0,0.0,0.0,0.0,0.0,0.0,0.0,0.0,0.0,0.0,0.0,0.0,0.0,-3.2676,-3.3839,-3.4414,-3.4414,-3.4414,-3.4414,-3.4486,-3.5764,-3.646,-3.678,-3.7781,-3.8202,-3.8202,-3.8202,-3.8202,-3.8202,-3.8202,-3.8202,-3.8202,0.0,0.0,0.0,0.0,0.0,0.0,0.0,0.0,0.0,0.0,0.0,0.0,0.0,0.0,0.0,0.0,0.0,0.0,0.0,0.0,0.0,0.0,0.0,0.0,0.0,0.0,0.0,0.0,0.0,0.0,0.0,0.0,-1.6698,-1.678,0.0,-1.8727,-1.7917,-1.8895,-1.8816,-1.8158,-1.9054,-1.9381,-1.9539,-2.0323,0.0,0.0,0.0,0.0,0.0,0.0,0.0,0.0,0.0,-2.0566,-2.0712,-2.1461,-2.2285,-2.3032,-2.3672,0.0,0.0,-2.5158,-2.5241,0.0,-2.5312,0.0,0.0,0.0,0.0,0.0,0.0,0.0,0.0,0.0,0.0,0.0,0.0,0.0,0.0,0.0,0.0,0.0,0.0,0.0,0.0,0.0,0.0,0.0,0.0,0.0,0.0,0.0,0.0,0.0,0.0,0.0,0.0,0.0,-3.3604,-3.4346,-3.4414,-3.4414,-3.4443,-3.4559,-3.5778,-3.6693,-3.736,-3.7955,-3.8202,-3.8202,-3.8202,-3.8202,-3.8202,-3.8202,-3.8202,-3.8202,0.0,0.0,0.0,0.0,0.0,0.0,0.0,0.0,0.0,0.0,0.0,0.0,0.0,0.0,0.0,0.0,0.0,0.0,0.0,0.0,0.0,0.0,0.0,0.0,0.0,0.0,0.0,0.0,0.0,0.0,0.0,0.0,0.0,-1.678,0.0,-1.7836,-1.7098,-1.8647,-1.9222,-1.9134,-2.001,-2.0323,-2.0323,-2.0566,-2.0566,0.0,0.0,0.0,0.0,0.0,0.0,0.0,-2.0566,-2.0566,-2.0644,-2.0789,-2.1461,-2.2059,-2.2274,-2.3305,0.0,0.0,-2.4862,-2.5312,-2.5312,0.0,0.0,0.0,0.0,0.0,0.0,0.0,0.0,0.0,0.0,0.0,0.0,0.0,0.0,0.0,0.0,0.0,0.0,0.0,0.0,0.0,0.0,0.0,0.0,0.0,0.0,0.0,0.0,0.0,-2.9509,-3.0745,-3.1623,0.0,-3.3017,-3.3811,-3.4414,-3.4414,-3.469,-3.5198,-3.5981,-3.6693,-3.736,-3.7955,-3.8202,-3.8202,-3.8202,-3.8202,-3.8202,-3.8202,-3.8202,-3.8202,0.0,0.0,0.0,0.0,0.0,0.0,0.0,0.0,0.0,0.0,0.0,0.0,0.0,0.0,0.0,0.0,0.0,0.0,0.0,0.0,0.0,0.0,0.0,0.0,0.0,0.0,0.0,0.0,0.0,0.0,0.0,0.0,0.0,-1.678,0.0,-1.8407,-1.7997,-1.9371,-1.9932,-1.9932,-2.0411,-2.0566,-2.0566,-2.0566,-2.0566,-2.0566,-2.0566,0.0,0.0,0.0,0.0,0.0,0.0,0.0,-2.0644,-2.1088,-2.1461,-2.1983,-2.2713,0.0,0.0,-2.4564,0.0,0.0,0.0,0.0,0.0,0.0,0.0,0.0,0.0,0.0,0.0,0.0,0.0,0.0,0.0,0.0,0.0,0.0,0.0,0.0,0.0,0.0,0.0,0.0,0.0,0.0,0.0,0.0,0.0,0.0,0.0,0.0,-2.9599,-3.0469,-3.1328,-3.2074,-3.2861,-3.3589,-3.4414,-3.4414,-3.4588,-3.4951,-3.5909,-3.6504,-3.6896,-3.7825,-3.8202,-3.8202,-3.8202,-3.8202,-3.8202,-3.8202,-3.8202,-3.8202,0.0,0.0,0.0,0.0,0.0,0.0,0.0,0.0,0.0,0.0,0.0,0.0,0.0,0.0,0.0,0.0,0.0,0.0,0.0,0.0,0.0,0.0,0.0,0.0,0.0,0.0,0.0,0.0,0.0,0.0,0.0,0.0,0.0,-1.678,0.0,-1.9301,-1.9381,-2.0245,-2.0566,-2.0566,-2.0566,-2.0566,-2.0566,-2.0566,-2.0566,-2.0566,-2.0566,-2.0566,-2.0566,-2.0566,0.0,0.0,0.0,0.0,-2.0712,-2.1385,-2.169,-2.2059,-2.3379,0.0,-2.4264,-2.5087,-2.5312,0.0,0.0,0.0,0.0,0.0,0.0,0.0,0.0,0.0,0.0,0.0,0.0,0.0,0.0,0.0,0.0,0.0,0.0,0.0,0.0,0.0,0.0,0.0,0.0,0.0,0.0,0.0,0.0,0.0,0.0,-2.9691,-2.9792,-3.0419,-3.1119,-3.1928,-3.2791,-3.3589,-3.4414,-3.4414,-3.4414,-3.4486,-3.5764,-3.6301,-3.6402,-3.768,-3.8202,-3.8202,-3.8202,-3.8202,-3.8202,-3.8202,-3.8202,-3.8202,0.0,0.0,0.0,0.0,0.0,0.0,0.0,0.0,0.0,0.0,0.0,0.0,0.0,0.0,0.0,0.0,0.0,0.0,0.0,0.0,0.0,0.0,0.0,0.0,0.0,0.0,0.0,0.0,0.0,0.0,0.0,0.0,0.0,-1.678,0.0,0.0,-1.9381,-2.0245,-2.0566,-2.0566,-2.0566,-2.0566,-2.0566,-2.0566,-2.0566,-2.0566,-2.0566,-2.0566,-2.0566,-2.0566,-2.0566,0.0,0.0,0.0,0.0,0.0,-2.1231,-2.1832,0.0,0.0,-2.4264,0.0,-2.5312,0.0,0.0,0.0,0.0,0.0,0.0,0.0,0.0,0.0,0.0,0.0,0.0,0.0,0.0,0.0,0.0,0.0,0.0,0.0,0.0,0.0,0.0,0.0,0.0,0.0,0.0,0.0,-2.772,-2.8197,-2.875,0.0,-2.9779,-2.9934,-3.0355,-3.1119,-3.2492,-3.3589,-3.4414,-3.4414,-3.4414,-3.4486,-3.5764,-3.6301,-3.6402,-3.768,-3.8202,-3.8202,-3.8202,-3.8202,-3.8202,-3.8202,-3.8202,-3.8202,0.0,0.0,0.0,0.0,0.0,0.0,0.0,0.0,0.0,0.0,0.0,0.0,0.0,0.0,0.0,0.0,0.0,0.0,0.0,0.0,0.0,0.0,0.0,0.0,0.0,0.0,0.0,0.0,0.0,0.0,0.0,-1.6304,-1.7107,0.0,0.0,0.0,0.0,0.0,0.0,-2.0566,-2.0566,-2.0566,-2.0566,0.0,0.0,-2.0566,-2.0566,-2.0566,-2.0566,0.0,0.0,0.0,0.0,0.0,0.0,0.0,0.0,0.0,-2.2209,-2.3243,-2.4264,0.0,0.0,0.0,0.0,0.0,0.0,0.0,0.0,0.0,0.0,0.0,0.0,0.0,0.0,0.0,0.0,0.0,0.0,0.0,0.0,0.0,0.0,0.0,0.0,0.0,0.0,0.0,0.0,-2.6698,-2.731,-2.7632,-2.8473,0.0,-2.9302,-2.9628,-3.0139,-3.0895,-3.2492,-3.3367,-3.3742,-3.4182,-3.4414,-3.4486,-3.5764,-3.6301,-3.6402,-3.768,-3.8202,-3.8202,-3.8202,-3.8202,-3.8202,-3.8202,-3.8202,-3.8202,0.0,0.0,0.0,0.0,0.0,0.0,0.0,0.0,0.0,0.0,0.0,0.0,0.0,0.0,0.0,0.0,0.0,0.0,0.0,0.0,0.0,0.0,0.0,0.0,0.0,0.0,0.0,0.0,0.0,0.0,-1.5416,-1.6064,-1.7448,0.0,-1.9301,-1.9775,0.0,0.0,0.0,0.0,-2.0566,0.0,0.0,0.0,0.0,0.0,0.0,0.0,0.0,0.0,0.0,0.0,0.0,0.0,0.0,0.0,0.0,0.0,0.0,0.0,-2.3745,0.0,0.0,0.0,0.0,0.0,0.0,0.0,0.0,0.0,0.0,0.0,0.0,0.0,0.0,0.0,0.0,0.0,0.0,0.0,0.0,0.0,0.0,0.0,0.0,0.0,0.0,0.0,-2.591,-2.6491,-2.6989,-2.7281,-2.8222,-2.8787,-2.8925,-2.9503,-3.0139,-3.0895,-3.206,-3.2847,-3.3213,-3.3811,-3.4196,-3.4486,-3.5764,-3.6301,-3.6402,-3.768,-3.8202,-3.8202,-3.8202,-3.8202,-3.8202,-3.8202,-3.8202,-3.8202,0.0,0.0,0.0,0.0,0.0,0.0,0.0,0.0,0.0,0.0,0.0,0.0,0.0,0.0,0.0,0.0,0.0,0.0,0.0,0.0,0.0,0.0,0.0,0.0,0.0,0.0,0.0,0.0,0.0,0.0,-1.6312,-1.6394,-1.7448,-1.9301,-1.9301,-1.9775,-2.0566,0.0,0.0,0.0,0.0,0.0,0.0,0.0,0.0,0.0,0.0,0.0,0.0,0.0,0.0,0.0,0.0,0.0,0.0,0.0,0.0,0.0,0.0,-2.1907,0.0,0.0,0.0,0.0,0.0,0.0,0.0,0.0,0.0,0.0,0.0,0.0,0.0,0.0,0.0,0.0,0.0,0.0,0.0,0.0,0.0,0.0,0.0,0.0,0.0,0.0,0.0,0.0,-2.591,-2.6283,-2.6741,-2.7268,-2.7846,-2.8398,-2.8925,-2.9503,-3.0139,-3.0895,-3.0957,-3.1769,-3.3213,-3.3213,-3.3673,-3.4486,-3.5764,-3.6301,-3.6402,-3.768,-3.8202,-3.8202,-3.8202,-3.8202,-3.8202,-3.8202,-3.8202,-3.8202,0.0,0.0,0.0,0.0,0.0,0.0,0.0,0.0,0.0,0.0,0.0,0.0,0.0,0.0,0.0,0.0,0.0,0.0,0.0,0.0,0.0,0.0,0.0,0.0,0.0,0.0,0.0,0.0,0.0,-1.4657,-1.5311,-1.5884,-1.6944,-1.8487,-1.9054,-1.9775,-2.0566,-2.0566,0.0,0.0,0.0,0.0,0.0,0.0,0.0,0.0,0.0,0.0,0.0,0.0,0.0,0.0,0.0,0.0,0.0,0.0,0.0,0.0,0.0,0.0,0.0,0.0,0.0,0.0,0.0,0.0,0.0,0.0,0.0,0.0,0.0,0.0,0.0,0.0,0.0,0.0,0.0,0.0,0.0,0.0,0.0,0.0,0.0,0.0,0.0,0.0,0.0,0.0,-2.6062,-2.6201,-2.6414,-2.6753,-2.7293,-2.8009,-2.8925,-2.9503,-3.0139,-3.0895,-3.0895,-3.1696,-3.3213,-3.3213,-3.3673,-3.4457,-3.5328,-3.5923,-3.6402,-3.768,-3.8202,-3.8202,-3.8202,-3.8202,-3.8202,-3.8202,-3.8202,-3.8202,0.0,0.0,0.0,0.0,0.0,0.0,0.0,0.0,0.0,0.0,0.0,0.0,0.0,0.0,0.0,0.0,0.0,0.0,0.0,0.0,0.0,0.0,0.0,0.0,0.0,0.0,0.0,0.0,0.0,0.0,0.0,-1.6116,-1.7261,-1.8487,-1.9371,-2.0089,0.0,0.0,0.0,-2.0566,0.0,0.0,-2.0566,0.0,0.0,0.0,0.0,0.0,0.0,0.0,0.0,0.0,0.0,0.0,0.0,0.0,0.0,0.0,-2.1242,0.0,0.0,0.0,0.0,0.0,0.0,0.0,0.0,0.0,0.0,0.0,0.0,0.0,0.0,0.0,0.0,0.0,0.0,0.0,0.0,0.0,0.0,0.0,0.0,0.0,0.0,0.0,0.0,0.0,-2.6201,-2.627,-2.6414,-2.6728,-2.7268,-2.7996,-2.8925,-2.9503,-3.0075,-3.0545,-3.0545,-3.1355,-3.2861,-3.2861,-3.3381,-3.4443,-3.5082,-3.572,-3.6388,-3.7462,-3.8028,-3.8202,-3.8202,-3.8202,-3.8202,-3.8202,-3.8202,-3.8202,0.0,0.0,0.0,0.0,0.0,0.0,0.0,0.0,0.0,0.0,0.0,0.0,0.0,0.0,0.0,0.0,0.0,0.0,0.0,0.0,0.0,0.0,0.0,0.0,0.0,0.0,0.0,0.0,0.0,0.0,0.0,0.0,-1.8318,-1.9301,-2.0167,-2.0566,-2.0566,0.0,-2.0566,-2.0566,0.0,-2.0566,-2.0566,0.0,0.0,0.0,-2.0566,-2.0566,0.0,-2.0566,0.0,0.0,0.0,0.0,0.0,0.0,0.0,0.0,0.0,0.0,0.0,0.0,0.0,0.0,0.0,0.0,0.0,0.0,0.0,0.0,0.0,0.0,0.0,0.0,0.0,0.0,0.0,0.0,0.0,0.0,0.0,0.0,0.0,0.0,0.0,0.0,0.0,-2.6213,-2.6213,-2.6396,-2.6703,-2.7243,-2.7795,-2.8348,-2.89,-2.9478,-2.9779,-2.9869,-2.9792,-3.0659,-3.2146,-3.2074,-3.296,-3.4443,-3.5067,-3.5706,-3.6359,-3.7027,-3.7665,-3.8202,-3.8202,-3.8202,-3.8202,-3.8202,-3.8202,-3.8202,0.0,0.0,0.0,0.0,0.0,0.0,0.0,0.0,0.0,0.0,0.0,0.0,0.0,0.0,0.0,0.0,0.0,0.0,0.0,0.0,0.0,0.0,0.0,0.0,0.0,0.0,0.0,0.0,0.0,0.0,0.0,0.0,0.0,0.0,-1.9923,-2.0566,-2.0566,-2.0566,0.0,0.0,-2.0566,-2.0566,0.0,0.0,0.0,0.0,0.0,-2.0566,-2.0566,0.0,-2.0566,-2.0566,0.0,0.0,0.0,0.0,0.0,0.0,-2.0566,0.0,0.0,0.0,0.0,0.0,0.0,0.0,0.0,0.0,0.0,0.0,0.0,0.0,0.0,0.0,0.0,0.0,0.0,0.0,0.0,0.0,0.0,0.0,0.0,0.0,0.0,0.0,0.0,-2.6396,-2.6396,-2.6465,-2.6596,-2.6747,-2.7218,-2.777,-2.8335,-2.8888,-2.9656,-3.062,-3.0062,-3.0872,-3.2861,-3.2362,-3.296,-3.4428,-3.4603,-3.5299,-3.6359,-3.7027,-3.7665,-3.8202,-3.8202,-3.8202,-3.8202,-3.8202,-3.8202,-3.8202,0.0,0.0,0.0,0.0,0.0,0.0,0.0,0.0,0.0,0.0,0.0,0.0,0.0,0.0,0.0,0.0,0.0,0.0,0.0,0.0,0.0,0.0,0.0,0.0,0.0,0.0,0.0,0.0,0.0,0.0,0.0,0.0,0.0,0.0,0.0,0.0,0.0,0.0,0.0,0.0,-2.0566,0.0,0.0,-2.0566,-2.0566,0.0,0.0,0.0,-2.0566,-2.0566,-2.0566,0.0,0.0,0.0,0.0,0.0,0.0,0.0,0.0,0.0,0.0,0.0,0.0,0.0,0.0,-2.2649,0.0,0.0,0.0,0.0,0.0,0.0,0.0,0.0,0.0,0.0,0.0,0.0,0.0,0.0,0.0,0.0,0.0,0.0,0.0,0.0,-2.6396,-2.6533,-2.6533,-2.6533,-2.6533,-2.6533,-2.6992,-2.7544,-2.8097,-2.8649,-2.9416,-3.0406,-3.0355,-3.1145,-3.272,-3.2577,-3.3241,-3.4414,-3.4414,-3.514,-3.6344,-3.6722,-3.7404,-3.8202,-3.8202,-3.8202,-3.8202,-3.8202,-3.8202,-3.8202,0.0,0.0,0.0,0.0,0.0,0.0,0.0,0.0,0.0,0.0,0.0,0.0,0.0,0.0,0.0,0.0,0.0,0.0,0.0,0.0,0.0,0.0,0.0,0.0,0.0,0.0,0.0,0.0,0.0,0.0,0.0,0.0,0.0,0.0,0.0,0.0,0.0,0.0,0.0,-2.0566,-2.0566,-2.0566,0.0,0.0,-2.0566,-2.0566,-2.0566,-2.0566,-2.0566,-2.0566,-2.0566,0.0,0.0,0.0,0.0,0.0,-2.0566,0.0,0.0,0.0,0.0,0.0,0.0,0.0,-2.2435,-2.2734,-2.3169,0.0,0.0,0.0,0.0,0.0,0.0,0.0,0.0,0.0,0.0,0.0,0.0,0.0,0.0,0.0,0.0,0.0,0.0,-2.6465,-2.6533,-2.6533,-2.6533,-2.6533,-2.6533,-2.6533,-2.6929,-2.7457,-2.8009,-2.8561,-2.9126,-2.9691,-3.0519,-3.1328,-3.2146,-3.2861,-3.3673,-3.4414,-3.4414,-3.514,-3.6301,-3.6301,-3.7056,-3.8202,-3.8202,-3.8202,-3.8202,-3.8202,-3.8202,-3.8202,0.0,0.0,0.0,0.0,0.0,0.0,0.0,0.0,0.0,0.0,0.0,0.0,0.0,0.0,0.0,0.0,0.0,0.0,0.0,0.0,0.0,0.0,0.0,0.0,0.0,0.0,0.0,0.0,0.0,0.0,0.0,0.0,0.0,0.0,0.0,0.0,0.0,0.0,0.0,-2.0566,-2.0566,0.0,-2.0566,-2.0566,-2.0566,-2.0566,-2.0566,-2.0566,-2.0566,0.0,-2.0566,-2.0566,0.0,0.0,0.0,0.0,0.0,0.0,0.0,0.0,0.0,0.0,0.0,0.0,-2.1021,-2.1088,-2.1318,0.0,0.0,0.0,0.0,0.0,0.0,0.0,0.0,0.0,0.0,0.0,0.0,0.0,0.0,0.0,0.0,0.0,-2.6465,-2.6533,-2.6533,-2.6533,-2.6533,-2.6533,-2.6533,-2.6533,-2.6634,-2.6892,-2.7444,-2.7996,-2.8549,-2.9101,-3.0325,-3.1328,-3.2146,-3.2861,-3.3673,-3.4414,-3.4414,-3.514,-3.6301,-3.6301,-3.7056,-3.8202,-3.8202,-3.8202,-3.8202,-3.8202,-3.8202,-3.8202,0.0,0.0,0.0,0.0,0.0,0.0,0.0,0.0,0.0,0.0,0.0,0.0,0.0,0.0,0.0,0.0,0.0,0.0,0.0,0.0,0.0,0.0,0.0,0.0,0.0,0.0,0.0,0.0,0.0,0.0,0.0,0.0,0.0,0.0,0.0,0.0,0.0,0.0,-2.0566,-2.0566,-2.0566,0.0,-2.0566,-2.0566,-2.0566,-2.0566,-2.0566,-2.0566,-2.0566,-2.0566,-2.0566,0.0,0.0,-2.0566,-2.0566,0.0,-2.0566,-2.0566,0.0,0.0,0.0,-2.0566,0.0,0.0,0.0,-2.1165,-2.1461,0.0,0.0,0.0,0.0,0.0,0.0,0.0,0.0,0.0,0.0,0.0,0.0,0.0,0.0,0.0,0.0,0.0,-2.6533,-2.6533,-2.6533,-2.6533,-2.6533,-2.6533,-2.6533,-2.6533,-2.6533,-2.6798,-2.7268,-2.7821,-2.8386,-2.8938,-3.0634,-3.1709,-3.2146,-3.3311,-3.4045,-3.4414,-3.4414,-3.514,-3.6301,-3.6301,-3.7056,-3.8202,-3.8202,-3.8202,-3.8202,-3.8202,-3.8202,-3.8202,0.0,0.0,0.0,0.0,0.0,0.0,0.0,0.0,0.0,0.0,0.0,0.0,0.0,0.0,0.0,0.0,0.0,0.0,0.0,0.0,0.0,0.0,0.0,-1.4088,0.0,0.0,0.0,0.0,0.0,0.0,0.0,0.0,0.0,0.0,0.0,0.0,0.0,0.0,0.0,-2.0566,0.0,-2.0566,-2.0566,-2.0566,-2.0566,-2.0566,-2.0566,-2.0566,-2.0566,-2.0566,0.0,-2.0566,-2.0566,-2.0566,0.0,0.0,0.0,0.0,0.0,0.0,0.0,0.0,0.0,-2.0789,0.0,0.0,0.0,0.0,0.0,0.0,0.0,0.0,0.0,0.0,0.0,0.0,0.0,0.0,0.0,0.0,0.0,0.0,0.0,0.0,-2.6533,-2.6533,-2.6533,-2.6533,-2.6533,-2.6533,-2.6533,-2.6533,-2.6533,-2.6747,-2.7118,-2.777,-2.8335,-2.8775,-3.1023,-3.2074,-3.2146,-3.3687,-3.4414,-3.4414,-3.4414,-3.514,-3.6301,-3.6301,-3.7056,-3.8202,-3.8202,-3.8202,-3.8202,-3.8202,-3.8202,-3.8202,-0.8077,-0.8012,0.0,0.0,0.0,0.0,0.0,0.0,0.0,0.0,0.0,0.0,0.0,0.0,0.0,0.0,0.0,0.0,-1.4088,0.0,0.0,0.0,0.0,0.0,-1.4088,0.0,0.0,0.0,0.0,0.0,0.0,0.0,0.0,0.0,-1.9854,0.0,0.0,0.0,-2.0566,0.0,-2.0566,-2.0566,0.0,-2.0566,-2.0566,-2.0566,-2.0566,-2.0566,-2.0566,0.0,-2.0566,-2.0566,0.0,-2.0566,-2.0566,0.0,0.0,0.0,0.0,0.0,0.0,0.0,-2.0566,0.0,0.0,0.0,-2.0789,0.0,0.0,0.0,0.0,0.0,0.0,0.0,0.0,0.0,0.0,0.0,0.0,0.0,0.0,0.0,0.0,0.0,0.0,-2.6533,-2.6533,-2.6533,-2.6533,-2.6533,-2.6533,-2.6533,-2.6533,-2.6559,-2.6622,-2.7582,-2.8134,-2.821,-3.0824,-3.2074,-3.2146,-3.3687,-3.4414,-3.4414,-3.4414,-3.514,-3.6301,-3.6301,-3.7056,-3.8202,-3.8202,-3.8202,-3.8202,-3.8202,-3.8202,-3.8202,-0.8365,-0.8337,0.0,0.0,0.0,0.0,0.0,0.0,0.0,0.0,0.0,0.0,0.0,0.0,0.0,0.0,0.0,-1.4088,0.0,0.0,0.0,0.0,0.0,0.0,0.0,0.0,0.0,0.0,-1.458,0.0,0.0,0.0,0.0,0.0,-1.9775,0.0,-2.0342,0.0,-2.0489,0.0,0.0,0.0,0.0,-2.0566,-2.0566,-2.0566,-2.0566,-2.0566,-2.0566,0.0,-2.0566,0.0,0.0,0.0,0.0,0.0,0.0,0.0,0.0,0.0,0.0,0.0,0.0,0.0,-2.0566,0.0,-2.0566,0.0,0.0,0.0,0.0,0.0,0.0,0.0,0.0,0.0,0.0,0.0,0.0,0.0,0.0,0.0,0.0,0.0,0.0,0.0,0.0,-2.6533,-2.6533,-2.6533,-2.6533,-2.6533,-2.6533,-2.6533,-2.6533,-2.7557,-2.8315,-2.8821,-3.1015,-3.229,-3.2791,-3.3894,-3.4414,-3.4414,-3.4414,-3.4922,-3.5778,-3.6156,-3.6852,-3.7723,-3.8072,-3.8202,-3.8202,-3.8202,-3.8202,-3.8202,-0.8568,-0.8568,0.0,0.0,0.0,0.0,0.0,0.0,0.0,0.0,0.0,0.0,-1.4088,-1.4088,0.0,0.0,-1.4088,-1.4088,0.0,0.0,-1.4088,0.0,0.0,0.0,0.0,0.0,0.0,0.0,0.0,0.0,0.0,0.0,0.0,0.0,0.0,-2.0108,-2.0186,0.0,0.0,-2.0566,-2.042,-2.0498,-2.0566,-2.0566,-2.0566,-2.0566,-2.0566,-2.0566,-2.0566,-2.0566,-2.0566,0.0,-2.0566,0.0,0.0,0.0,0.0,0.0,-2.0566,0.0,0.0,0.0,0.0,0.0,0.0,0.0,0.0,0.0,0.0,0.0,0.0,0.0,0.0,0.0,0.0,0.0,0.0,0.0,0.0,0.0,0.0,0.0,0.0,0.0,0.0,0.0,-2.6533,0.0,-2.6533,-2.6533,-2.6533,-2.6533,-2.6533,-2.6533,-2.6533,-2.7557,-2.8533,-2.9319,-3.1231,-3.2506,-3.3213,-3.4045,-3.4414,-3.4414,-3.4414,-3.4777,-3.5415,-3.604,-3.6707,-3.736,-3.797,-3.8202,-3.8202,-3.8202,-3.8202,-3.8202,-0.8568,-0.8568,0.0,0.0,0.0,0.0,0.0,0.0,0.0,0.0,0.0,0.0,0.0,0.0,0.0,0.0,0.0,-1.4088,-1.4088,0.0,-1.4088,0.0,0.0,-1.4088,0.0,0.0,0.0,0.0,0.0,0.0,0.0,0.0,0.0,0.0,0.0,-1.9715,-1.9942,-2.0186,-2.042,-2.0566,-2.0566,-2.0566,-2.0566,0.0,-2.0566,-2.0566,-2.0566,0.0,0.0,-2.0566,-2.0566,0.0,0.0,0.0,0.0,0.0,0.0,0.0,0.0,0.0,0.0,-2.0566,0.0,0.0,0.0,0.0,-2.0566,0.0,0.0,0.0,0.0,0.0,0.0,0.0,0.0,0.0,0.0,0.0,0.0,0.0,0.0,0.0,0.0,0.0,0.0,0.0,-2.6533,0.0,-2.6533,-2.6533,-2.6533,-2.6533,-2.6533,-2.6533,-2.6533,-2.7557,-2.8533,-2.9319,-3.1231,-3.2506,-3.3213,-3.4045,-3.4414,-3.4414,-3.4414,-3.4777,-3.5415,-3.604,-3.6707,-3.736,-3.797,-3.8202,-3.8202,-3.8202,-3.8202,-3.8202,-0.8568,0.0,0.0,0.0,0.0,0.0,0.0,-1.21,0.0,0.0,0.0,0.0,0.0,-1.4088,-1.4088,0.0,0.0,-1.4088,-1.4088,-1.4088,0.0,0.0,0.0,-1.4088,0.0,0.0,0.0,0.0,0.0,0.0,0.0,0.0,0.0,0.0,0.0,-1.9715,0.0,0.0,0.0,0.0,0.0,-2.0566,-2.0566,0.0,0.0,-2.0566,-2.0566,-2.0566,0.0,-2.0566,-2.0566,-2.0566,-2.0566,-2.0566,-2.0566,-2.0566,-2.0566,0.0,0.0,0.0,-2.0566,-2.0566,0.0,0.0,0.0,0.0,0.0,0.0,0.0,0.0,0.0,0.0,0.0,0.0,0.0,0.0,0.0,0.0,0.0,0.0,0.0,0.0,0.0,0.0,0.0,-2.6465,-2.6533,-2.6533,0.0,-2.6533,-2.6533,-2.6533,-2.6533,-2.6714,-2.7162,-2.7759,-2.9009,-3.0759,-3.1659,-3.2733,-3.4031,-3.4264,-3.4414,-3.4414,-3.4414,-3.453,-3.482,-3.5865,-3.6446,-3.6751,-3.7796,-3.8202,-3.8202,-3.8202,-3.8202,-3.8202,-0.8568,0.0,0.0,0.0,0.0,0.0,0.0,0.0,0.0,0.0,-1.3913,0.0,-1.4088,0.0,-1.4088,0.0,-1.4088,-1.4088,-1.4088,-1.4088,0.0,-1.4088,-1.4088,0.0,0.0,0.0,0.0,0.0,0.0,-1.4985,0.0,0.0,0.0,0.0,0.0,0.0,-1.9863,0.0,-2.0177,0.0,0.0,-2.0566,0.0,0.0,-2.0566,-2.0566,0.0,-2.0566,-2.0566,-2.0566,-2.0566,-2.0566,-2.0566,-2.0566,-2.0566,-2.0566,-2.0566,-2.0566,-2.0566,-2.0566,0.0,0.0,-2.0566,0.0,-2.0566,0.0,0.0,0.0,0.0,0.0,0.0,0.0,0.0,0.0,0.0,0.0,0.0,0.0,0.0,0.0,0.0,0.0,0.0,0.0,-2.6339,-2.6465,-2.6533,-2.6533,0.0,0.0,-2.6533,-2.6533,-2.6533,-2.685,-2.7484,-2.7888,-2.9209,-3.1523,-3.1885,-3.2889,-3.4414,-3.4414,-3.4414,-3.4414,-3.4414,-3.4414,-3.4516,-3.5778,-3.6301,-3.6431,-3.7709,-3.8202,-3.8202,-3.8202,-3.8202,-3.8202,-0.8568,0.0,0.0,0.0,-1.0033,0.0,0.0,0.0,-1.3743,0.0,-1.3568,-1.4088,-1.4088,-1.4088,-1.4088,-1.4088,-1.4088,-1.4088,-1.4088,-1.4088,0.0,0.0,-1.4088,-1.4088,-1.4088,0.0,0.0,0.0,0.0,0.0,0.0,0.0,0.0,0.0,-1.9301,0.0,-1.9863,-1.9863,-2.0177,-2.0566,-2.0566,-2.0566,-2.0566,-2.0566,0.0,-2.0566,-2.0566,-2.0566,-2.0566,-2.0566,-2.0566,-2.0566,-2.0566,-2.0566,-2.0566,-2.0566,-2.0566,-2.0566,-2.0566,-2.0566,-2.0566,-2.0566,0.0,0.0,0.0,0.0,-2.0644,0.0,0.0,0.0,0.0,0.0,0.0,0.0,0.0,0.0,0.0,0.0,0.0,0.0,0.0,0.0,0.0,-2.6533,-2.6533,-2.6533,-2.6533,0.0,0.0,0.0,0.0,-2.6533,-2.6521,-2.6837,-2.7537,-2.803,-2.935,-3.1523,-3.1956,-3.2946,-3.4414,-3.4414,-3.4414,-3.4414,-3.4414,-3.4414,-3.4516,-3.5778,-3.6301,-3.6431,-3.7709,-3.8202,-3.8202,-3.8202,-3.8202,-3.8202,-0.8568,-0.8568,-0.8568,0.0,-0.9515,-1.0376,0.0,0.0,0.0,0.0,-1.3913,-1.4088,-1.4088,-1.4088,-1.4088,-1.4088,-1.4088,0.0,0.0,0.0,0.0,-1.4088,-1.4088,-1.4088,-1.4088,-1.4088,0.0,-1.4088,0.0,0.0,-1.6698,0.0,0.0,0.0,0.0,0.0,-1.9863,-1.9863,-2.0098,-2.042,-2.0566,-2.0489,0.0,0.0,-2.0566,-2.0566,-2.0566,-2.0566,-2.0566,-2.0566,-2.0566,-2.0566,-2.0566,-2.0566,-2.0566,-2.0566,-2.0566,-2.0566,-2.0566,-2.0566,-2.0566,-2.0566,-2.1011,-2.1318,0.0,0.0,0.0,0.0,0.0,0.0,0.0,0.0,0.0,0.0,0.0,0.0,0.0,0.0,0.0,0.0,0.0,0.0,-2.6465,-2.6533,-2.6533,-2.6533,-2.6533,0.0,0.0,0.0,0.0,-2.6533,-2.6973,-2.7537,-2.8247,-2.924,-3.0596,-3.227,-3.272,-3.3451,-3.4414,-3.4414,-3.4414,-3.4414,-3.4414,-3.4414,-3.4516,-3.5778,-3.6301,-3.6431,-3.7709,-3.8202,-3.8202,-3.8202,-3.8202,-3.8202,-0.8568,0.0,0.0,-0.8666,0.0,0.0,-1.087,0.0,0.0,-1.3828,-1.4202,0.0,-1.4469,-1.4469,-1.4469,-1.4469,-1.4355,0.0,-1.4275,0.0,0.0,-1.4088,-1.4088,-1.4088,-1.4088,-1.4088,0.0,-1.4088,0.0,0.0,-1.6698,0.0,0.0,0.0,0.0,-1.946,0.0,-2.0029,-2.0098,-2.0186,-2.0411,0.0,0.0,-2.042,-2.0489,-2.0566,-2.0566,-2.0566,-2.0566,-2.0566,-2.0566,-2.0566,-2.0566,-2.0566,-2.0566,-2.0566,-2.0566,-2.0566,-2.0566,-2.0566,-2.0566,-2.0566,-2.0944,-2.1242,-2.1165,-2.1165,-2.1242,0.0,0.0,0.0,0.0,0.0,0.0,0.0,0.0,0.0,0.0,0.0,0.0,0.0,0.0,0.0,-2.6465,-2.6533,-2.6533,-2.6533,0.0,0.0,0.0,0.0,0.0,-2.6533,-2.6837,-2.755,-2.8492,-2.9443,-3.0732,-3.2527,-3.2993,-3.3589,-3.4414,-3.4414,-3.4414,-3.4414,-3.4414,-3.4414,-3.4516,-3.5778,-3.6301,-3.6431,-3.7709,-3.8202,-3.8202,-3.8202,-3.8202,-3.8202,-0.8637,0.0,0.0,0.0,0.0,0.0,0.0,-1.2904,0.0,-1.3832,0.0,-1.4963,-1.4963,-1.4963,-1.4963,-1.4963,0.0,-1.4583,-1.4583,-1.4302,-1.4142,-1.4142,-1.4108,-1.4088,-1.4088,-1.4088,-1.4088,0.0,0.0,0.0,0.0,0.0,0.0,0.0,0.0,0.0,0.0,-2.0108,-2.0108,0.0,-2.0186,-2.0264,-2.0186,-2.0264,-2.0333,-2.0489,-2.0566,-2.0566,-2.0566,-2.0566,-2.0566,-2.0566,-2.0566,-2.0566,-2.0566,-2.0566,-2.0566,-2.0566,-2.0566,-2.0566,-2.0566,-2.0566,-2.0644,-2.0944,-2.1538,-2.1242,-2.1011,-2.1538,-2.1231,0.0,0.0,0.0,0.0,0.0,0.0,0.0,0.0,0.0,0.0,0.0,0.0,0.0,0.0,0.0,0.0,0.0,0.0,0.0,0.0,0.0,0.0,0.0,-2.6714,0.0,-2.8484,0.0,-3.0637,-3.245,-3.3036,-3.3742,-3.4414,-3.4414,-3.4414,-3.4414,-3.4414,-3.4414,-3.4516,-3.5778,-3.6402,-3.6664,-3.7767,-3.8202,-3.8202,-3.8202,-3.8202,-3.8202,-0.9003,0.0,0.0,0.0,0.0,-1.2113,-1.3153,-1.3568,-1.3988,-1.4681,-1.4874,-1.4963,-1.4963,-1.4963,-1.4963,-1.4963,-1.4917,0.0,0.0,0.0,0.0,-1.4442,-1.4215,-1.4088,-1.4088,-1.4088,-1.4088,0.0,0.0,0.0,0.0,0.0,0.0,0.0,0.0,0.0,-1.9645,-2.0108,0.0,-1.9715,-2.0108,-2.0029,-1.9724,-1.9951,-2.002,-2.002,-2.0255,-2.0489,-2.0566,-2.0566,-2.0566,-2.0566,-2.0566,-2.0566,-2.0566,-2.0566,-2.0566,-2.0566,-2.0566,-2.0566,-2.0566,-2.0566,-2.1088,-2.1461,-2.0944,-2.1766,-2.2209,-2.1011,-2.1756,-2.236,-2.169,0.0,0.0,0.0,0.0,0.0,0.0,0.0,0.0,0.0,0.0,0.0,0.0,0.0,0.0,0.0,0.0,0.0,0.0,0.0,0.0,0.0,0.0,0.0,0.0,0.0,0.0,-3.2362,-3.3618,-3.4264,-3.4414,-3.4414,-3.4414,-3.4414,-3.4414,-3.4414,-3.4516,-3.5778,-3.6925,-3.7897,-3.8115,-3.8202,-3.8202,-3.8202,-3.8202,-3.8202,0.0,0.0,0.0,0.0,0.0,0.0,0.0,-1.4459,0.0,-1.5319,-1.5411,-1.5411,-1.5411,-1.5411,-1.5411,-1.5411,-1.5277,-1.519,-1.519,-1.4917,-1.475,-1.475,-1.4469,0.0,-1.4309,-1.4572,-1.458,-1.4088,0.0,0.0,0.0,0.0,0.0,0.0,0.0,-1.9381,0.0,0.0,0.0,-1.9469,-1.9794,-1.9794,-1.9636,-1.9715,-1.9794,-1.9942,-2.0029,-2.0264,-2.0489,-2.0566,-2.0566,-2.0566,-2.0566,-2.0566,-2.0566,-2.0566,-2.0566,-2.0566,-2.0566,-2.0566,-2.0566,-2.0566,-2.0867,-2.1165,-2.1242,-2.1842,-2.2285,-2.1907,-2.2435,-2.2883,-2.251,-2.3316,0.0,0.0,0.0,0.0,0.0,0.0,0.0,0.0,0.0,0.0,0.0,0.0,0.0,0.0,0.0,0.0,0.0,0.0,0.0,0.0,0.0,0.0,0.0,0.0,0.0,-3.2963,-3.396,-3.4414,-3.4414,-3.4414,-3.4414,-3.4414,-3.4414,-3.4414,-3.4516,-3.5778,-3.7056,-3.8202,-3.8202,-3.8202,-3.8202,-3.8202,-3.8202,-3.8202,0.0,-1.0318,0.0,0.0,-1.3025,0.0,-1.4549,-1.5255,-1.5832,-1.5832,-1.5832,-1.5832,-1.5832,-1.5832,-1.5832,-1.5832,-1.5618,-1.5491,-1.5491,-1.5217,-1.5057,-1.5057,-1.477,-1.4616,-1.4616,-1.5156,-1.5168,0.0,0.0,0.0,0.0,0.0,0.0,0.0,0.0,0.0,0.0,0.0,-1.9478,-1.9301,-1.9557,-1.9557,-1.9566,-1.9659,-1.9767,-1.9935,-2.001,-2.0207,-2.0445,-2.0682,-2.0644,-2.0566,-2.0566,-2.0566,-2.0566,-2.0566,-2.0566,-2.0566,-2.0566,-2.0566,-2.0566,-2.0566,-2.0566,-2.0789,-2.1385,-2.1832,-2.2209,-2.266,-2.3032,-2.3327,-2.3475,-2.3975,0.0,0.0,0.0,0.0,0.0,0.0,0.0,0.0,0.0,0.0,0.0,0.0,0.0,0.0,0.0,0.0,0.0,0.0,0.0,0.0,0.0,0.0,-3.0462,0.0,-3.2416,0.0,-3.41,-3.4414,-3.4414,-3.4414,-3.4414,-3.4414,-3.4414,-3.4559,-3.4893,-3.5894,-3.7056,-3.8202,-3.8202,-3.8202,-3.8202,-3.8202,-3.8202,-3.8202,0.0,0.0,0.0,0.0,0.0,0.0,0.0,-1.573,-1.5832,-1.5832,-1.5832,-1.5832,-1.5832,-1.5832,-1.5832,-1.5832,-1.5805,-1.5792,-1.5792,-1.5518,-1.5357,-1.5357,-1.5077,-1.4923,-1.4923,-1.5481,-1.574,0.0,0.0,0.0,0.0,0.0,0.0,0.0,0.0,0.0,0.0,-1.9478,-1.9478,-1.9301,-1.9557,-1.9478,-1.9347,-1.9723,-1.987,-1.9997,-2.0513,-2.0727,-2.081,-2.1097,-2.0909,-2.0566,-2.0566,-2.0566,-2.0566,-2.0566,-2.0566,-2.0566,-2.0566,-2.0566,-2.0566,-2.0566,-2.0566,-2.0644,-2.0722,-2.1832,-2.2734,-2.2059,-2.301,-2.4192,-2.4933,-2.5158,-2.5158,0.0,0.0,0.0,0.0,0.0,0.0,0.0,0.0,0.0,0.0,0.0,0.0,0.0,0.0,0.0,0.0,0.0,0.0,0.0,0.0,-2.9685,-3.0297,-3.2298,0.0,-3.3213,-3.4016,-3.4414,-3.4414,-3.4414,-3.4414,-3.4414,-3.4414,-3.5067,-3.6141,-3.6257,-3.7056,-3.8202,-3.8202,-3.8202,-3.8202,-3.8202,-3.8202,-3.8202,0.0,0.0,0.0,0.0,0.0,0.0,0.0,-1.5832,-1.5832,-1.5832,-1.5832,-1.5832,-1.5832,-1.5832,-1.5832,-1.5832,-1.5832,-1.5832,-1.5832,-1.5718,-1.5658,-1.5658,-1.5378,-1.5224,-1.5224,-1.5807,-1.5973,0.0,0.0,0.0,0.0,0.0,0.0,0.0,0.0,-1.9301,-1.9301,-1.939,-1.9528,-1.9677,-1.9767,-1.9905,-2.0053,-2.0218,-2.0283,-2.0301,-2.0541,-2.068,-2.0838,-2.0941,-2.1056,-2.1067,-2.0895,-2.0897,-2.0918,-2.0644,-2.0566,-2.0566,-2.0566,-2.0566,-2.0566,-2.0566,-2.0566,-2.0566,-2.0566,-2.1832,-2.2883,-2.2585,-2.3756,-2.4933,-2.5229,-2.5312,-2.5312,0.0,0.0,0.0,0.0,0.0,0.0,0.0,0.0,0.0,0.0,0.0,0.0,0.0,0.0,0.0,0.0,0.0,0.0,-3.019,0.0,-3.0977,-3.1613,-3.2861,-3.3642,-3.3894,-3.4264,-3.4414,-3.4414,-3.4414,-3.4414,-3.4428,-3.482,-3.5488,-3.6344,-3.6736,-3.7418,-3.8202,-3.8202,-3.8202,-3.8202,-3.8202,-3.8202,-3.8202,-1.3204,0.0,-1.4777,0.0,-1.535,-1.5832,-1.5832,-1.5832,-1.5832,-1.5832,-1.5832,-1.5832,-1.5832,-1.5832,-1.5832,-1.5832,-1.5832,-1.5832,-1.5832,-1.5832,-1.5832,-1.5832,-1.5631,0.0,-1.5524,-1.6126,-1.6293,-1.606,-1.6218,0.0,0.0,0.0,0.0,0.0,-1.9659,-1.9659,-1.9659,-1.9659,-1.9833,-2.0099,-2.0099,-2.0273,-2.053,-2.0649,-2.0695,-2.0704,-2.0833,-2.0955,-2.104,-2.104,-2.1306,-2.1654,-2.1192,-2.1182,-2.1277,-2.1045,-2.0957,-2.0957,-2.0957,-2.0859,-2.0762,-2.0762,-2.0664,-2.0566,-2.0566,-2.1832,-2.3106,-2.361,-2.4576,-2.5312,-2.5312,-2.5312,-2.5312,0.0,0.0,0.0,0.0,0.0,0.0,0.0,-2.5312,-2.5382,-2.5535,0.0,0.0,0.0,0.0,0.0,0.0,0.0,0.0,0.0,0.0,0.0,0.0,0.0,-3.3978,-3.4414,-3.4414,-3.4414,-3.4414,-3.4414,-3.4414,-3.4443,-3.5082,-3.572,-3.6359,-3.7027,-3.7665,-3.8202,-3.8202,-3.8202,-3.8202,-3.8202,-3.8202,-3.8202,-1.4244,-1.5064,-1.5737,-1.5737,-1.5825,-1.5832,-1.5832,-1.5832,-1.5832,-1.5832,-1.5832,-1.5832,-1.5832,-1.5832,-1.5832,-1.5832,-1.5832,-1.5832,-1.5832,-1.5832,-1.5832,0.0,0.0,-1.5825,-1.5825,-1.6352,-1.673,-1.6723,0.0,0.0,-1.9059,0.0,0.0,-2.0503,-2.0503,-2.0503,-2.0503,-2.0503,-2.0512,-2.0512,-2.0512,-2.0512,-2.0558,-2.0952,-2.1099,-2.1154,-2.1575,-2.1722,-2.1722,-2.1722,-2.19,-2.2026,-2.1635,-2.1451,-2.1534,-2.1783,-2.1865,-2.1865,-2.1865,-2.1553,-2.123,-2.123,-2.0889,-2.0566,-2.0566,-2.1832,-2.339,-2.4945,-2.5312,-2.5312,-2.5312,-2.5312,-2.5312,-2.5312,0.0,0.0,0.0,0.0,0.0,0.0,-2.5312,-2.5312,-2.5312,0.0,0.0,0.0,0.0,0.0,0.0,0.0,0.0,-3.142,-3.1496,0.0,-3.3441,-3.4095,-3.4399,-3.4414,-3.4414,-3.4414,-3.4414,-3.4414,-3.4414,-3.4443,-3.5082,-3.572,-3.6359,-3.7027,-3.7665,-3.8202,-3.8202,-3.8202,-3.8202,-3.8202,-3.8202,-3.8202,-1.533,-1.554,-1.5832,-1.5832,-1.5832,-1.5832,-1.5832,-1.5832,-1.5832,-1.5832,-1.5832,-1.5832,-1.5832,-1.5832,-1.5832,0.0,-1.5832,-1.5832,0.0,-1.5832,-1.5832,-1.5832,-1.5832,-1.5832,-1.5832,-1.6014,-1.6593,-1.774,0.0,0.0,0.0,-1.9478,-1.9911,-2.0521,-2.0521,-2.0521,-2.0521,-2.0521,-2.0677,-2.0924,-2.0924,-2.1089,-2.1365,-2.1493,-2.1539,-2.1557,-2.1686,-2.1741,-2.1741,-2.1741,-2.1741,-2.1872,-2.2042,-2.2036,-2.2003,-2.189,-2.1885,-2.1885,-2.1885,-2.1787,-2.168,-2.168,-2.1572,-2.1387,-2.1084,-2.207,-2.3475,-2.5016,-2.5312,-2.5312,-2.5312,-2.5312,-2.5312,-2.5312,0.0,0.0,0.0,0.0,0.0,0.0,0.0,-2.5312,0.0,-2.5664,0.0,0.0,0.0,0.0,0.0,0.0,0.0,0.0,-3.2392,0.0,-3.347,-3.4095,-3.4414,-3.4414,-3.4414,-3.4414,-3.4428,-3.4864,-3.5067,-3.5125,-3.6214,-3.6809,-3.7041,-3.7665,-3.8028,-3.8202,-3.8202,-3.8202,-3.8202,-3.8202,-3.8202,-3.8202,-1.5832,-1.5832,-1.5865,-1.5979,-1.5999,-1.6032,-1.6146,-1.6159,-1.6159,-1.6159,-1.6159,-1.6159,-1.6159,-1.6159,0.0,-1.5845,-1.5832,-1.5832,-1.5832,-1.5832,-1.5832,-1.5832,-1.5832,-1.5832,-1.5832,0.0,0.0,-1.7842,-1.8099,-1.8881,-2.0183,-2.0183,-2.0443,-2.097,-2.097,-2.097,-2.097,-2.097,-2.1117,-2.1346,-2.1346,-2.1502,-2.1741,-2.1741,-2.1741,-2.1741,-2.1741,-2.1741,-2.1741,-2.1741,-2.1741,-2.182,-2.2264,-2.2358,-2.2275,-2.2357,-2.2353,-2.2353,-2.2353,-2.2236,-2.2119,-2.2119,-2.2002,-2.1971,-2.2321,-2.2949,-2.3902,-2.5277,-2.5612,-2.554,-2.5348,-2.5312,-2.5312,-2.5312,0.0,-2.5312,0.0,0.0,0.0,0.0,0.0,0.0,0.0,-2.6116,0.0,0.0,0.0,0.0,0.0,0.0,0.0,-3.211,-3.3035,0.0,-3.3819,-3.4211,-3.4414,-3.4414,-3.4414,-3.4545,-3.4777,-3.5183,-3.5488,-3.5778,-3.6838,-3.7302,-3.736,-3.7955,-3.8202,-3.8202,-3.8202,-3.8202,-3.8202,-3.8202,-3.8202,-3.8202,-1.5885,-1.5892,0.0,0.0,-1.6299,0.0,-1.6667,-1.6707,-1.6707,-1.6707,-1.6707,-1.6707,-1.6707,-1.6707,-1.6486,-1.5939,0.0,0.0,0.0,-1.5832,-1.5832,-1.5832,-1.5832,0.0,-1.5832,-1.5825,-1.6386,-1.7512,-1.9338,-2.0808,-2.1741,-2.1741,-2.1741,-2.1741,-2.1741,-2.1741,-2.1741,-2.1741,-2.1741,-2.1741,-2.1741,-2.1741,-2.1741,-2.1741,-2.1741,-2.1741,-2.1741,-2.1741,-2.1741,-2.1741,-2.1741,-2.182,-2.2264,-2.2353,-2.253,-2.296,-2.3135,-2.3135,-2.3135,-2.2852,-2.2559,-2.2559,-2.2236,-2.2409,-2.4068,-2.4432,-2.4748,-2.5882,-2.6154,-2.6009,-2.5516,-2.542,-2.5408,-2.5372,-2.536,-2.5348,-2.5312,0.0,0.0,0.0,0.0,0.0,0.0,-2.7177,-2.8386,0.0,0.0,0.0,0.0,0.0,-3.2156,-3.3177,-3.3448,-3.3819,-3.4399,-3.4414,-3.4428,-3.4486,-3.4486,-3.482,-3.543,-3.5473,-3.5822,-3.6417,-3.7085,-3.7375,-3.7418,-3.797,-3.8202,-3.8202,-3.8202,-3.8202,-3.8202,-3.8202,-3.8202,-3.8202,0.0,0.0,-1.652,-1.6587,-1.6607,-1.6627,-1.6693,-1.6707,-1.6707,-1.6707,-1.6707,-1.6707,-1.6707,-1.6707,-1.6653,-1.6513,-1.6293,-1.6072,-1.5845,-1.5832,-1.5832,-1.5832,-1.5832,-1.5832,-1.5832,-1.6581,-1.7777,-1.9613,-2.0068,-2.0808,-2.1741,-2.1741,-2.1741,-2.1741,-2.1741,-2.1741,-2.1741,-2.1741,-2.1741,-2.1741,-2.1741,-2.1741,-2.1741,-2.1741,-2.1741,-2.1741,-2.1741,-2.1741,-2.1741,-2.1741,-2.1741,-2.1741,-2.2087,-2.2264,-2.253,-2.296,-2.3135,-2.3135,-2.3135,-2.3066,-2.2988,-2.2988,-2.2676,-2.2765,-2.4459,-2.4581,-2.4848,-2.6368,-2.6731,-2.6695,-2.6574,-2.655,-2.6406,-2.5973,-2.5913,-2.5769,-2.536,0.0,0.0,0.0,-2.6286,-2.655,-2.655,-2.7505,-2.8421,0.0,0.0,0.0,0.0,0.0,-3.3389,-3.3206,-3.3868,-3.4269,-3.4414,-3.4414,-3.4661,-3.514,-3.514,-3.5473,-3.6098,-3.662,-3.6925,-3.7114,-3.7723,-3.7984,-3.7999,-3.8144,-3.8202,-3.8202,-3.8202,-3.8202,-3.8202,-3.8202,-3.8202,-3.8202,-1.6673,-1.6707,-1.6747,-1.6881,-1.6907,-1.6954,-1.7088,-1.7108,-1.7108,-1.7108,-1.7108,-1.7108,-1.7108,-1.7108,-1.7054,-1.6921,-1.652,-1.6206,-1.6046,-1.5905,-1.5832,-1.5832,-1.5832,-1.5832,-1.5832,-1.6298,-1.7591,-1.9613,-2.0068,-2.0808,-2.1741,-2.1741,-2.1741,-2.1741,-2.1741,-2.1741,-2.1741,-2.1741,-2.1741,-2.1741,-2.1741,-2.1741,-2.1741,-2.1741,-2.1741,-2.1741,-2.1741,-2.1741,-2.1741,-2.1741,-2.1741,-2.1741,-2.2008,-2.2185,-2.2353,-2.2794,-2.3057,-2.3135,-2.3135,-2.3135,-2.3135,-2.3135,-2.2969,-2.3212,-2.4941,-2.5158,-2.5483,-2.6949,-2.7296,-2.7224,-2.6983,-2.6935,-2.6827,-2.6526,-2.6478,-2.6382,-2.6093,-2.6298,0.0,-2.6478,-2.6755,-2.7073,-2.7422,-2.8432,-2.9359,-3.0214,0.0,0.0,-3.3081,-3.3682,-3.3916,-3.3624,-3.409,-3.4414,-3.4414,-3.4704,-3.5024,-3.5427,-3.5662,-3.6141,-3.678,-3.7143,-3.7462,-3.7738,-3.8057,-3.8202,-3.8202,-3.8202,-3.8202,-3.8202,-3.8202,-3.8202,-3.8202,-3.8202,-3.8202,-3.8202,-1.6827,-1.684,-1.6921,-1.7168,-1.7215,-1.7295,-1.7549,-1.7582,-1.7582,-1.7582,-1.7582,-1.7582,-1.7582,-1.7582,-1.7482,-1.7235,-1.672,-1.6366,-1.6279,-1.6039,-1.5879,-1.5832,-1.5832,-1.5832,-1.5832,-1.5832,-1.685,-1.9063,-1.9704,-2.0619,-2.1741,-2.1741,-2.1741,-2.1741,-2.1741,-2.1741,-2.1741,-2.1741,-2.1741,-2.1741,-2.1741,-2.1741,-2.1741,-2.1741,-2.1741,-2.1741,-2.1741,-2.1741,-2.1741,-2.1741,-2.1741,-2.1741,-2.2008,-2.2097,-2.2185,-2.2618,-2.2882,-2.3057,-2.3057,-2.3135,-2.3135,-2.3135,-2.3135,-2.3551,-2.5411,-2.5819,-2.6206,-2.753,-2.7837,-2.7705,-2.726,-2.7176,-2.7152,-2.7067,-2.7055,-2.7031,-2.6947,0.0,-2.7055,-2.7055,-2.7128,-2.7378,-2.8089,-2.9305,-3.0382,-3.1186,-3.2414,0.0,0.0,-3.3675,-3.3994,-3.4257,-3.4322,-3.4457,-3.4559,-3.5183,-3.5561,-3.5662,-3.6199,-3.6809,-3.7447,-3.7447,-3.7723,-3.8202,-3.8202,-3.8202,-3.8202,-3.8202,-3.8202,-3.8202,-3.8202,-3.8202,-3.8202,-3.8202,-3.8202,-3.8202,-1.7395,-1.7448,-1.7462,-1.7508,-1.7515,-1.7528,-1.7575,-1.7582,-1.7582,-1.7582,-1.7582,-1.7582,-1.7582,-1.7582,-1.7562,-1.7515,-1.7208,-1.68,-1.6306,-1.6226,-1.6092,-1.5838,-1.5832,-1.5832,-1.5832,-1.5832,-1.721,-2.0068,-1.9338,-1.9985,-2.1741,-2.1741,-2.1741,-2.1741,-2.1741,-2.1741,-2.1741,-2.1741,-2.1741,-2.1741,-2.1741,-2.1741,-2.1741,-2.1741,-2.1741,-2.1741,-2.1741,-2.1741,-2.1741,-2.1741,-2.1741,-2.1741,-2.1741,-2.1919,-2.2185,-2.2353,-2.2618,-2.2882,-2.3047,-2.3135,-2.3135,-2.3135,-2.3135,-2.3551,-2.5411,-2.5819,-2.6307,-2.7992,-2.839,-2.8366,-2.8282,-2.827,-2.8114,-2.7669,-2.7596,-2.744,0.0,0.0,-2.7596,-2.7596,-2.7993,-2.8337,-2.8415,-2.9232,-3.01,-3.09,-3.1802,-3.269,-3.3536,-3.3758,-3.4194,-3.4905,-3.4621,-3.4675,-3.5212,-3.5836,-3.6446,-3.7012,-3.7114,-3.7476,-3.8072,-3.8072,-3.8115,-3.8202,-3.8202,-3.8202,-3.8202,-3.8202,-3.8202,-3.8202,-3.8202,-3.8202,-3.8202,-3.8202,-3.8202,-3.8202,-1.7555,-1.7582,-1.7582,-1.7582,-1.7582,-1.7582,-1.7582,-1.7582,-1.7582,-1.7582,-1.7582,-1.7582,-1.7582,-1.7582,-1.7582,-1.7582,-1.7462,-1.7201,-1.6774,-1.6593,-1.6373,-1.6079,-1.6072,-1.5992,-1.5832,-1.5832,-1.703,-1.9521,-1.9063,-1.9803,-2.1741,-2.1741,-2.1741,-2.1741,-2.1741,-2.1741,-2.1741,-2.1741,-2.1741,-2.1741,-2.1741,-2.1741,-2.1741,-2.1741,-2.1741,-2.1741,-2.1741,-2.1741,-2.1741,-2.1741,-2.1741,-2.1741,-2.1741,-2.1741,-2.1919,-2.2185,-2.2618,-2.2969,-2.3057,-2.3135,-2.3222,-2.3734,-2.382,-2.4327,-2.6163,-2.6588,-2.6917,-2.8259,-2.851,-2.851,-2.851,-2.851,-2.8426,-2.8186,-2.815,0.0,0.0,-2.7993,-2.815,-2.815,-2.8366,-2.8657,-2.9106,-2.9845,-3.067,-3.1489,-3.2318,-3.307,-3.3874,-3.4228,-3.471,-3.5397,-3.5435,-3.5575,-3.5865,-3.6519,-3.6997,-3.7302,-3.7636,-3.7941,-3.8202,-3.8202,-3.8202,-3.8202,-3.8202,-3.8202,-3.8202,-3.8202,-3.8202,-3.8202,-3.8202,-3.8202,-3.8202,-3.8202,-3.8202,-3.8202,-1.7582,-1.7582,-1.7582,-1.7582,-1.7582,-1.7582,-1.7582,-1.7582,-1.7582,-1.7582,-1.7582,-1.7582,-1.7582,-1.7582,-1.7582,-1.7582,-1.7582,-1.7488,-1.7268,-1.7034,-1.6747,-1.6386,-1.6306,-1.6132,-1.5838,-1.5832,-1.6756,-1.8788,-1.8788,-1.9803,-2.1741,-2.1741,-2.1741,-2.1741,-2.1741,-2.1741,-2.1741,-2.1741,-2.1741,-2.1741,-2.1741,-2.1741,-2.1741,-2.1741,-2.1741,-2.1741,-2.1741,-2.1741,-2.1741,-2.1741,-2.1741,-2.1741,-2.1741,-2.1741,-2.1731,-2.2008,-2.253,-2.3057,-2.3057,-2.3135,-2.3309,-2.3983,-2.4327,-2.4914,-2.6505,-2.701,-2.7429,-2.8339,-2.851,-2.851,-2.851,-2.851,-2.851,-2.851,0.0,0.0,0.0,-2.851,-2.851,-2.851,-2.851,-2.8736,-2.9328,-3.0152,-3.1022,-3.1971,-3.2767,-3.3561,-3.4421,-3.4796,-3.5354,-3.6056,-3.6389,-3.6533,-3.6533,-3.7186,-3.752,-3.752,-3.7984,-3.8202,-3.8202,-3.8202,-3.8202,-3.8202,-3.8202,-3.8202,-3.8202,-3.8202,-3.8202,-3.8202,-3.8202,-3.8202,-3.8202,-3.8202,-3.8202,-3.8202,-1.7582,-1.7582,-1.7582,-1.7582,-1.7582,-1.7582,-1.7582,-1.7582,-1.7582,-1.7582,-1.7582,-1.7582,-1.7582,-1.7582,-1.7582,-1.7582,-1.7582,-1.7569,-1.7555,-1.7528,-1.7268,-1.67,-1.642,-1.6132,-1.5838,-1.5832,-1.6756,-1.8788,-1.8788,-1.9803,-2.1741,-2.1741,-2.1741,-2.1741,-2.1741,-2.1741,-2.1741,-2.1741,-2.1741,-2.1741,-2.1741,-2.1741,-2.1741,-2.1741,-2.1741,-2.1741,-2.1741,-2.1741,-2.1741,-2.1741,-2.1741,-2.1741,-2.1741,-2.1741,-2.1731,-2.2008,-2.2451,-2.2882,-2.3047,-2.3135,-2.3135,-2.3222,-2.3907,-2.4744,-2.5663,-2.6588,-2.7429,-2.8339,-2.851,-2.851,-2.851,-2.851,-2.851,-2.851,0.0,0.0,-2.851,-2.851,-2.851,-2.851,-2.851,-2.851,-2.8578,-2.9328,-3.0356,-3.1716,-3.2589,-3.3633,-3.5054,-3.5421,-3.6085,-3.7142,-3.723,-3.723,-3.723,-3.7839,-3.813,-3.813,-3.8188,-3.8202,-3.8202,-3.8202,-3.8202,-3.8202,-3.8202,-3.8202,-3.8202,-3.8202,-3.8202,-3.8202,-3.8202,-3.8202,-3.8202,-3.8202,-3.8202,-3.8202,-1.7582,-1.7582,-1.7582,-1.7582,-1.7582,-1.7582,-1.7582,-1.7582,-1.7582,-1.7582,-1.7582,-1.7582,-1.7582,-1.7582,-1.7582,-1.7582,-1.7582,-1.7582,-1.7582,-1.7582,-1.7402,-1.7001,-1.67,-1.6406,-1.6112,-1.6106,-1.6947,-1.8788,-1.8788,-1.9803,-2.1741,-2.1741,-2.1741,-2.1741,-2.1741,-2.1741,-2.1741,-2.1741,-2.1741,-2.1741,-2.1741,-2.1741,-2.1741,-2.1741,-2.1741,-2.1741,-2.1741,-2.1741,-2.1741,-2.1741,-2.1741,-2.1741,-2.1741,-2.1741,-2.1731,-2.2008,-2.2274,-2.2618,-2.2882,-2.2969,-2.3387,-2.4478,-2.5073,-2.5663,-2.7162,-2.7753,-2.8099,-2.8431,-2.851,-2.851,-2.851,-2.851,-2.851,-2.851,0.0,-2.851,-2.851,-2.851,-2.851,-2.851,-2.851,-2.8643,-2.8967,-2.9757,-3.0747,-3.215,-3.3055,-3.4176,-3.5686,-3.6457,-3.7086,-3.7659,-3.7794,-3.7868,-3.7868,-3.8086,-3.8202,-3.8202,-3.8202,-3.8202,-3.8202,-3.8202,-3.8202,-3.8202,-3.8202,-3.8202,-3.8202,-3.8202,-3.8202,-3.8202,-3.8202,-3.8202,-3.8202,-3.8202,-3.8202,-3.8202,-1.7582,-1.7582,-1.7582,-1.7582,-1.7582,-1.7582,-1.7582,-1.7582,-1.7582,-1.7582,-1.7582,-1.7582,-1.7582,-1.7582,-1.7582,-1.7582,-1.7582,-1.7582,-1.7582,-1.7582,-1.7455,-1.7161,-1.6954,-1.6707,-1.6413,-1.6319,-1.7117,-1.8955,-1.8843,-1.9803,-2.1741,-2.1741,-2.1741,-2.1741,-2.1741,-2.1741,-2.1741,-2.1741,-2.1741,-2.1741,-2.1741,-2.1741,-2.1741,-2.1741,-2.1741,-2.1741,-2.1741,-2.1741,-2.1741,-2.1741,-2.1741,-2.1741,-2.1741,-2.1741,-2.1731,-2.2008,-2.2185,-2.2353,-2.2715,-2.2882,-2.3387,-2.4988,-2.5579,-2.6235,-2.7753,-2.8259,-2.851,-2.851,-2.851,-2.851,-2.851,-2.851,-2.851,-2.851,-2.851,-2.851,-2.851,-2.851,-2.857,-2.8739,-2.8751,-2.8967,-2.9496,-3.0244,-3.1238,-3.2429,-3.35,-3.4794,-3.6395,-3.7153,-3.7625,-3.7777,-3.7991,-3.8142,-3.8142,-3.8202,-3.8202,-3.8202,-3.8202,-3.8202,-3.8202,-3.8202,-3.8202,-3.8202,-3.8202,-3.8202,-3.8202,-3.8202,-3.8202,-3.8202,-3.8202,-3.8202,-3.8202,-3.8202,-3.8202,-3.8202,-1.7582,-1.7582,-1.7582,-1.7582,-1.7582,-1.7582,-1.7582,-1.7582,-1.7582,-1.7582,-1.7582,-1.7582,-1.7582,-1.7582,-1.7582,-1.7582,-1.7582,-1.7582,-1.7582,-1.7582,-1.7455,-1.7161,-1.7154,-1.7014,-1.6714,-1.6426,-1.7223,-1.9209,-1.897,-1.9812,-2.1741,-2.1741,-2.1741,-2.1741,-2.1741,-2.1741,-2.1741,-2.1741,-2.1741,-2.1741,-2.1741,-2.1741,-2.1741,-2.1741,-2.1741,-2.1741,-2.1741,-2.1741,-2.1741,-2.1741,-2.1741,-2.1741,-2.1741,-2.1741,-2.1731,-2.2008,-2.2097,-2.2185,-2.2627,-2.2803,-2.3057,-2.4241,-2.5158,-2.608,-2.701,-2.7846,-2.851,-2.851,-2.851,-2.851,-2.851,-2.851,-2.851,-2.851,-2.851,-2.851,-2.8522,-2.8522,-2.8715,-2.9244,-2.9304,-2.9508,-3.0037,-3.0799,-3.1574,-3.2127,-3.3779,-3.5489,-3.7183,-3.7303,-3.738,-3.7625,-3.7777,-3.7929,-3.7929,-3.8142,-3.8202,-3.8202,-3.8202,-3.8202,-3.8202,-3.8202,-3.8202,-3.8202,-3.8202,-3.8202,-3.8202,-3.8202,-3.8202,-3.8202,-3.8202,-3.8202,-3.8202,-3.8202,-3.8202,-3.8202,-1.7582,-1.7582,-1.7582,-1.7582,-1.7582,-1.7582,-1.7582,-1.7582,-1.7582,-1.7582,-1.7582,-1.7582,-1.7582,-1.7582,-1.7582,-1.7582,-1.7582,-1.7582,-1.7582,-1.7582,-1.7542,-1.7455,-1.7455,-1.7321,-1.7021,-1.7722,-1.8548,-1.9662,-2.033,-2.1197,-2.2144,-2.2144,-2.2006,-2.1741,-2.1741,-2.1741,-2.1741,-2.1741,-2.1741,-2.1741,-2.1741,-2.1741,-2.1741,-2.1741,-2.1741,-2.1741,-2.1741,-2.1741,-2.1741,-2.1741,-2.1741,-2.1741,-2.1741,-2.1741,-2.1741,-2.183,-2.1919,-2.2097,-2.2274,-2.2539,-2.3222,-2.4988,-2.5568,-2.6246,-2.7753,-2.8339,-2.851,-2.851,-2.851,-2.851,-2.851,-2.851,-2.851,-2.851,-2.851,-2.8643,-2.9015,-2.9063,-2.9256,-2.9785,-2.9845,-3.0062,-3.0591,-3.0883,-3.1503,-3.2704,-3.44,-3.5639,-3.6149,-3.6886,-3.7303,-3.738,-3.7625,-3.7701,-3.7701,-3.8052,-3.8202,-3.8202,-3.8202,-3.8202,-3.8202,-3.8202,-3.8202,-3.8202,-3.8202,-3.8202,-3.8202,-3.8202,-3.8202,-3.8202,-3.8202,-3.8202,-3.8202,-3.8202,-3.8202,-3.8202,-1.7582,-1.7582,-1.7582,-1.7582,-1.7582,-1.7582,-1.7582,-1.7582,-1.7582,-1.7582,-1.7582,-1.7582,-1.7582,-1.7582,-1.7582,-1.7582,-1.7582,-1.7582,-1.7582,-1.7582,-1.7582,-1.7582,-1.7582,-1.7502,-1.7328,-1.7914,-1.875,-2.0019,-2.0572,-2.1458,-2.2575,-2.2575,-2.2447,-2.2126,-2.2126,-2.2126,-2.197,-2.197,-2.1878,-2.1741,-2.1741,-2.1741,-2.1741,-2.1741,-2.1741,-2.1741,-2.1741,-2.1741,-2.1741,-2.1741,-2.1741,-2.1741,-2.1741,-2.1741,-2.1741,-2.1741,-2.183,-2.1919,-2.2097,-2.2362,-2.3038,-2.4723,-2.5484,-2.6163,-2.7672,-2.8259,-2.851,-2.851,-2.851,-2.851,-2.851,-2.8679,-2.8823,-2.8823,-2.8991,-2.9244,-2.9569,-2.9617,-2.9809,-3.0338,-3.0398,-3.0603,-3.1132,-3.1192,-3.1735,-3.2882,-3.3985,-3.491,-3.5655,-3.6308,-3.6822,-3.7148,-3.738,-3.7457,-3.7457,-3.7839,-3.7991,-3.8066,-3.8127,-3.8202,-3.8202,-3.8202,-3.8202,-3.8202,-3.8202,-3.8202,-3.8202,-3.8202,-3.8202,-3.8202,-3.8202,-3.8202,-3.8202,-3.8202,-3.8202,-3.8202,-1.7582,-1.7582,-1.7582,-1.7582,-1.7582,-1.7582,-1.7582,-1.7582,-1.7582,-1.7582,-1.7582,-1.7582,-1.7582,-1.7582,-1.7582,-1.7582,-1.7582,-1.7582,-1.7582,-1.7582,-1.7582,-1.7582,-1.7582,-1.7582,-1.7582,-1.7425,-1.8397,-2.0384,-2.0165,-2.1071,-2.2911,-2.2911,-2.2893,-2.2857,-2.2857,-2.274,-2.2382,-2.2382,-2.2171,-2.1851,-2.1851,-2.1851,-2.1841,-2.1805,-2.1786,-2.1786,-2.175,-2.1741,-2.1741,-2.1741,-2.1741,-2.1741,-2.1741,-2.1741,-2.1741,-2.1741,-2.1741,-2.1731,-2.2008,-2.2264,-2.2696,-2.3764,-2.4871,-2.5957,-2.7021,-2.7846,-2.8443,-2.857,-2.8582,-2.8595,-2.8643,-2.9039,-2.9364,-2.9364,-2.9773,-3.011,-3.0146,-3.0158,-3.035,-3.0879,-3.0951,-3.1132,-3.1613,-3.1661,-3.2001,-3.2821,-3.2993,-3.3733,-3.5494,-3.5655,-3.6084,-3.6978,-3.7148,-3.7303,-3.7303,-3.7457,-3.7701,-3.7853,-3.8066,-3.8202,-3.8202,-3.8202,-3.8202,-3.8202,-3.8202,-3.8202,-3.8202,-3.8202,-3.8202,-3.8202,-3.8202,-3.8202,-3.8202,-3.8202,-3.8202,-3.8202,-1.7582,-1.7582,-1.7582,-1.7582,-1.7582,-1.7582,-1.7582,-1.7582,-1.7582,-1.7582,-1.7582,-1.7582,-1.7582,-1.7582,-1.7582,-1.7582,-1.7582,-1.7582,-1.7582,-1.7582,-1.7582,-1.7582,-1.7582,-1.7582,-1.7582,-1.8338,-1.9435,-2.0766,-2.1502,-2.242,-2.3419,-2.3419,-2.3149,-2.2857,-2.2857,-2.2811,-2.2729,-2.2729,-2.2674,-2.2601,-2.2601,-2.2601,-2.2657,-2.2318,-2.2199,-2.2162,-2.1851,-2.1741,-2.1741,-2.1741,-2.1741,-2.1741,-2.1741,-2.1741,-2.1741,-2.1741,-2.1741,-2.1731,-2.1731,-2.2087,-2.2517,-2.3198,-2.4323,-2.5604,-2.6937,-2.7348,-2.7789,-2.8877,-2.9124,-2.9256,-2.9677,-2.9845,-2.9917,-2.9917,-3.0013,-3.023,-3.0651,-3.0699,-3.0903,-3.1432,-3.1492,-3.1541,-3.1661,-3.1661,-3.1749,-3.2001,-3.2575,-3.3479,-3.4555,-3.5318,-3.6084,-3.6978,-3.7056,-3.707,-3.707,-3.7226,-3.7457,-3.7701,-3.7853,-3.8005,-3.8005,-3.8142,-3.8202,-3.8202,-3.8202,-3.8202,-3.8202,-3.8202,-3.8202,-3.8202,-3.8202,-3.8202,-3.8202,-3.8202,-3.8202,-3.8202,-1.7582,-1.7582,-1.7582,-1.7582,-1.7582,-1.7582,-1.7582,-1.7582,-1.7582,-1.7582,-1.7582,-1.7582,-1.7582,-1.7582,-1.7582,-1.7582,-1.7582,-1.7582,-1.7582,-1.7582,-1.7582,-1.7582,-1.7582,-1.7582,-1.7582,-1.861,-1.9746,-2.0885,-2.1497,-2.2424,-2.3831,-2.3831,-2.3721,-2.3529,-2.3529,-2.3419,-2.3235,-2.3235,-2.3125,-2.2857,-2.2857,-2.2857,-2.2838,-2.2712,-2.2621,-2.2593,-2.2392,-2.2227,-2.2199,-2.208,-2.2016,-2.2016,-2.2016,-2.2016,-2.2052,-2.2254,-2.2227,-2.2227,-2.2227,-2.2674,-2.3085,-2.3303,-2.4425,-2.5774,-2.7012,-2.7549,-2.8217,-2.9439,-2.9677,-2.9761,-3.0037,-3.029,-3.0458,-3.0458,-3.0675,-3.0939,-3.1216,-3.1252,-3.136,-3.1637,-3.1661,-3.1661,-3.1661,-3.1661,-3.1661,-3.1661,-3.2164,-3.2735,-3.3649,-3.4152,-3.4992,-3.6322,-3.6401,-3.6573,-3.6978,-3.707,-3.7226,-3.7303,-3.7625,-3.7777,-3.7929,-3.7991,-3.8142,-3.8202,-3.8202,-3.8202,-3.8202,-3.8202,-3.8202,-3.8202,-3.8202,-3.8202,-3.8202,-3.8202,-3.8202,-3.8202,-1.7582,-1.7582,-1.7582,-1.7582,-1.7582,-1.7582,-1.7582,-1.7582,-1.7582,-1.7582,-1.7582,-1.7582,-1.7582,-1.7582,-1.7582,-1.7582,-1.7582,-1.7582,-1.7582,-1.7582,-1.7582,-1.7582,-1.7582,-1.7582,-1.7582,-1.861,-1.9746,-2.0885,-2.1089,-2.2215,-2.4152,-2.4152,-2.4152,-2.4152,-2.4152,-2.396,-2.3648,-2.3648,-2.3464,-2.3162,-2.3162,-2.3162,-2.3153,-2.2984,-2.2957,-2.2948,-2.2884,-2.2857,-2.2811,-2.2547,-2.2437,-2.2437,-2.2437,-2.2437,-2.2502,-2.2756,-2.2857,-2.2857,-2.2857,-2.3224,-2.3701,-2.3767,-2.4871,-2.6239,-2.7312,-2.8085,-2.8958,-3.0025,-3.0218,-3.0254,-3.0338,-3.0723,-3.1011,-3.1011,-3.1384,-3.1661,-3.1661,-3.1661,-3.1661,-3.1661,-3.1661,-3.1661,-3.1661,-3.1661,-3.1661,-3.1661,-3.1661,-3.2077,-3.298,-3.298,-3.3817,-3.5655,-3.5669,-3.6163,-3.6978,-3.6978,-3.6978,-3.6978,-3.738,-3.7625,-3.7853,-3.7929,-3.8066,-3.8202,-3.8202,-3.8202,-3.8202,-3.8202,-3.8202,-3.8202,-3.8202,-3.8202,-3.8202,-3.8202,-3.8202,-3.8202,-1.7582,-1.7582,-1.7582,-1.7582,-1.7582,-1.7582,-1.7582,-1.7582,-1.7582,-1.7582,-1.7582,-1.7582,-1.7582,-1.7582,-1.7582,-1.7582,-1.7582,-1.7582,-1.7582,-1.7582,-1.7582,-1.7582,-1.7582,-1.7582,-1.7582,-1.861,-1.9746,-2.0885,-2.181,-2.2929,-2.4152,-2.4152,-2.4152,-2.4152,-2.4152,-2.4115,-2.407,-2.407,-2.4033,-2.3987,-2.3987,-2.3987,-2.395,-2.3593,-2.3464,-2.3322,-2.2984,-2.2857,-2.2848,-2.2793,-2.2774,-2.2774,-2.2774,-2.2774,-2.2784,-2.2848,-2.2857,-2.2857,-2.2857,-2.3139,-2.3505,-2.4051,-2.5159,-2.6548,-2.812,-2.8667,-2.916,-3.0491,-3.0771,-3.0903,-3.136,-3.1504,-3.1553,-3.1553,-3.1613,-3.1661,-3.1661,-3.1661,-3.1661,-3.1661,-3.1661,-3.1661,-3.1661,-3.1661,-3.1661,-3.1661,-3.1661,-3.2077,-3.298,-3.298,-3.3817,-3.5655,-3.5669,-3.6163,-3.6978,-3.6978,-3.6978,-3.6978,-3.7226,-3.7457,-3.7625,-3.7991,-3.8202,-3.8202,-3.8202,-3.8202,-3.8202,-3.8202,-3.8202,-3.8202,-3.8202,-3.8202,-3.8202,-3.8202,-3.8202,-3.8202,-1.7582,-1.7582,-1.7582,-1.7582,-1.7582,-1.7582,-1.7582,-1.7582,-1.7582,-1.7582,-1.7582,-1.7582,-1.7582,-1.7582,-1.7582,-1.7582,-1.7582,-1.7582,-1.7582,-1.7582,-1.7582,-1.7582,-1.8199,-1.8506,-1.8506,-2.0158,-2.1293,-2.181,-2.2224,-2.3038,-2.4152,-2.4152,-2.4152,-2.4152,-2.4152,-2.4152,-2.4152,-2.4152,-2.4152,-2.4152,-2.4152,-2.4152,-2.4134,-2.395,-2.3877,-2.3859,-2.3684,-2.3629,-2.3593,-2.3354,-2.3281,-2.3281,-2.3281,-2.3281,-2.3327,-2.3556,-2.3629,-2.3629,-2.3629,-2.3814,-2.4044,-2.4328,-2.5869,-2.7607,-2.8265,-2.9466,-3.0577,-3.1177,-3.1312,-3.1384,-3.1625,-3.1661,-3.1661,-3.1661,-3.1661,-3.1661,-3.1661,-3.1661,-3.1661,-3.1661,-3.1661,-3.1661,-3.1661,-3.1661,-3.1661,-3.1661,-3.1661,-3.1825,-3.2239,-3.2239,-3.3079,-3.4897,-3.4897,-3.5561,-3.6978,-3.6978,-3.6978,-3.6978,-3.7303,-3.7534,-3.7625,-3.7915,-3.8066,-3.8202,-3.8202,-3.8202,-3.8202,-3.8202,-3.8202,-3.8202,-3.8202,-3.8202,-3.8202,-3.8202,-3.8202,-3.8202]}]]